Darstellungsparameter: Aktuell verwendete Einstellungen:
Skalierung der Graphiken ... ?
xyx+y,   Skalierungsfaktor:      Skalierung: Modus: x, Faktor: 1
Darstellungszeitraum ... ?
Vom - - bis: - -   Zeitraum: 19.08.2018 - 18.02.2019
Min/Max/Avg-Anzeige ... ?
Zeige MMA aktuell
Zeige MMA Monat
Zeige MMA alles
Zeige --A aktuell
Zeige --A Monat
Zeige --A alles
Keine MMA-Anzeige
MMA:
Minimum Maximum Average (ber die Originaldaten)
MMA-Basis: 19.08.2018 - 18.02.2019
Quicknavigation für Darstellung... ?
Tage:      1T, 2T, 3T, 5T -1T -2T -3T -5T +1T +2T +3T +5T
Wochen: 1W, 2W, 3W -1W -2W -3W +1W +2W +3W
Monate: 1M, 3M, 6M -1M -3M -6M +1M +3M +6M
Jahre:    1J, 3J, 5J, 10J -1J -3J -5J -10J +1J +3J +5J +10J
Nutze für die Darstellung ... ?
Originaldaten oder Mittelwerte auf ...
Stundenbasis Tagesbasis Wochenbasis
Monatsbasis Jahresbasis      Datenbasis: Original-Daten
Darstellen als:
Statistik (Auto) Statistik J:M      Darstellung:
Zur Graphik,    zurück zur Übersicht aller Sensoren.
 
Tabellarische Datenbersicht: ?
 
Sensor: Nr:Datum:Temp:Feuchte:Taupunkt:
Aussen-T/F 1 19-08-2018 00:00:00 17.3 C 72 % 12.21 C
2 19-08-2018 00:05:00 17.2 C 73 % 12.32 C
3 19-08-2018 00:10:00 17.1 C 74 % 12.43 C
4 19-08-2018 00:15:00 16.9 C 74 % 12.24 C
5 19-08-2018 00:20:00 16.8 C 74 % 12.14 C
6 19-08-2018 00:25:00 16.7 C 75 % 12.25 C
7 19-08-2018 00:30:00 16.5 C 76 % 12.26 C
8 19-08-2018 00:35:00 16.4 C 76 % 12.16 C
9 19-08-2018 00:40:00 16.2 C 77 % 12.17 C
10 19-08-2018 00:45:00 16.1 C 77 % 12.07 C
11 19-08-2018 00:50:00 15.9 C 78 % 12.07 C
12 19-08-2018 00:55:00 15.8 C 78 % 11.97 C
13 19-08-2018 01:00:00 15.7 C 78 % 11.88 C
14 19-08-2018 01:05:00 15.6 C 79 % 11.97 C
15 19-08-2018 01:10:00 15.5 C 78 % 11.68 C
16 19-08-2018 01:15:00 15.4 C 79 % 11.78 C
17 19-08-2018 01:20:00 15.3 C 80 % 11.87 C
18 19-08-2018 01:25:00 15.2 C 80 % 11.78 C
19 19-08-2018 01:30:00 15.1 C 80 % 11.68 C
20 19-08-2018 01:35:00 15.1 C 80 % 11.68 C
21 19-08-2018 01:40:00 15 C 81 % 11.77 C
22 19-08-2018 01:45:00 14.9 C 81 % 11.67 C
23 19-08-2018 01:50:00 14.8 C 81 % 11.57 C
24 19-08-2018 01:55:00 14.8 C 82 % 11.76 C
25 19-08-2018 02:00:00 14.7 C 82 % 11.66 C
Sensor: Nr:Datum:Temp:Feuchte:Taupunkt:
Aussen-T/F 26 19-08-2018 02:05:00 14.6 C 82 % 11.56 C
27 19-08-2018 02:10:00 14.5 C 82 % 11.47 C
28 19-08-2018 02:15:00 14.4 C 83 % 11.55 C
29 19-08-2018 02:20:00 14.4 C 83 % 11.55 C
30 19-08-2018 02:25:00 14.3 C 83 % 11.45 C
31 19-08-2018 02:30:00 14.3 C 83 % 11.45 C
32 19-08-2018 02:35:00 14.2 C 83 % 11.36 C
33 19-08-2018 02:40:00 14.2 C 84 % 11.54 C
34 19-08-2018 02:45:00 14.2 C 84 % 11.54 C
35 19-08-2018 02:50:00 14.2 C 84 % 11.54 C
36 19-08-2018 02:55:00 14.2 C 84 % 11.54 C
37 19-08-2018 03:00:00 14.2 C 85 % 11.72 C
38 19-08-2018 03:05:00 14.2 C 85 % 11.72 C
39 19-08-2018 03:10:00 14.2 C 85 % 11.72 C
40 19-08-2018 03:15:00 14.1 C 85 % 11.62 C
41 19-08-2018 03:20:00 14.1 C 85 % 11.62 C
42 19-08-2018 03:25:00 14 C 85 % 11.52 C
43 19-08-2018 03:30:00 13.9 C 86 % 11.6 C
44 19-08-2018 03:35:00 13.9 C 86 % 11.6 C
45 19-08-2018 03:40:00 13.8 C 86 % 11.5 C
46 19-08-2018 03:45:00 13.8 C 86 % 11.5 C
47 19-08-2018 03:50:00 13.7 C 86 % 11.4 C
48 19-08-2018 03:55:00 13.7 C 87 % 11.58 C
49 19-08-2018 04:00:00 13.7 C 87 % 11.58 C
50 19-08-2018 04:05:00 13.6 C 87 % 11.48 C
Sensor: Nr:Datum:Temp:Feuchte:Taupunkt:
Aussen-T/F 51 19-08-2018 04:10:00 13.6 C 87 % 11.48 C
52 19-08-2018 04:15:00 13.6 C 87 % 11.48 C
53 19-08-2018 04:20:00 13.5 C 87 % 11.38 C
54 19-08-2018 04:25:00 13.4 C 88 % 11.45 C
55 19-08-2018 04:30:00 13.4 C 88 % 11.45 C
56 19-08-2018 04:35:00 13.3 C 88 % 11.36 C
57 19-08-2018 04:40:00 13.3 C 88 % 11.36 C
58 19-08-2018 04:45:00 13.3 C 88 % 11.36 C
59 19-08-2018 04:50:00 13.2 C 88 % 11.26 C
60 19-08-2018 04:55:00 13.2 C 88 % 11.26 C
61 19-08-2018 05:00:00 13.2 C 89 % 11.43 C
62 19-08-2018 05:05:00 13.2 C 89 % 11.43 C
63 19-08-2018 05:10:00 13.2 C 89 % 11.43 C
64 19-08-2018 05:15:00 13.2 C 89 % 11.43 C
65 19-08-2018 05:20:00 13.2 C 89 % 11.43 C
66 19-08-2018 05:25:00 13.1 C 89 % 11.33 C
67 19-08-2018 05:30:00 13.1 C 89 % 11.33 C
68 19-08-2018 05:35:00 13.1 C 89 % 11.33 C
69 19-08-2018 05:40:00 13 C 89 % 11.23 C
70 19-08-2018 05:45:00 12.9 C 89 % 11.13 C
71 19-08-2018 05:50:00 12.9 C 89 % 11.13 C
72 19-08-2018 05:55:00 12.8 C 89 % 11.03 C
73 19-08-2018 06:00:00 12.7 C 89 % 10.94 C
74 19-08-2018 06:05:00 12.7 C 89 % 10.94 C
75 19-08-2018 06:10:00 12.6 C 90 % 11 C
Sensor: Nr:Datum:Temp:Feuchte:Taupunkt:
Aussen-T/F 76 19-08-2018 06:15:00 12.6 C 89 % 10.84 C
77 19-08-2018 06:20:00 12.6 C 90 % 11 C
78 19-08-2018 06:25:00 12.5 C 90 % 10.91 C
79 19-08-2018 06:30:00 12.5 C 90 % 10.91 C
80 19-08-2018 06:35:00 12.5 C 90 % 10.91 C
81 19-08-2018 06:40:00 12.5 C 90 % 10.91 C
82 19-08-2018 06:45:00 12.5 C 91 % 11.07 C
83 19-08-2018 06:50:00 12.5 C 91 % 11.07 C
84 19-08-2018 06:55:00 12.6 C 91 % 11.17 C
85 19-08-2018 07:00:00 12.5 C 91 % 11.07 C
86 19-08-2018 07:05:00 12.5 C 91 % 11.07 C
87 19-08-2018 07:10:00 12.6 C 91 % 11.17 C
88 19-08-2018 07:15:00 12.6 C 91 % 11.17 C
89 19-08-2018 07:20:00 12.6 C 91 % 11.17 C
90 19-08-2018 07:25:00 12.6 C 91 % 11.17 C
91 19-08-2018 07:30:00 12.7 C 91 % 11.27 C
92 19-08-2018 07:35:00 12.7 C 91 % 11.27 C
93 19-08-2018 07:40:00 12.7 C 91 % 11.27 C
94 19-08-2018 07:45:00 12.8 C 91 % 11.37 C
95 19-08-2018 07:50:00 12.8 C 91 % 11.37 C
96 19-08-2018 07:55:00 12.8 C 91 % 11.37 C
97 19-08-2018 08:00:00 12.8 C 91 % 11.37 C
98 19-08-2018 08:05:00 12.9 C 91 % 11.47 C
99 19-08-2018 08:10:00 12.9 C 91 % 11.47 C
100 19-08-2018 08:15:00 13 C 91 % 11.57 C
Sensor: Nr:Datum:Temp:Feuchte:Taupunkt:
Aussen-T/F 101 19-08-2018 08:20:00 13 C 91 % 11.57 C
102 19-08-2018 08:25:00 13.1 C 91 % 11.67 C
103 19-08-2018 08:30:00 13.1 C 91 % 11.67 C
104 19-08-2018 08:35:00 13.2 C 91 % 11.76 C
105 19-08-2018 08:40:00 13.3 C 91 % 11.86 C
106 19-08-2018 08:45:00 13.4 C 91 % 11.96 C
107 19-08-2018 08:50:00 13.4 C 91 % 11.96 C
108 19-08-2018 08:55:00 13.6 C 91 % 12.16 C
109 19-08-2018 09:00:00 13.7 C 91 % 12.26 C
110 19-08-2018 09:05:00 13.8 C 92 % 12.52 C
111 19-08-2018 09:10:00 14 C 91 % 12.56 C
112 19-08-2018 09:15:00 14.2 C 91 % 12.75 C
113 19-08-2018 09:20:00 14.3 C 91 % 12.85 C
114 19-08-2018 09:25:00 14.5 C 91 % 13.05 C
115 19-08-2018 09:30:00 14.7 C 90 % 13.08 C
116 19-08-2018 09:35:00 15 C 90 % 13.37 C
117 19-08-2018 09:40:00 15.2 C 89 % 13.4 C
118 19-08-2018 09:45:00 15.4 C 89 % 13.6 C
119 19-08-2018 09:50:00 15.6 C 88 % 13.62 C
120 19-08-2018 09:55:00 15.8 C 88 % 13.82 C
121 19-08-2018 10:00:00 15.9 C 87 % 13.74 C
122 19-08-2018 10:05:00 16.3 C 86 % 13.95 C
123 19-08-2018 10:10:00 16.6 C 86 % 14.25 C
124 19-08-2018 10:15:00 16.8 C 85 % 14.26 C
125 19-08-2018 10:20:00 16.9 C 84 % 14.18 C
Sensor: Nr:Datum:Temp:Feuchte:Taupunkt:
Aussen-T/F 126 19-08-2018 10:25:00 17.2 C 84 % 14.47 C
127 19-08-2018 10:30:00 17.3 C 84 % 14.57 C
128 19-08-2018 10:35:00 17.5 C 83 % 14.58 C
129 19-08-2018 10:40:00 17.6 C 83 % 14.68 C
130 19-08-2018 10:45:00 17.8 C 82 % 14.69 C
131 19-08-2018 10:50:00 17.9 C 80 % 14.4 C
132 19-08-2018 10:55:00 18.2 C 81 % 14.89 C
133 19-08-2018 11:00:00 18.4 C 79 % 14.69 C
134 19-08-2018 11:05:00 18.8 C 77 % 14.68 C
135 19-08-2018 11:10:00 19.1 C 76 % 14.77 C
136 19-08-2018 11:15:00 19.4 C 75 % 14.86 C
137 19-08-2018 11:20:00 19.7 C 74 % 14.94 C
138 19-08-2018 11:25:00 20 C 72 % 14.8 C
139 19-08-2018 11:30:00 20.2 C 72 % 14.99 C
140 19-08-2018 11:35:00 20.4 C 69 % 14.52 C
141 19-08-2018 11:40:00 20.7 C 69 % 14.81 C
142 19-08-2018 11:45:00 20.9 C 68 % 14.77 C
143 19-08-2018 11:50:00 21.2 C 66 % 14.6 C
144 19-08-2018 11:55:00 21.6 C 65 % 14.74 C
145 19-08-2018 12:00:00 21.9 C 63 % 14.54 C
146 19-08-2018 12:05:00 22.2 C 62 % 14.58 C
147 19-08-2018 12:10:00 22.4 C 61 % 14.51 C
148 19-08-2018 12:15:00 22.6 C 60 % 14.44 C
149 19-08-2018 12:20:00 22.8 C 59 % 14.37 C
150 19-08-2018 12:25:00 23.1 C 59 % 14.65 C
Sensor: Nr:Datum:Temp:Feuchte:Taupunkt:
Aussen-T/F 151 19-08-2018 12:30:00 23.3 C 57 % 14.31 C
152 19-08-2018 12:35:00 23.4 C 57 % 14.4 C
153 19-08-2018 12:40:00 23.6 C 57 % 14.59 C
154 19-08-2018 12:45:00 23.7 C 57 % 14.68 C
155 19-08-2018 12:50:00 23.8 C 56 % 14.5 C
156 19-08-2018 12:55:00 23.9 C 55 % 14.31 C
157 19-08-2018 13:00:00 24.2 C 55 % 14.59 C
158 19-08-2018 13:05:00 24.3 C 53 % 14.11 C
159 19-08-2018 13:10:00 24.5 C 52 % 14 C
160 19-08-2018 13:15:00 24.7 C 52 % 14.19 C
161 19-08-2018 13:20:00 24.8 C 50 % 13.67 C
162 19-08-2018 13:25:00 25.1 C 50 % 13.95 C
163 19-08-2018 13:30:00 25.1 C 50 % 13.95 C
164 19-08-2018 13:35:00 25.2 C 50 % 14.04 C
165 19-08-2018 13:40:00 25.3 C 48 % 13.5 C
166 19-08-2018 13:45:00 25.4 C 48 % 13.6 C
167 19-08-2018 13:50:00 25.6 C 48 % 13.78 C
168 19-08-2018 13:55:00 25.7 C 47 % 13.55 C
169 19-08-2018 14:00:00 25.7 C 47 % 13.55 C
170 19-08-2018 14:05:00 25.7 C 48 % 13.87 C
171 19-08-2018 14:10:00 25.8 C 48 % 13.96 C
172 19-08-2018 14:15:00 26 C 47 % 13.82 C
173 19-08-2018 14:20:00 26.2 C 46 % 13.67 C
174 19-08-2018 14:25:00 26.3 C 45 % 13.42 C
175 19-08-2018 14:30:00 26.4 C 45 % 13.51 C
Sensor: Nr:Datum:Temp:Feuchte:Taupunkt:
Aussen-T/F 176 19-08-2018 14:35:00 26.5 C 45 % 13.6 C
177 19-08-2018 14:40:00 26.7 C 46 % 14.12 C
178 19-08-2018 14:45:00 26.8 C 45 % 13.87 C
179 19-08-2018 14:50:00 26.8 C 45 % 13.87 C
180 19-08-2018 14:55:00 26.9 C 43 % 13.27 C
181 19-08-2018 15:00:00 27.1 C 44 % 13.8 C
182 19-08-2018 15:05:00 27.3 C 44 % 13.98 C
183 19-08-2018 15:10:00 27.5 C 43 % 13.81 C
184 19-08-2018 15:15:00 27.7 C 43 % 13.99 C
185 19-08-2018 15:20:00 27.8 C 44 % 14.43 C
186 19-08-2018 15:25:00 27.9 C 44 % 14.52 C
187 19-08-2018 15:30:00 28 C 44 % 14.61 C
188 19-08-2018 15:35:00 28.1 C 43 % 14.35 C
189 19-08-2018 15:40:00 28.2 C 44 % 14.79 C
190 19-08-2018 15:45:00 28.4 C 43 % 14.62 C
191 19-08-2018 15:50:00 28.4 C 43 % 14.62 C
192 19-08-2018 15:55:00 28.7 C 43 % 14.88 C
193 19-08-2018 16:00:00 29 C 41 % 14.42 C
194 19-08-2018 16:05:00 29.2 C 42 % 14.97 C
195 19-08-2018 16:10:00 29.3 C 41 % 14.68 C
196 19-08-2018 16:15:00 29.4 C 41 % 14.77 C
197 19-08-2018 16:20:00 29.6 C 41 % 14.95 C
198 19-08-2018 16:25:00 29.8 C 41 % 15.13 C
199 19-08-2018 16:30:00 30.2 C 41 % 15.49 C
200 19-08-2018 16:35:00 30.4 C 39 % 14.89 C
Sensor: Nr:Datum:Temp:Feuchte:Taupunkt:
Aussen-T/F 201 19-08-2018 16:40:00 30.6 C 39 % 15.07 C
202 19-08-2018 16:45:00 30.6 C 39 % 15.07 C
203 19-08-2018 16:50:00 30.6 C 38 % 14.66 C
204 19-08-2018 16:55:00 30.7 C 38 % 14.75 C
205 19-08-2018 17:00:00 30.7 C 37 % 14.34 C
206 19-08-2018 17:05:00 30.6 C 39 % 15.07 C
207 19-08-2018 17:10:00 30.6 C 39 % 15.07 C
208 19-08-2018 17:15:00 30.7 C 39 % 15.15 C
209 19-08-2018 17:20:00 30.9 C 37 % 14.51 C
210 19-08-2018 17:25:00 30.9 C 37 % 14.51 C
211 19-08-2018 17:30:00 31.1 C 36 % 14.27 C
212 19-08-2018 17:35:00 31.1 C 33 % 12.93 C
213 19-08-2018 17:40:00 30.9 C 35 % 13.66 C
214 19-08-2018 17:45:00 30.6 C 35 % 13.39 C
215 19-08-2018 17:50:00 30.7 C 37 % 14.34 C
216 19-08-2018 17:55:00 30.8 C 35 % 13.57 C
217 19-08-2018 18:00:00 30.8 C 36 % 14 C
218 19-08-2018 18:05:00 30.8 C 36 % 14 C
219 19-08-2018 18:10:00 30.8 C 35 % 13.57 C
220 19-08-2018 18:15:00 30.8 C 37 % 14.43 C
221 19-08-2018 18:20:00 30.7 C 36 % 13.92 C
222 19-08-2018 18:25:00 30.4 C 37 % 14.07 C
223 19-08-2018 18:30:00 30.3 C 37 % 13.99 C
224 19-08-2018 18:35:00 30.1 C 37 % 13.81 C
225 19-08-2018 18:40:00 30.2 C 38 % 14.31 C
Sensor: Nr:Datum:Temp:Feuchte:Taupunkt:
Aussen-T/F 226 19-08-2018 18:45:00 30.3 C 37 % 13.99 C
227 19-08-2018 18:50:00 30.3 C 36 % 13.56 C
228 19-08-2018 18:55:00 30.3 C 37 % 13.99 C
229 19-08-2018 19:00:00 30.2 C 38 % 14.31 C
230 19-08-2018 19:05:00 30 C 39 % 14.53 C
231 19-08-2018 19:10:00 29.6 C 42 % 15.33 C
232 19-08-2018 19:15:00 28.9 C 42 % 14.7 C
233 19-08-2018 19:20:00 28.6 C 41 % 14.06 C
234 19-08-2018 19:25:00 28.3 C 42 % 14.16 C
235 19-08-2018 19:30:00 28.2 C 42 % 14.07 C
236 19-08-2018 19:35:00 28.1 C 42 % 13.98 C
237 19-08-2018 19:40:00 27.9 C 44 % 14.52 C
238 19-08-2018 19:45:00 27.9 C 44 % 14.52 C
239 19-08-2018 19:50:00 27.8 C 42 % 13.71 C
240 19-08-2018 19:55:00 27.8 C 43 % 14.08 C
241 19-08-2018 20:00:00 27.7 C 45 % 14.69 C
242 19-08-2018 20:05:00 27.4 C 47 % 15.09 C
243 19-08-2018 20:10:00 27.2 C 47 % 14.91 C
244 19-08-2018 20:15:00 26.8 C 46 % 14.21 C
245 19-08-2018 20:20:00 26.4 C 47 % 14.18 C
246 19-08-2018 20:25:00 25.9 C 48 % 14.05 C
247 19-08-2018 20:30:00 25.6 C 49 % 14.1 C
248 19-08-2018 20:35:00 25.2 C 50 % 14.04 C
249 19-08-2018 20:40:00 24.8 C 50 % 13.67 C
250 19-08-2018 20:45:00 24.6 C 52 % 14.09 C
Sensor: Nr:Datum:Temp:Feuchte:Taupunkt:
Aussen-T/F 251 19-08-2018 20:50:00 24.2 C 53 % 14.02 C
252 19-08-2018 20:55:00 23.8 C 53 % 13.65 C
253 19-08-2018 21:00:00 23.4 C 54 % 13.57 C
254 19-08-2018 21:05:00 23.2 C 54 % 13.38 C
255 19-08-2018 21:10:00 23 C 55 % 13.48 C
256 19-08-2018 21:15:00 22.8 C 56 % 13.57 C
257 19-08-2018 21:20:00 22.7 C 57 % 13.75 C
258 19-08-2018 21:25:00 22.5 C 58 % 13.83 C
259 19-08-2018 21:30:00 22.3 C 58 % 13.64 C
260 19-08-2018 21:35:00 22.2 C 59 % 13.81 C
261 19-08-2018 21:40:00 22.1 C 58 % 13.45 C
262 19-08-2018 21:45:00 22 C 59 % 13.62 C
263 19-08-2018 21:50:00 21.9 C 60 % 13.79 C
264 19-08-2018 21:55:00 21.8 C 60 % 13.69 C
265 19-08-2018 22:00:00 21.7 C 61 % 13.85 C
266 19-08-2018 22:05:00 21.7 C 62 % 14.1 C
267 19-08-2018 22:10:00 21.6 C 63 % 14.26 C
268 19-08-2018 22:15:00 21.4 C 64 % 14.31 C
269 19-08-2018 22:20:00 21.2 C 65 % 14.36 C
270 19-08-2018 22:25:00 21 C 66 % 14.41 C
271 19-08-2018 22:30:00 20.8 C 67 % 14.45 C
272 19-08-2018 22:35:00 20.6 C 68 % 14.49 C
273 19-08-2018 22:40:00 20.4 C 68 % 14.3 C
274 19-08-2018 22:45:00 20.2 C 70 % 14.56 C
275 19-08-2018 22:50:00 20.1 C 70 % 14.46 C
Sensor: Nr:Datum:Temp:Feuchte:Taupunkt:
Aussen-T/F 276 19-08-2018 22:55:00 19.9 C 71 % 14.49 C
277 19-08-2018 23:00:00 19.8 C 72 % 14.61 C
278 19-08-2018 23:05:00 19.6 C 72 % 14.42 C
279 19-08-2018 23:10:00 19.4 C 73 % 14.44 C
280 19-08-2018 23:15:00 19.4 C 73 % 14.44 C
281 19-08-2018 23:20:00 19.3 C 74 % 14.55 C
282 19-08-2018 23:25:00 19.2 C 74 % 14.46 C
283 19-08-2018 23:30:00 19.1 C 74 % 14.36 C
284 19-08-2018 23:35:00 19.1 C 75 % 14.57 C
285 19-08-2018 23:40:00 18.9 C 75 % 14.37 C
286 19-08-2018 23:45:00 18.9 C 75 % 14.37 C
287 19-08-2018 23:50:00 18.8 C 76 % 14.48 C
288 19-08-2018 23:55:00 18.6 C 76 % 14.29 C
289 20-08-2018 00:00:00 18.5 C 76 % 14.19 C
290 20-08-2018 00:05:00 18.4 C 77 % 14.3 C
291 20-08-2018 00:10:00 18.3 C 76 % 14 C
292 20-08-2018 00:15:00 18.2 C 76 % 13.9 C
293 20-08-2018 00:20:00 18.2 C 77 % 14.1 C
294 20-08-2018 00:25:00 18.1 C 77 % 14.01 C
295 20-08-2018 00:30:00 18.1 C 77 % 14.01 C
296 20-08-2018 00:35:00 18 C 77 % 13.91 C
297 20-08-2018 00:40:00 17.9 C 77 % 13.81 C
298 20-08-2018 00:45:00 17.8 C 77 % 13.72 C
299 20-08-2018 00:50:00 17.8 C 78 % 13.91 C
300 20-08-2018 00:55:00 17.7 C 78 % 13.82 C
Sensor: Nr:Datum:Temp:Feuchte:Taupunkt:
Aussen-T/F 301 20-08-2018 01:00:00 17.7 C 78 % 13.82 C
302 20-08-2018 01:05:00 17.7 C 78 % 13.82 C
303 20-08-2018 01:10:00 17.7 C 78 % 13.82 C
304 20-08-2018 01:15:00 17.6 C 79 % 13.92 C
305 20-08-2018 01:20:00 17.6 C 79 % 13.92 C
306 20-08-2018 01:25:00 17.6 C 79 % 13.92 C
307 20-08-2018 01:30:00 17.6 C 79 % 13.92 C
308 20-08-2018 01:35:00 17.5 C 79 % 13.82 C
309 20-08-2018 01:40:00 17.4 C 79 % 13.72 C
310 20-08-2018 01:45:00 17.4 C 79 % 13.72 C
311 20-08-2018 01:50:00 17.4 C 79 % 13.72 C
312 20-08-2018 01:55:00 17.3 C 79 % 13.63 C
313 20-08-2018 02:00:00 17.3 C 79 % 13.63 C
314 20-08-2018 02:05:00 17.3 C 80 % 13.82 C
315 20-08-2018 02:10:00 17.2 C 79 % 13.53 C
316 20-08-2018 02:15:00 17.2 C 80 % 13.72 C
317 20-08-2018 02:20:00 17.2 C 80 % 13.72 C
318 20-08-2018 02:25:00 17.2 C 80 % 13.72 C
319 20-08-2018 02:30:00 17.2 C 80 % 13.72 C
320 20-08-2018 02:35:00 17.2 C 80 % 13.72 C
321 20-08-2018 02:40:00 17.2 C 80 % 13.72 C
322 20-08-2018 02:45:00 17.2 C 80 % 13.72 C
323 20-08-2018 02:50:00 17.2 C 80 % 13.72 C
324 20-08-2018 02:55:00 17.1 C 80 % 13.62 C
325 20-08-2018 03:00:00 17 C 81 % 13.72 C
Sensor: Nr:Datum:Temp:Feuchte:Taupunkt:
Aussen-T/F 326 20-08-2018 03:05:00 16.9 C 81 % 13.62 C
327 20-08-2018 03:10:00 16.9 C 81 % 13.62 C
328 20-08-2018 03:15:00 16.8 C 82 % 13.71 C
329 20-08-2018 03:20:00 16.8 C 82 % 13.71 C
330 20-08-2018 03:25:00 16.8 C 81 % 13.52 C
331 20-08-2018 03:30:00 16.9 C 81 % 13.62 C
332 20-08-2018 03:35:00 16.9 C 81 % 13.62 C
333 20-08-2018 03:40:00 17 C 81 % 13.72 C
334 20-08-2018 03:45:00 16.9 C 81 % 13.62 C
335 20-08-2018 03:50:00 16.9 C 81 % 13.62 C
336 20-08-2018 03:55:00 16.8 C 81 % 13.52 C
337 20-08-2018 04:00:00 16.7 C 81 % 13.43 C
338 20-08-2018 04:05:00 16.5 C 82 % 13.42 C
339 20-08-2018 04:10:00 16.3 C 82 % 13.22 C
340 20-08-2018 04:15:00 16.2 C 83 % 13.31 C
341 20-08-2018 04:20:00 16.1 C 84 % 13.4 C
342 20-08-2018 04:25:00 16.1 C 84 % 13.4 C
343 20-08-2018 04:30:00 16 C 84 % 13.3 C
344 20-08-2018 04:35:00 16 C 85 % 13.48 C
345 20-08-2018 04:40:00 16 C 85 % 13.48 C
346 20-08-2018 04:45:00 15.9 C 85 % 13.38 C
347 20-08-2018 04:50:00 15.9 C 85 % 13.38 C
348 20-08-2018 04:55:00 15.8 C 85 % 13.28 C
349 20-08-2018 05:00:00 15.8 C 85 % 13.28 C
350 20-08-2018 05:05:00 15.8 C 86 % 13.46 C
Sensor: Nr:Datum:Temp:Feuchte:Taupunkt:
Aussen-T/F 351 20-08-2018 05:10:00 15.7 C 86 % 13.37 C
352 20-08-2018 05:15:00 15.7 C 86 % 13.37 C
353 20-08-2018 05:20:00 15.8 C 86 % 13.46 C
354 20-08-2018 05:25:00 15.8 C 86 % 13.46 C
355 20-08-2018 05:30:00 15.8 C 86 % 13.46 C
356 20-08-2018 05:35:00 15.9 C 86 % 13.56 C
357 20-08-2018 05:40:00 16.1 C 85 % 13.58 C
358 20-08-2018 05:45:00 16.2 C 85 % 13.68 C
359 20-08-2018 05:50:00 16.2 C 85 % 13.68 C
360 20-08-2018 05:55:00 16.1 C 85 % 13.58 C
361 20-08-2018 06:00:00 16.1 C 84 % 13.4 C
362 20-08-2018 06:05:00 16 C 85 % 13.48 C
363 20-08-2018 06:10:00 15.9 C 85 % 13.38 C
364 20-08-2018 06:15:00 15.8 C 85 % 13.28 C
365 20-08-2018 06:20:00 15.8 C 85 % 13.28 C
366 20-08-2018 06:25:00 15.7 C 86 % 13.37 C
367 20-08-2018 06:30:00 15.6 C 86 % 13.27 C
368 20-08-2018 06:35:00 15.6 C 86 % 13.27 C
369 20-08-2018 06:40:00 15.6 C 87 % 13.45 C
370 20-08-2018 06:45:00 15.6 C 87 % 13.45 C
371 20-08-2018 06:50:00 15.7 C 87 % 13.54 C
372 20-08-2018 06:55:00 15.8 C 87 % 13.64 C
373 20-08-2018 07:00:00 15.8 C 87 % 13.64 C
374 20-08-2018 07:05:00 15.9 C 87 % 13.74 C
375 20-08-2018 07:10:00 16.1 C 86 % 13.76 C
Sensor: Nr:Datum:Temp:Feuchte:Taupunkt:
Aussen-T/F 376 20-08-2018 07:15:00 16.2 C 86 % 13.86 C
377 20-08-2018 07:20:00 16.4 C 85 % 13.87 C
378 20-08-2018 07:25:00 16.6 C 85 % 14.07 C
379 20-08-2018 07:30:00 16.8 C 85 % 14.26 C
380 20-08-2018 07:35:00 16.8 C 84 % 14.08 C
381 20-08-2018 07:40:00 16.9 C 84 % 14.18 C
382 20-08-2018 07:45:00 17 C 84 % 14.28 C
383 20-08-2018 07:50:00 17.1 C 84 % 14.38 C
384 20-08-2018 07:55:00 17.2 C 84 % 14.47 C
385 20-08-2018 08:00:00 17.2 C 84 % 14.47 C
386 20-08-2018 08:05:00 17.3 C 84 % 14.57 C
387 20-08-2018 08:10:00 17.4 C 83 % 14.48 C
388 20-08-2018 08:15:00 17.5 C 83 % 14.58 C
389 20-08-2018 08:20:00 17.6 C 83 % 14.68 C
390 20-08-2018 08:25:00 17.7 C 83 % 14.78 C
391 20-08-2018 08:30:00 17.8 C 83 % 14.88 C
392 20-08-2018 08:35:00 17.8 C 83 % 14.88 C
393 20-08-2018 08:40:00 17.9 C 82 % 14.78 C
394 20-08-2018 08:45:00 17.9 C 83 % 14.97 C
395 20-08-2018 08:50:00 17.9 C 83 % 14.97 C
396 20-08-2018 08:55:00 17.9 C 83 % 14.97 C
397 20-08-2018 09:00:00 17.9 C 83 % 14.97 C
398 20-08-2018 09:05:00 18 C 83 % 15.07 C
399 20-08-2018 09:10:00 18.1 C 84 % 15.35 C
400 20-08-2018 09:15:00 18.1 C 84 % 15.35 C
Sensor: Nr:Datum:Temp:Feuchte:Taupunkt:
Aussen-T/F 401 20-08-2018 09:20:00 18.1 C 84 % 15.35 C
402 20-08-2018 09:25:00 18.2 C 84 % 15.45 C
403 20-08-2018 09:30:00 18.3 C 84 % 15.55 C
404 20-08-2018 09:35:00 18.4 C 84 % 15.65 C
405 20-08-2018 09:40:00 18.7 C 83 % 15.75 C
406 20-08-2018 09:45:00 19 C 83 % 16.05 C
407 20-08-2018 09:50:00 19.3 C 82 % 16.15 C
408 20-08-2018 09:55:00 19.5 C 81 % 16.15 C
409 20-08-2018 10:00:00 19.8 C 81 % 16.45 C
410 20-08-2018 10:05:00 20.1 C 80 % 16.54 C
411 20-08-2018 10:10:00 20.4 C 79 % 16.64 C
412 20-08-2018 10:15:00 20.7 C 78 % 16.73 C
413 20-08-2018 10:20:00 20.8 C 77 % 16.62 C
414 20-08-2018 10:25:00 20.9 C 76 % 16.51 C
415 20-08-2018 10:30:00 21 C 75 % 16.4 C
416 20-08-2018 10:35:00 21.1 C 75 % 16.5 C
417 20-08-2018 10:40:00 21.2 C 76 % 16.8 C
418 20-08-2018 10:45:00 21.2 C 75 % 16.59 C
419 20-08-2018 10:50:00 21.3 C 75 % 16.69 C
420 20-08-2018 10:55:00 21.4 C 74 % 16.57 C
421 20-08-2018 11:00:00 21.6 C 75 % 16.98 C
422 20-08-2018 11:05:00 21.8 C 74 % 16.96 C
423 20-08-2018 11:10:00 22.2 C 73 % 17.13 C
424 20-08-2018 11:15:00 22.5 C 71 % 16.98 C
425 20-08-2018 11:20:00 22.7 C 70 % 16.95 C
Sensor: Nr:Datum:Temp:Feuchte:Taupunkt:
Aussen-T/F 426 20-08-2018 11:25:00 22.8 C 71 % 17.27 C
427 20-08-2018 11:30:00 23 C 69 % 17.01 C
428 20-08-2018 11:35:00 23.1 C 68 % 16.87 C
429 20-08-2018 11:40:00 23.2 C 68 % 16.97 C
430 20-08-2018 11:45:00 23.3 C 68 % 17.06 C
431 20-08-2018 11:50:00 23.4 C 68 % 17.16 C
432 20-08-2018 11:55:00 23.5 C 67 % 17.02 C
433 20-08-2018 12:00:00 23.5 C 68 % 17.25 C
434 20-08-2018 12:05:00 23.6 C 67 % 17.11 C
435 20-08-2018 12:10:00 23.7 C 66 % 16.97 C
436 20-08-2018 12:15:00 23.8 C 66 % 17.07 C
437 20-08-2018 12:20:00 23.9 C 66 % 17.16 C
438 20-08-2018 12:25:00 24.1 C 65 % 17.11 C
439 20-08-2018 12:30:00 24.1 C 65 % 17.11 C
440 20-08-2018 12:35:00 24.2 C 65 % 17.2 C
441 20-08-2018 12:40:00 24.3 C 64 % 17.05 C
442 20-08-2018 12:45:00 24.3 C 63 % 16.81 C
443 20-08-2018 12:50:00 24.4 C 65 % 17.39 C
444 20-08-2018 12:55:00 24.4 C 62 % 16.65 C
445 20-08-2018 13:00:00 24.4 C 62 % 16.65 C
446 20-08-2018 13:05:00 24.3 C 63 % 16.81 C
447 20-08-2018 13:10:00 24.3 C 63 % 16.81 C
448 20-08-2018 13:15:00 24.4 C 60 % 16.13 C
449 20-08-2018 13:20:00 24.6 C 61 % 16.58 C
450 20-08-2018 13:25:00 24.8 C 60 % 16.51 C
Sensor: Nr:Datum:Temp:Feuchte:Taupunkt:
Aussen-T/F 451 20-08-2018 13:30:00 24.9 C 59 % 16.34 C
452 20-08-2018 13:35:00 24.9 C 59 % 16.34 C
453 20-08-2018 13:40:00 24.9 C 60 % 16.6 C
454 20-08-2018 13:45:00 24.9 C 59 % 16.34 C
455 20-08-2018 13:50:00 24.9 C 59 % 16.34 C
456 20-08-2018 13:55:00 24.8 C 59 % 16.24 C
457 20-08-2018 14:00:00 24.8 C 58 % 15.98 C
458 20-08-2018 14:05:00 24.8 C 59 % 16.24 C
459 20-08-2018 14:10:00 24.9 C 59 % 16.34 C
460 20-08-2018 14:15:00 25 C 59 % 16.43 C
461 20-08-2018 14:20:00 25.1 C 59 % 16.52 C
462 20-08-2018 14:25:00 25.2 C 58 % 16.35 C
463 20-08-2018 14:30:00 25.3 C 58 % 16.44 C
464 20-08-2018 14:35:00 25.3 C 58 % 16.44 C
465 20-08-2018 14:40:00 25.4 C 58 % 16.54 C
466 20-08-2018 14:45:00 25.6 C 58 % 16.72 C
467 20-08-2018 14:50:00 25.6 C 58 % 16.72 C
468 20-08-2018 14:55:00 25.6 C 58 % 16.72 C
469 20-08-2018 15:00:00 25.6 C 59 % 16.99 C
470 20-08-2018 15:05:00 25.7 C 59 % 17.09 C
471 20-08-2018 15:10:00 25.9 C 60 % 17.54 C
472 20-08-2018 15:15:00 26.1 C 58 % 17.19 C
473 20-08-2018 15:20:00 26.2 C 57 % 17.01 C
474 20-08-2018 15:25:00 26 C 58 % 17.1 C
475 20-08-2018 15:30:00 26 C 58 % 17.1 C
Sensor: Nr:Datum:Temp:Feuchte:Taupunkt:
Aussen-T/F 476 20-08-2018 15:35:00 26 C 59 % 17.37 C
477 20-08-2018 15:40:00 26.1 C 58 % 17.19 C
478 20-08-2018 15:45:00 26.1 C 58 % 17.19 C
479 20-08-2018 15:50:00 26.2 C 58 % 17.28 C
480 20-08-2018 15:55:00 26.1 C 58 % 17.19 C
481 20-08-2018 16:00:00 26 C 59 % 17.37 C
482 20-08-2018 16:05:00 25.8 C 59 % 17.18 C
483 20-08-2018 16:10:00 25.7 C 60 % 17.35 C
484 20-08-2018 16:15:00 25.5 C 60 % 17.16 C
485 20-08-2018 16:20:00 25.5 C 61 % 17.43 C
486 20-08-2018 16:25:00 25.4 C 61 % 17.33 C
487 20-08-2018 16:30:00 25.4 C 61 % 17.33 C
488 20-08-2018 16:35:00 25.4 C 61 % 17.33 C
489 20-08-2018 16:40:00 25.5 C 62 % 17.68 C
490 20-08-2018 16:45:00 25.6 C 62 % 17.78 C
491 20-08-2018 16:50:00 25.7 C 60 % 17.35 C
492 20-08-2018 16:55:00 25.7 C 61 % 17.61 C
493 20-08-2018 17:00:00 25.8 C 61 % 17.71 C
494 20-08-2018 17:05:00 26.1 C 60 % 17.73 C
495 20-08-2018 17:10:00 26.1 C 59 % 17.46 C
496 20-08-2018 17:15:00 25.8 C 60 % 17.45 C
497 20-08-2018 17:20:00 25.7 C 61 % 17.61 C
498 20-08-2018 17:25:00 25.6 C 61 % 17.52 C
499 20-08-2018 17:30:00 25.4 C 61 % 17.33 C
500 20-08-2018 17:35:00 25.3 C 62 % 17.5 C
Sensor: Nr:Datum:Temp:Feuchte:Taupunkt:
Aussen-T/F 501 20-08-2018 17:40:00 25.2 C 62 % 17.4 C
502 20-08-2018 17:45:00 25.1 C 63 % 17.56 C
503 20-08-2018 17:50:00 25.1 C 64 % 17.81 C
504 20-08-2018 17:55:00 24.9 C 64 % 17.62 C
505 20-08-2018 18:00:00 24.8 C 65 % 17.77 C
506 20-08-2018 18:05:00 24.7 C 65 % 17.68 C
507 20-08-2018 18:10:00 24.6 C 66 % 17.83 C
508 20-08-2018 18:15:00 24.6 C 66 % 17.83 C
509 20-08-2018 18:20:00 24.5 C 66 % 17.73 C
510 20-08-2018 18:25:00 24.4 C 66 % 17.64 C
511 20-08-2018 18:30:00 24.4 C 67 % 17.87 C
512 20-08-2018 18:35:00 24.4 C 66 % 17.64 C
513 20-08-2018 18:40:00 24.4 C 67 % 17.87 C
514 20-08-2018 18:45:00 24.4 C 67 % 17.87 C
515 20-08-2018 18:50:00 24.4 C 67 % 17.87 C
516 20-08-2018 18:55:00 24.3 C 67 % 17.78 C
517 20-08-2018 19:00:00 24.2 C 67 % 17.68 C
518 20-08-2018 19:05:00 24.2 C 67 % 17.68 C
519 20-08-2018 19:10:00 24.1 C 67 % 17.59 C
520 20-08-2018 19:15:00 24.1 C 67 % 17.59 C
521 20-08-2018 19:20:00 24.1 C 66 % 17.35 C
522 20-08-2018 19:25:00 24 C 66 % 17.26 C
523 20-08-2018 19:30:00 23.9 C 67 % 17.4 C
524 20-08-2018 19:35:00 23.8 C 68 % 17.54 C
525 20-08-2018 19:40:00 23.8 C 67 % 17.3 C
Sensor: Nr:Datum:Temp:Feuchte:Taupunkt:
Aussen-T/F 526 20-08-2018 19:45:00 23.8 C 68 % 17.54 C
527 20-08-2018 19:50:00 23.8 C 68 % 17.54 C
528 20-08-2018 19:55:00 23.7 C 67 % 17.21 C
529 20-08-2018 20:00:00 23.7 C 67 % 17.21 C
530 20-08-2018 20:05:00 23.6 C 67 % 17.11 C
531 20-08-2018 20:10:00 23.6 C 68 % 17.35 C
532 20-08-2018 20:15:00 23.4 C 69 % 17.39 C
533 20-08-2018 20:20:00 23.3 C 69 % 17.29 C
534 20-08-2018 20:25:00 23.1 C 71 % 17.55 C
535 20-08-2018 20:30:00 22.7 C 71 % 17.17 C
536 20-08-2018 20:35:00 22.4 C 71 % 16.88 C
537 20-08-2018 20:40:00 22.2 C 72 % 16.91 C
538 20-08-2018 20:45:00 22.1 C 71 % 16.6 C
539 20-08-2018 20:50:00 22.1 C 72 % 16.82 C
540 20-08-2018 20:55:00 22.1 C 72 % 16.82 C
541 20-08-2018 21:00:00 22.1 C 73 % 17.03 C
542 20-08-2018 21:05:00 22.1 C 73 % 17.03 C
543 20-08-2018 21:10:00 22.1 C 73 % 17.03 C
544 20-08-2018 21:15:00 22.1 C 71 % 16.6 C
545 20-08-2018 21:20:00 22.2 C 73 % 17.13 C
546 20-08-2018 21:25:00 22.2 C 73 % 17.13 C
547 20-08-2018 21:30:00 22.1 C 73 % 17.03 C
548 20-08-2018 21:35:00 21.9 C 73 % 16.84 C
549 20-08-2018 21:40:00 21.9 C 74 % 17.06 C
550 20-08-2018 21:45:00 21.8 C 73 % 16.75 C
Sensor: Nr:Datum:Temp:Feuchte:Taupunkt:
Aussen-T/F 551 20-08-2018 21:50:00 21.7 C 74 % 16.86 C
552 20-08-2018 21:55:00 21.6 C 75 % 16.98 C
553 20-08-2018 22:00:00 21.6 C 75 % 16.98 C
554 20-08-2018 22:05:00 21.5 C 76 % 17.09 C
555 20-08-2018 22:10:00 21.4 C 76 % 16.99 C
556 20-08-2018 22:15:00 21.4 C 76 % 16.99 C
557 20-08-2018 22:20:00 21.3 C 76 % 16.9 C
558 20-08-2018 22:25:00 21.3 C 76 % 16.9 C
559 20-08-2018 22:30:00 21.3 C 76 % 16.9 C
560 20-08-2018 22:35:00 21.2 C 77 % 17.01 C
561 20-08-2018 22:40:00 21.2 C 77 % 17.01 C
562 20-08-2018 22:45:00 21.3 C 77 % 17.1 C
563 20-08-2018 22:50:00 21.3 C 77 % 17.1 C
564 20-08-2018 22:55:00 21.3 C 77 % 17.1 C
565 20-08-2018 23:00:00 21.4 C 77 % 17.2 C
566 20-08-2018 23:05:00 21.4 C 78 % 17.4 C
567 20-08-2018 23:10:00 21.4 C 77 % 17.2 C
568 20-08-2018 23:15:00 21.3 C 78 % 17.31 C
569 20-08-2018 23:20:00 21.2 C 78 % 17.21 C
570 20-08-2018 23:25:00 21.1 C 78 % 17.11 C
571 20-08-2018 23:30:00 20.8 C 79 % 17.02 C
572 20-08-2018 23:35:00 20.6 C 79 % 16.83 C
573 20-08-2018 23:40:00 20.4 C 80 % 16.83 C
574 20-08-2018 23:45:00 20.2 C 81 % 16.84 C
575 20-08-2018 23:50:00 20.1 C 81 % 16.74 C
Sensor: Nr:Datum:Temp:Feuchte:Taupunkt:
Aussen-T/F 576 20-08-2018 23:55:00 19.9 C 82 % 16.74 C
577 21-08-2018 00:00:00 19.8 C 82 % 16.64 C
578 21-08-2018 00:05:00 19.8 C 83 % 16.83 C
579 21-08-2018 00:10:00 19.7 C 83 % 16.73 C
580 21-08-2018 00:15:00 19.7 C 83 % 16.73 C
581 21-08-2018 00:20:00 19.7 C 84 % 16.92 C
582 21-08-2018 00:25:00 19.6 C 84 % 16.82 C
583 21-08-2018 00:30:00 19.6 C 84 % 16.82 C
584 21-08-2018 00:35:00 19.6 C 84 % 16.82 C
585 21-08-2018 00:40:00 19.6 C 84 % 16.82 C
586 21-08-2018 00:45:00 19.6 C 84 % 16.82 C
587 21-08-2018 00:50:00 19.6 C 84 % 16.82 C
588 21-08-2018 00:55:00 19.7 C 84 % 16.92 C
589 21-08-2018 01:00:00 19.7 C 83 % 16.73 C
590 21-08-2018 01:05:00 19.7 C 83 % 16.73 C
591 21-08-2018 01:10:00 19.6 C 83 % 16.63 C
592 21-08-2018 01:15:00 19.6 C 83 % 16.63 C
593 21-08-2018 01:20:00 19.6 C 82 % 16.44 C
594 21-08-2018 01:25:00 19.5 C 82 % 16.35 C
595 21-08-2018 01:30:00 19.5 C 82 % 16.35 C
596 21-08-2018 01:35:00 19.4 C 81 % 16.06 C
597 21-08-2018 01:40:00 19.4 C 81 % 16.06 C
598 21-08-2018 01:45:00 19.4 C 81 % 16.06 C
599 21-08-2018 01:50:00 19.3 C 81 % 15.96 C
600 21-08-2018 01:55:00 19.3 C 81 % 15.96 C
Sensor: Nr:Datum:Temp:Feuchte:Taupunkt:
Aussen-T/F 601 21-08-2018 02:00:00 19.3 C 81 % 15.96 C
602 21-08-2018 02:05:00 19.3 C 81 % 15.96 C
603 21-08-2018 02:10:00 19.2 C 81 % 15.86 C
604 21-08-2018 02:15:00 19.2 C 81 % 15.86 C
605 21-08-2018 02:20:00 19.1 C 82 % 15.96 C
606 21-08-2018 02:25:00 19 C 82 % 15.86 C
607 21-08-2018 02:30:00 18.9 C 83 % 15.95 C
608 21-08-2018 02:35:00 18.9 C 83 % 15.95 C
609 21-08-2018 02:40:00 18.8 C 83 % 15.85 C
610 21-08-2018 02:45:00 18.8 C 84 % 16.04 C
611 21-08-2018 02:50:00 18.8 C 84 % 16.04 C
612 21-08-2018 02:55:00 18.7 C 84 % 15.94 C
613 21-08-2018 03:00:00 18.7 C 84 % 15.94 C
614 21-08-2018 03:05:00 18.7 C 84 % 15.94 C
615 21-08-2018 03:10:00 18.6 C 84 % 15.84 C
616 21-08-2018 03:15:00 18.6 C 84 % 15.84 C
617 21-08-2018 03:20:00 18.4 C 85 % 15.83 C
618 21-08-2018 03:25:00 18.4 C 85 % 15.83 C
619 21-08-2018 03:30:00 18.4 C 85 % 15.83 C
620 21-08-2018 03:35:00 18.3 C 85 % 15.74 C
621 21-08-2018 03:40:00 18.3 C 85 % 15.74 C
622 21-08-2018 03:45:00 18.3 C 85 % 15.74 C
623 21-08-2018 03:50:00 18.2 C 86 % 15.82 C
624 21-08-2018 03:55:00 18.2 C 86 % 15.82 C
625 21-08-2018 04:00:00 18.2 C 86 % 15.82 C
Sensor: Nr:Datum:Temp:Feuchte:Taupunkt:
Aussen-T/F 626 21-08-2018 04:05:00 18.1 C 86 % 15.72 C
627 21-08-2018 04:10:00 18.1 C 86 % 15.72 C
628 21-08-2018 04:15:00 18 C 86 % 15.62 C
629 21-08-2018 04:20:00 17.9 C 86 % 15.53 C
630 21-08-2018 04:25:00 17.8 C 87 % 15.61 C
631 21-08-2018 04:30:00 17.8 C 87 % 15.61 C
632 21-08-2018 04:35:00 17.7 C 87 % 15.51 C
633 21-08-2018 04:40:00 17.7 C 87 % 15.51 C
634 21-08-2018 04:45:00 17.6 C 87 % 15.41 C
635 21-08-2018 04:50:00 17.6 C 88 % 15.59 C
636 21-08-2018 04:55:00 17.5 C 88 % 15.49 C
637 21-08-2018 05:00:00 17.4 C 88 % 15.39 C
638 21-08-2018 05:05:00 17.3 C 88 % 15.29 C
639 21-08-2018 05:10:00 17.3 C 88 % 15.29 C
640 21-08-2018 05:15:00 17.2 C 88 % 15.2 C
641 21-08-2018 05:20:00 17.1 C 88 % 15.1 C
642 21-08-2018 05:25:00 16.9 C 88 % 14.9 C
643 21-08-2018 05:30:00 16.8 C 89 % 14.98 C
644 21-08-2018 05:35:00 16.8 C 88 % 14.8 C
645 21-08-2018 05:40:00 16.7 C 89 % 14.88 C
646 21-08-2018 05:45:00 16.6 C 89 % 14.78 C
647 21-08-2018 05:50:00 16.4 C 89 % 14.58 C
648 21-08-2018 05:55:00 16.4 C 89 % 14.58 C
649 21-08-2018 06:00:00 16.3 C 89 % 14.48 C
650 21-08-2018 06:05:00 16.3 C 90 % 14.66 C
Sensor: Nr:Datum:Temp:Feuchte:Taupunkt:
Aussen-T/F 651 21-08-2018 06:10:00 16.2 C 90 % 14.56 C
652 21-08-2018 06:15:00 16.2 C 90 % 14.56 C
653 21-08-2018 06:20:00 16.1 C 90 % 14.46 C
654 21-08-2018 06:25:00 16 C 90 % 14.36 C
655 21-08-2018 06:30:00 16 C 91 % 14.53 C
656 21-08-2018 06:35:00 16.1 C 91 % 14.63 C
657 21-08-2018 06:40:00 16 C 91 % 14.53 C
658 21-08-2018 06:45:00 16 C 91 % 14.53 C
659 21-08-2018 06:50:00 16 C 91 % 14.53 C
660 21-08-2018 06:55:00 16.1 C 91 % 14.63 C
661 21-08-2018 07:00:00 16.1 C 91 % 14.63 C
662 21-08-2018 07:05:00 16.1 C 91 % 14.63 C
663 21-08-2018 07:10:00 16 C 91 % 14.53 C
664 21-08-2018 07:15:00 16 C 92 % 14.7 C
665 21-08-2018 07:20:00 16.1 C 92 % 14.8 C
666 21-08-2018 07:25:00 16.1 C 92 % 14.8 C
667 21-08-2018 07:30:00 16.1 C 92 % 14.8 C
668 21-08-2018 07:35:00 16.1 C 92 % 14.8 C
669 21-08-2018 07:40:00 16.1 C 92 % 14.8 C
670 21-08-2018 07:45:00 16.2 C 92 % 14.9 C
671 21-08-2018 07:50:00 16.2 C 92 % 14.9 C
672 21-08-2018 07:55:00 16.3 C 92 % 15 C
673 21-08-2018 08:00:00 16.4 C 92 % 15.1 C
674 21-08-2018 08:05:00 16.4 C 92 % 15.1 C
675 21-08-2018 08:10:00 16.5 C 92 % 15.2 C
Sensor: Nr:Datum:Temp:Feuchte:Taupunkt:
Aussen-T/F 676 21-08-2018 08:15:00 16.6 C 92 % 15.3 C
677 21-08-2018 08:20:00 16.7 C 92 % 15.39 C
678 21-08-2018 08:25:00 16.8 C 92 % 15.49 C
679 21-08-2018 08:30:00 16.9 C 93 % 15.76 C
680 21-08-2018 08:35:00 17 C 92 % 15.69 C
681 21-08-2018 08:40:00 17.1 C 92 % 15.79 C
682 21-08-2018 08:45:00 17.2 C 92 % 15.89 C
683 21-08-2018 08:50:00 17.3 C 93 % 16.16 C
684 21-08-2018 08:55:00 17.5 C 92 % 16.19 C
685 21-08-2018 09:00:00 17.6 C 92 % 16.28 C
686 21-08-2018 09:05:00 17.7 C 92 % 16.38 C
687 21-08-2018 09:10:00 17.9 C 92 % 16.58 C
688 21-08-2018 09:15:00 18.1 C 92 % 16.78 C
689 21-08-2018 09:20:00 18.2 C 92 % 16.88 C
690 21-08-2018 09:25:00 18.4 C 91 % 16.9 C
691 21-08-2018 09:30:00 18.5 C 90 % 16.83 C
692 21-08-2018 09:35:00 18.7 C 90 % 17.03 C
693 21-08-2018 09:40:00 18.8 C 90 % 17.12 C
694 21-08-2018 09:45:00 18.9 C 89 % 17.05 C
695 21-08-2018 09:50:00 19 C 89 % 17.15 C
696 21-08-2018 09:55:00 19.2 C 88 % 17.16 C
697 21-08-2018 10:00:00 19.3 C 88 % 17.26 C
698 21-08-2018 10:05:00 19.4 C 87 % 17.18 C
699 21-08-2018 10:10:00 19.6 C 87 % 17.38 C
700 21-08-2018 10:15:00 19.8 C 86 % 17.39 C
Sensor: Nr:Datum:Temp:Feuchte:Taupunkt:
Aussen-T/F 701 21-08-2018 10:20:00 19.9 C 84 % 17.12 C
702 21-08-2018 10:25:00 20.2 C 84 % 17.41 C
703 21-08-2018 10:30:00 20.5 C 82 % 17.32 C
704 21-08-2018 10:35:00 20.8 C 81 % 17.42 C
705 21-08-2018 10:40:00 21.1 C 79 % 17.32 C
706 21-08-2018 10:45:00 21.3 C 78 % 17.31 C
707 21-08-2018 10:50:00 21.5 C 78 % 17.5 C
708 21-08-2018 10:55:00 21.7 C 77 % 17.49 C
709 21-08-2018 11:00:00 22 C 76 % 17.57 C
710 21-08-2018 11:05:00 22.2 C 74 % 17.34 C
711 21-08-2018 11:10:00 22.4 C 74 % 17.54 C
712 21-08-2018 11:15:00 22.7 C 73 % 17.61 C
713 21-08-2018 11:20:00 22.8 C 71 % 17.27 C
714 21-08-2018 11:25:00 22.9 C 70 % 17.14 C
715 21-08-2018 11:30:00 23.1 C 68 % 16.87 C
716 21-08-2018 11:35:00 23.1 C 67 % 16.64 C
717 21-08-2018 11:40:00 23.2 C 67 % 16.73 C
718 21-08-2018 11:45:00 23.3 C 68 % 17.06 C
719 21-08-2018 11:50:00 23.4 C 67 % 16.92 C
720 21-08-2018 11:55:00 23.6 C 66 % 16.88 C
721 21-08-2018 12:00:00 23.6 C 66 % 16.88 C
722 21-08-2018 12:05:00 23.6 C 65 % 16.64 C
723 21-08-2018 12:10:00 23.7 C 64 % 16.49 C
724 21-08-2018 12:15:00 23.7 C 62 % 15.99 C
725 21-08-2018 12:20:00 23.8 C 62 % 16.08 C
Sensor: Nr:Datum:Temp:Feuchte:Taupunkt:
Aussen-T/F 726 21-08-2018 12:25:00 24 C 61 % 16.02 C
727 21-08-2018 12:30:00 24.2 C 61 % 16.2 C
728 21-08-2018 12:35:00 24.4 C 60 % 16.13 C
729 21-08-2018 12:40:00 24.6 C 61 % 16.58 C
730 21-08-2018 12:45:00 24.7 C 60 % 16.41 C
731 21-08-2018 12:50:00 24.8 C 59 % 16.24 C
732 21-08-2018 12:55:00 24.8 C 59 % 16.24 C
733 21-08-2018 13:00:00 24.8 C 58 % 15.98 C
734 21-08-2018 13:05:00 24.8 C 58 % 15.98 C
735 21-08-2018 13:10:00 24.8 C 58 % 15.98 C
736 21-08-2018 13:15:00 24.8 C 58 % 15.98 C
737 21-08-2018 13:20:00 24.9 C 58 % 16.07 C
738 21-08-2018 13:25:00 25.2 C 58 % 16.35 C
739 21-08-2018 13:30:00 25.4 C 56 % 15.99 C
740 21-08-2018 13:35:00 25.5 C 57 % 16.36 C
741 21-08-2018 13:40:00 25.6 C 57 % 16.45 C
742 21-08-2018 13:45:00 25.6 C 56 % 16.17 C
743 21-08-2018 13:50:00 25.6 C 55 % 15.89 C
744 21-08-2018 13:55:00 25.7 C 56 % 16.26 C
745 21-08-2018 14:00:00 25.7 C 55 % 15.98 C
746 21-08-2018 14:05:00 25.8 C 54 % 15.79 C
747 21-08-2018 14:10:00 26 C 55 % 16.26 C
748 21-08-2018 14:15:00 26.2 C 54 % 16.16 C
749 21-08-2018 14:20:00 26.3 C 52 % 15.66 C
750 21-08-2018 14:25:00 26.4 C 52 % 15.75 C
Sensor: Nr:Datum:Temp:Feuchte:Taupunkt:
Aussen-T/F 751 21-08-2018 14:30:00 26.6 C 52 % 15.94 C
752 21-08-2018 14:35:00 26.7 C 52 % 16.03 C
753 21-08-2018 14:40:00 26.9 C 51 % 15.91 C
754 21-08-2018 14:45:00 27.1 C 50 % 15.78 C
755 21-08-2018 14:50:00 27.3 C 47 % 15 C
756 21-08-2018 14:55:00 27.4 C 48 % 15.42 C
757 21-08-2018 15:00:00 27.3 C 47 % 15 C
758 21-08-2018 15:05:00 27.2 C 47 % 14.91 C
759 21-08-2018 15:10:00 27.2 C 47 % 14.91 C
760 21-08-2018 15:15:00 27.2 C 47 % 14.91 C
761 21-08-2018 15:20:00 27.2 C 48 % 15.24 C
762 21-08-2018 15:25:00 27.4 C 46 % 14.76 C
763 21-08-2018 15:30:00 27.4 C 46 % 14.76 C
764 21-08-2018 15:35:00 27.4 C 48 % 15.42 C
765 21-08-2018 15:40:00 27.4 C 47 % 15.09 C
766 21-08-2018 15:45:00 27.5 C 47 % 15.18 C
767 21-08-2018 15:50:00 27.5 C 47 % 15.18 C
768 21-08-2018 15:55:00 27.6 C 47 % 15.27 C
769 21-08-2018 16:00:00 27.6 C 46 % 14.94 C
770 21-08-2018 16:05:00 27.6 C 47 % 15.27 C
771 21-08-2018 16:10:00 27.7 C 47 % 15.36 C
772 21-08-2018 16:15:00 27.7 C 47 % 15.36 C
773 21-08-2018 16:20:00 27.7 C 46 % 15.03 C
774 21-08-2018 16:25:00 27.7 C 46 % 15.03 C
775 21-08-2018 16:30:00 27.7 C 46 % 15.03 C
Sensor: Nr:Datum:Temp:Feuchte:Taupunkt:
Aussen-T/F 776 21-08-2018 16:35:00 27.7 C 46 % 15.03 C
777 21-08-2018 16:40:00 27.7 C 46 % 15.03 C
778 21-08-2018 16:45:00 27.8 C 46 % 15.12 C
779 21-08-2018 16:50:00 28.2 C 44 % 14.79 C
780 21-08-2018 16:55:00 28.2 C 45 % 15.14 C
781 21-08-2018 17:00:00 28.1 C 45 % 15.05 C
782 21-08-2018 17:05:00 28.1 C 46 % 15.39 C
783 21-08-2018 17:10:00 28.1 C 45 % 15.05 C
784 21-08-2018 17:15:00 28 C 46 % 15.3 C
785 21-08-2018 17:20:00 27.9 C 45 % 14.87 C
786 21-08-2018 17:25:00 27.9 C 44 % 14.52 C
787 21-08-2018 17:30:00 27.8 C 45 % 14.78 C
788 21-08-2018 17:35:00 27.8 C 45 % 14.78 C
789 21-08-2018 17:40:00 27.8 C 46 % 15.12 C
790 21-08-2018 17:45:00 27.8 C 45 % 14.78 C
791 21-08-2018 17:50:00 27.9 C 45 % 14.87 C
792 21-08-2018 17:55:00 28.4 C 44 % 14.97 C
793 21-08-2018 18:00:00 28.9 C 45 % 15.77 C
794 21-08-2018 18:05:00 29.4 C 44 % 15.87 C
795 21-08-2018 18:10:00 29.8 C 42 % 15.51 C
796 21-08-2018 18:15:00 29.9 C 42 % 15.6 C
797 21-08-2018 18:20:00 29.9 C 43 % 15.96 C
798 21-08-2018 18:25:00 30 C 43 % 16.05 C
799 21-08-2018 18:30:00 29.9 C 43 % 15.96 C
800 21-08-2018 18:35:00 29.6 C 44 % 16.05 C
Sensor: Nr:Datum:Temp:Feuchte:Taupunkt:
Aussen-T/F 801 21-08-2018 18:40:00 29.4 C 44 % 15.87 C
802 21-08-2018 18:45:00 29.3 C 44 % 15.78 C
803 21-08-2018 18:50:00 29.1 C 45 % 15.95 C
804 21-08-2018 18:55:00 28.8 C 45 % 15.68 C
805 21-08-2018 19:00:00 28.6 C 46 % 15.85 C
806 21-08-2018 19:05:00 28.5 C 46 % 15.75 C
807 21-08-2018 19:10:00 28.3 C 47 % 15.91 C
808 21-08-2018 19:15:00 28.2 C 47 % 15.82 C
809 21-08-2018 19:20:00 27.9 C 48 % 15.87 C
810 21-08-2018 19:25:00 27.6 C 48 % 15.6 C
811 21-08-2018 19:30:00 27.3 C 50 % 15.97 C
812 21-08-2018 19:35:00 27 C 51 % 16 C
813 21-08-2018 19:40:00 26.7 C 52 % 16.03 C
814 21-08-2018 19:45:00 26.4 C 55 % 16.63 C
815 21-08-2018 19:50:00 26.2 C 55 % 16.45 C
816 21-08-2018 19:55:00 26 C 56 % 16.54 C
817 21-08-2018 20:00:00 25.8 C 58 % 16.91 C
818 21-08-2018 20:05:00 25.6 C 57 % 16.45 C
819 21-08-2018 20:10:00 25.3 C 58 % 16.44 C
820 21-08-2018 20:15:00 25.1 C 59 % 16.52 C
821 21-08-2018 20:20:00 24.9 C 59 % 16.34 C
822 21-08-2018 20:25:00 24.7 C 60 % 16.41 C
823 21-08-2018 20:30:00 24.5 C 61 % 16.49 C
824 21-08-2018 20:35:00 24.3 C 61 % 16.3 C
825 21-08-2018 20:40:00 24.2 C 61 % 16.2 C
Sensor: Nr:Datum:Temp:Feuchte:Taupunkt:
Aussen-T/F 826 21-08-2018 20:45:00 24 C 62 % 16.27 C
827 21-08-2018 20:50:00 23.8 C 62 % 16.08 C
828 21-08-2018 20:55:00 23.6 C 62 % 15.89 C
829 21-08-2018 21:00:00 23.3 C 63 % 15.86 C
830 21-08-2018 21:05:00 23.2 C 64 % 16.01 C
831 21-08-2018 21:10:00 22.9 C 65 % 15.97 C
832 21-08-2018 21:15:00 22.7 C 65 % 15.78 C
833 21-08-2018 21:20:00 22.6 C 66 % 15.93 C
834 21-08-2018 21:25:00 22.4 C 67 % 15.97 C
835 21-08-2018 21:30:00 22.3 C 68 % 16.11 C
836 21-08-2018 21:35:00 22.3 C 68 % 16.11 C
837 21-08-2018 21:40:00 22.2 C 68 % 16.01 C
838 21-08-2018 21:45:00 22.2 C 68 % 16.01 C
839 21-08-2018 21:50:00 22.2 C 68 % 16.01 C
840 21-08-2018 21:55:00 22.2 C 68 % 16.01 C
841 21-08-2018 22:00:00 22.2 C 68 % 16.01 C
842 21-08-2018 22:05:00 22.1 C 68 % 15.92 C
843 21-08-2018 22:10:00 22 C 69 % 16.05 C
844 21-08-2018 22:15:00 21.9 C 69 % 15.96 C
845 21-08-2018 22:20:00 21.8 C 69 % 15.86 C
846 21-08-2018 22:25:00 21.7 C 69 % 15.77 C
847 21-08-2018 22:30:00 21.6 C 69 % 15.67 C
848 21-08-2018 22:35:00 21.6 C 69 % 15.67 C
849 21-08-2018 22:40:00 21.4 C 69 % 15.48 C
850 21-08-2018 22:45:00 21.3 C 70 % 15.61 C
Sensor: Nr:Datum:Temp:Feuchte:Taupunkt:
Aussen-T/F 851 21-08-2018 22:50:00 21.2 C 70 % 15.51 C
852 21-08-2018 22:55:00 21.1 C 70 % 15.42 C
853 21-08-2018 23:00:00 20.9 C 70 % 15.23 C
854 21-08-2018 23:05:00 20.8 C 71 % 15.35 C
855 21-08-2018 23:10:00 20.7 C 71 % 15.25 C
856 21-08-2018 23:15:00 20.6 C 71 % 15.16 C
857 21-08-2018 23:20:00 20.5 C 72 % 15.28 C
858 21-08-2018 23:25:00 20.3 C 72 % 15.09 C
859 21-08-2018 23:30:00 20.2 C 72 % 14.99 C
860 21-08-2018 23:35:00 20.2 C 72 % 14.99 C
861 21-08-2018 23:40:00 20.1 C 73 % 15.11 C
862 21-08-2018 23:45:00 20 C 74 % 15.23 C
863 21-08-2018 23:50:00 20 C 74 % 15.23 C
864 21-08-2018 23:55:00 20 C 74 % 15.23 C
865 22-08-2018 00:00:00 20.1 C 74 % 15.32 C
866 22-08-2018 00:05:00 20.1 C 74 % 15.32 C
867 22-08-2018 00:10:00 20.1 C 74 % 15.32 C
868 22-08-2018 00:15:00 20.1 C 74 % 15.32 C
869 22-08-2018 00:20:00 20.1 C 74 % 15.32 C
870 22-08-2018 00:25:00 20 C 74 % 15.23 C
871 22-08-2018 00:30:00 19.9 C 75 % 15.34 C
872 22-08-2018 00:35:00 19.9 C 74 % 15.13 C
873 22-08-2018 00:40:00 19.8 C 74 % 15.03 C
874 22-08-2018 00:45:00 19.8 C 74 % 15.03 C
875 22-08-2018 00:50:00 19.7 C 75 % 15.15 C
Sensor: Nr:Datum:Temp:Feuchte:Taupunkt:
Aussen-T/F 876 22-08-2018 00:55:00 19.7 C 75 % 15.15 C
877 22-08-2018 01:00:00 19.6 C 75 % 15.05 C
878 22-08-2018 01:05:00 19.4 C 75 % 14.86 C
879 22-08-2018 01:10:00 19.3 C 75 % 14.76 C
880 22-08-2018 01:15:00 19.2 C 76 % 14.87 C
881 22-08-2018 01:20:00 19.2 C 76 % 14.87 C
882 22-08-2018 01:25:00 19.1 C 76 % 14.77 C
883 22-08-2018 01:30:00 18.9 C 76 % 14.58 C
884 22-08-2018 01:35:00 18.8 C 77 % 14.68 C
885 22-08-2018 01:40:00 18.7 C 77 % 14.59 C
886 22-08-2018 01:45:00 18.6 C 77 % 14.49 C
887 22-08-2018 01:50:00 18.5 C 78 % 14.59 C
888 22-08-2018 01:55:00 18.4 C 78 % 14.5 C
889 22-08-2018 02:00:00 18.3 C 79 % 14.6 C
890 22-08-2018 02:05:00 18.3 C 79 % 14.6 C
891 22-08-2018 02:10:00 18.2 C 80 % 14.69 C
892 22-08-2018 02:15:00 18.1 C 80 % 14.6 C
893 22-08-2018 02:20:00 18 C 80 % 14.5 C
894 22-08-2018 02:25:00 17.9 C 80 % 14.4 C
895 22-08-2018 02:30:00 17.8 C 81 % 14.5 C
896 22-08-2018 02:35:00 17.7 C 81 % 14.4 C
897 22-08-2018 02:40:00 17.5 C 81 % 14.2 C
898 22-08-2018 02:45:00 17.4 C 82 % 14.3 C
899 22-08-2018 02:50:00 17.3 C 82 % 14.2 C
900 22-08-2018 02:55:00 17.3 C 82 % 14.2 C
Sensor: Nr:Datum:Temp:Feuchte:Taupunkt:
Aussen-T/F 901 22-08-2018 03:00:00 17.2 C 82 % 14.1 C
902 22-08-2018 03:05:00 17.1 C 83 % 14.19 C
903 22-08-2018 03:10:00 17.1 C 83 % 14.19 C
904 22-08-2018 03:15:00 17 C 83 % 14.09 C
905 22-08-2018 03:20:00 16.9 C 83 % 14 C
906 22-08-2018 03:25:00 16.9 C 84 % 14.18 C
907 22-08-2018 03:30:00 16.8 C 85 % 14.26 C
908 22-08-2018 03:35:00 16.8 C 85 % 14.26 C
909 22-08-2018 03:40:00 16.7 C 85 % 14.17 C
910 22-08-2018 03:45:00 16.6 C 85 % 14.07 C
911 22-08-2018 03:50:00 16.6 C 85 % 14.07 C
912 22-08-2018 03:55:00 16.5 C 85 % 13.97 C
913 22-08-2018 04:00:00 16.4 C 86 % 14.05 C
914 22-08-2018 04:05:00 16.4 C 85 % 13.87 C
915 22-08-2018 04:10:00 16.3 C 86 % 13.95 C
916 22-08-2018 04:15:00 16.2 C 86 % 13.86 C
917 22-08-2018 04:20:00 16.1 C 86 % 13.76 C
918 22-08-2018 04:25:00 16.1 C 86 % 13.76 C
919 22-08-2018 04:30:00 16 C 86 % 13.66 C
920 22-08-2018 04:35:00 15.9 C 86 % 13.56 C
921 22-08-2018 04:40:00 15.8 C 86 % 13.46 C
922 22-08-2018 04:45:00 15.8 C 87 % 13.64 C
923 22-08-2018 04:50:00 15.7 C 87 % 13.54 C
924 22-08-2018 04:55:00 15.7 C 87 % 13.54 C
925 22-08-2018 05:00:00 15.7 C 87 % 13.54 C
Sensor: Nr:Datum:Temp:Feuchte:Taupunkt:
Aussen-T/F 926 22-08-2018 05:05:00 15.6 C 87 % 13.45 C
927 22-08-2018 05:10:00 15.6 C 87 % 13.45 C
928 22-08-2018 05:15:00 15.6 C 87 % 13.45 C
929 22-08-2018 05:20:00 15.6 C 87 % 13.45 C
930 22-08-2018 05:25:00 15.5 C 87 % 13.35 C
931 22-08-2018 05:30:00 15.4 C 87 % 13.25 C
932 22-08-2018 05:35:00 15.4 C 87 % 13.25 C
933 22-08-2018 05:40:00 15.3 C 88 % 13.33 C
934 22-08-2018 05:45:00 15.4 C 88 % 13.42 C
935 22-08-2018 05:50:00 15.4 C 88 % 13.42 C
936 22-08-2018 05:55:00 15.3 C 88 % 13.33 C
937 22-08-2018 06:00:00 15.3 C 88 % 13.33 C
938 22-08-2018 06:05:00 15.3 C 88 % 13.33 C
939 22-08-2018 06:10:00 15.3 C 88 % 13.33 C
940 22-08-2018 06:15:00 15.3 C 88 % 13.33 C
941 22-08-2018 06:20:00 15.3 C 88 % 13.33 C
942 22-08-2018 06:25:00 15.3 C 89 % 13.5 C
943 22-08-2018 06:30:00 15.3 C 89 % 13.5 C
944 22-08-2018 06:35:00 15.2 C 89 % 13.4 C
945 22-08-2018 06:40:00 15.1 C 88 % 13.13 C
946 22-08-2018 06:45:00 15.1 C 89 % 13.3 C
947 22-08-2018 06:50:00 15.1 C 89 % 13.3 C
948 22-08-2018 06:55:00 15.1 C 89 % 13.3 C
949 22-08-2018 07:00:00 15.1 C 89 % 13.3 C
950 22-08-2018 07:05:00 15.1 C 89 % 13.3 C
Sensor: Nr:Datum:Temp:Feuchte:Taupunkt:
Aussen-T/F 951 22-08-2018 07:10:00 15.1 C 90 % 13.47 C
952 22-08-2018 07:15:00 15.2 C 90 % 13.57 C
953 22-08-2018 07:20:00 15.2 C 90 % 13.57 C
954 22-08-2018 07:25:00 15.2 C 90 % 13.57 C
955 22-08-2018 07:30:00 15.3 C 90 % 13.67 C
956 22-08-2018 07:35:00 15.4 C 90 % 13.77 C
957 22-08-2018 07:40:00 15.4 C 90 % 13.77 C
958 22-08-2018 07:45:00 15.5 C 90 % 13.87 C
959 22-08-2018 07:50:00 15.6 C 90 % 13.97 C
960 22-08-2018 07:55:00 15.6 C 90 % 13.97 C
961 22-08-2018 08:00:00 15.6 C 90 % 13.97 C
962 22-08-2018 08:05:00 15.7 C 90 % 14.06 C
963 22-08-2018 08:10:00 15.7 C 90 % 14.06 C
964 22-08-2018 08:15:00 15.8 C 90 % 14.16 C
965 22-08-2018 08:20:00 15.9 C 90 % 14.26 C
966 22-08-2018 08:25:00 16 C 90 % 14.36 C
967 22-08-2018 08:30:00 16.1 C 90 % 14.46 C
968 22-08-2018 08:35:00 16.2 C 90 % 14.56 C
969 22-08-2018 08:40:00 16.3 C 90 % 14.66 C
970 22-08-2018 08:45:00 16.4 C 90 % 14.76 C
971 22-08-2018 08:50:00 16.6 C 90 % 14.95 C
972 22-08-2018 08:55:00 16.7 C 90 % 15.05 C
973 22-08-2018 09:00:00 16.8 C 89 % 14.98 C
974 22-08-2018 09:05:00 16.9 C 89 % 15.08 C
975 22-08-2018 09:10:00 17 C 89 % 15.17 C
Sensor: Nr:Datum:Temp:Feuchte:Taupunkt:
Aussen-T/F 976 22-08-2018 09:15:00 17.1 C 89 % 15.27 C
977 22-08-2018 09:20:00 17.2 C 89 % 15.37 C
978 22-08-2018 09:25:00 17.3 C 89 % 15.47 C
979 22-08-2018 09:30:00 17.5 C 89 % 15.67 C
980 22-08-2018 09:35:00 17.7 C 89 % 15.86 C
981 22-08-2018 09:40:00 17.8 C 88 % 15.79 C
982 22-08-2018 09:45:00 18.1 C 88 % 16.08 C
983 22-08-2018 09:50:00 18.3 C 87 % 16.1 C
984 22-08-2018 09:55:00 18.5 C 87 % 16.3 C
985 22-08-2018 10:00:00 18.8 C 85 % 16.23 C
986 22-08-2018 10:05:00 18.9 C 84 % 16.14 C
987 22-08-2018 10:10:00 19.2 C 84 % 16.43 C
988 22-08-2018 10:15:00 19.4 C 84 % 16.63 C
989 22-08-2018 10:20:00 19.7 C 83 % 16.73 C
990 22-08-2018 10:25:00 19.8 C 82 % 16.64 C
991 22-08-2018 10:30:00 20 C 82 % 16.83 C
992 22-08-2018 10:35:00 20.2 C 80 % 16.64 C
993 22-08-2018 10:40:00 20.4 C 78 % 16.44 C
994 22-08-2018 10:45:00 20.7 C 79 % 16.93 C
995 22-08-2018 10:50:00 20.9 C 79 % 17.12 C
996 22-08-2018 10:55:00 21.1 C 78 % 17.11 C
997 22-08-2018 11:00:00 21.2 C 75 % 16.59 C
998 22-08-2018 11:05:00 21.4 C 75 % 16.79 C
999 22-08-2018 11:10:00 21.7 C 75 % 17.07 C
1000 22-08-2018 11:15:00 22 C 72 % 16.72 C
Sensor: Nr:Datum:Temp:Feuchte:Taupunkt:
Aussen-T/F 1001 22-08-2018 11:20:00 22.3 C 72 % 17.01 C
1002 22-08-2018 11:25:00 22.6 C 71 % 17.07 C
1003 22-08-2018 11:30:00 22.8 C 71 % 17.27 C
1004 22-08-2018 11:35:00 23.2 C 69 % 17.2 C
1005 22-08-2018 11:40:00 23.4 C 69 % 17.39 C
1006 22-08-2018 11:45:00 23.6 C 67 % 17.11 C
1007 22-08-2018 11:50:00 23.8 C 67 % 17.3 C
1008 22-08-2018 11:55:00 24.1 C 66 % 17.35 C
1009 22-08-2018 12:00:00 24.3 C 63 % 16.81 C
1010 22-08-2018 12:05:00 24.6 C 66 % 17.83 C
1011 22-08-2018 12:10:00 24.8 C 63 % 17.28 C
1012 22-08-2018 12:15:00 25 C 62 % 17.21 C
1013 22-08-2018 12:20:00 25.2 C 61 % 17.14 C
1014 22-08-2018 12:25:00 25.3 C 59 % 16.71 C
1015 22-08-2018 12:30:00 25.7 C 57 % 16.54 C
1016 22-08-2018 12:35:00 26.1 C 57 % 16.92 C
1017 22-08-2018 12:40:00 26.3 C 56 % 16.82 C
1018 22-08-2018 12:45:00 26.5 C 55 % 16.72 C
1019 22-08-2018 12:50:00 26.7 C 55 % 16.91 C
1020 22-08-2018 12:55:00 27 C 55 % 17.19 C
1021 22-08-2018 13:00:00 27.2 C 53 % 16.79 C
1022 22-08-2018 13:05:00 27.4 C 52 % 16.67 C
1023 22-08-2018 13:10:00 27.6 C 51 % 16.55 C
1024 22-08-2018 13:15:00 27.8 C 50 % 16.42 C
1025 22-08-2018 13:20:00 27.9 C 50 % 16.51 C
Sensor: Nr:Datum:Temp:Feuchte:Taupunkt:
Aussen-T/F 1026 22-08-2018 13:25:00 28.1 C 50 % 16.7 C
1027 22-08-2018 13:30:00 28.2 C 50 % 16.79 C
1028 22-08-2018 13:35:00 28.3 C 48 % 16.24 C
1029 22-08-2018 13:40:00 28.6 C 48 % 16.51 C
1030 22-08-2018 13:45:00 28.7 C 49 % 16.93 C
1031 22-08-2018 13:50:00 28.8 C 47 % 16.36 C
1032 22-08-2018 13:55:00 29.1 C 46 % 16.3 C
1033 22-08-2018 14:00:00 29.2 C 46 % 16.39 C
1034 22-08-2018 14:05:00 29.4 C 44 % 15.87 C
1035 22-08-2018 14:10:00 29.5 C 43 % 15.6 C
1036 22-08-2018 14:15:00 29.7 C 43 % 15.78 C
1037 22-08-2018 14:20:00 29.8 C 42 % 15.51 C
1038 22-08-2018 14:25:00 30 C 43 % 16.05 C
1039 22-08-2018 14:30:00 30.1 C 43 % 16.14 C
1040 22-08-2018 14:35:00 30.2 C 42 % 15.86 C
1041 22-08-2018 14:40:00 30.3 C 39 % 14.8 C
1042 22-08-2018 14:45:00 30.6 C 40 % 15.46 C
1043 22-08-2018 14:50:00 30.7 C 39 % 15.15 C
1044 22-08-2018 14:55:00 30.8 C 38 % 14.84 C
1045 22-08-2018 15:00:00 31 C 38 % 15.02 C
1046 22-08-2018 15:05:00 31.1 C 37 % 14.69 C
1047 22-08-2018 15:10:00 31.2 C 37 % 14.78 C
1048 22-08-2018 15:15:00 31.3 C 36 % 14.44 C
1049 22-08-2018 15:20:00 31.4 C 36 % 14.53 C
1050 22-08-2018 15:25:00 31.6 C 36 % 14.71 C
Sensor: Nr:Datum:Temp:Feuchte:Taupunkt:
Aussen-T/F 1051 22-08-2018 15:30:00 31.7 C 38 % 15.64 C
1052 22-08-2018 15:35:00 31.7 C 37 % 15.22 C
1053 22-08-2018 15:40:00 31.8 C 36 % 14.88 C
1054 22-08-2018 15:45:00 31.9 C 35 % 14.53 C
1055 22-08-2018 15:50:00 31.9 C 33 % 13.63 C
1056 22-08-2018 15:55:00 32.1 C 34 % 14.26 C
1057 22-08-2018 16:00:00 32.3 C 35 % 14.88 C
1058 22-08-2018 16:05:00 32.6 C 36 % 15.58 C
1059 22-08-2018 16:10:00 32.7 C 35 % 15.23 C
1060 22-08-2018 16:15:00 32.8 C 35 % 15.32 C
1061 22-08-2018 16:20:00 32.9 C 35 % 15.41 C
1062 22-08-2018 16:25:00 33.2 C 33 % 14.75 C
1063 22-08-2018 16:30:00 33.3 C 33 % 14.84 C
1064 22-08-2018 16:35:00 33.5 C 33 % 15.02 C
1065 22-08-2018 16:40:00 33.6 C 35 % 16.02 C
1066 22-08-2018 16:45:00 33.8 C 33 % 15.28 C
1067 22-08-2018 16:50:00 33.7 C 34 % 15.65 C
1068 22-08-2018 16:55:00 33.8 C 33 % 15.28 C
1069 22-08-2018 17:00:00 33.9 C 33 % 15.36 C
1070 22-08-2018 17:05:00 34.2 C 33 % 15.62 C
1071 22-08-2018 17:10:00 34.3 C 33 % 15.71 C
1072 22-08-2018 17:15:00 34.4 C 32 % 15.32 C
1073 22-08-2018 17:20:00 34.3 C 31 % 14.74 C
1074 22-08-2018 17:25:00 34.2 C 32 % 15.14 C
1075 22-08-2018 17:30:00 34.1 C 32 % 15.06 C
Sensor: Nr:Datum:Temp:Feuchte:Taupunkt:
Aussen-T/F 1076 22-08-2018 17:35:00 33.8 C 35 % 16.19 C
1077 22-08-2018 17:40:00 33.6 C 36 % 16.46 C
1078 22-08-2018 17:45:00 33.8 C 33 % 15.28 C
1079 22-08-2018 17:50:00 33.8 C 33 % 15.28 C
1080 22-08-2018 17:55:00 34.1 C 32 % 15.06 C
1081 22-08-2018 18:00:00 34.3 C 31 % 14.74 C
1082 22-08-2018 18:05:00 34.3 C 32 % 15.23 C
1083 22-08-2018 18:10:00 34.1 C 31 % 14.56 C
1084 22-08-2018 18:15:00 33.5 C 33 % 15.02 C
1085 22-08-2018 18:20:00 33.1 C 35 % 15.58 C
1086 22-08-2018 18:25:00 32.6 C 37 % 16.01 C
1087 22-08-2018 18:30:00 32.2 C 38 % 16.08 C
1088 22-08-2018 18:35:00 32.1 C 39 % 16.4 C
1089 22-08-2018 18:40:00 32.3 C 38 % 16.17 C
1090 22-08-2018 18:45:00 32.5 C 38 % 16.34 C
1091 22-08-2018 18:50:00 32.5 C 38 % 16.34 C
1092 22-08-2018 18:55:00 32.4 C 39 % 16.66 C
1093 22-08-2018 19:00:00 32.3 C 39 % 16.57 C
1094 22-08-2018 19:05:00 32.1 C 39 % 16.4 C
1095 22-08-2018 19:10:00 31.7 C 40 % 16.44 C
1096 22-08-2018 19:15:00 31.4 C 41 % 16.56 C
1097 22-08-2018 19:20:00 31.2 C 41 % 16.38 C
1098 22-08-2018 19:25:00 30.9 C 42 % 16.49 C
1099 22-08-2018 19:30:00 30.7 C 43 % 16.68 C
1100 22-08-2018 19:35:00 30.4 C 43 % 16.41 C
Sensor: Nr:Datum:Temp:Feuchte:Taupunkt:
Aussen-T/F 1101 22-08-2018 19:40:00 30.2 C 44 % 16.59 C
1102 22-08-2018 19:45:00 30 C 45 % 16.77 C
1103 22-08-2018 19:50:00 29.8 C 45 % 16.59 C
1104 22-08-2018 19:55:00 29.7 C 46 % 16.84 C
1105 22-08-2018 20:00:00 29.4 C 46 % 16.57 C
1106 22-08-2018 20:05:00 29.2 C 47 % 16.73 C
1107 22-08-2018 20:10:00 29 C 47 % 16.55 C
1108 22-08-2018 20:15:00 28.8 C 48 % 16.69 C
1109 22-08-2018 20:20:00 28.5 C 49 % 16.75 C
1110 22-08-2018 20:25:00 28.3 C 49 % 16.56 C
1111 22-08-2018 20:30:00 28.1 C 50 % 16.7 C
1112 22-08-2018 20:35:00 27.9 C 52 % 17.13 C
1113 22-08-2018 20:40:00 27.7 C 58 % 18.68 C
1114 22-08-2018 20:45:00 27.2 C 55 % 17.37 C
1115 22-08-2018 20:50:00 26.6 C 56 % 17.1 C
1116 22-08-2018 20:55:00 26.3 C 57 % 17.1 C
1117 22-08-2018 21:00:00 26.2 C 58 % 17.28 C
1118 22-08-2018 21:05:00 26.1 C 58 % 17.19 C
1119 22-08-2018 21:10:00 25.9 C 58 % 17 C
1120 22-08-2018 21:15:00 25.8 C 58 % 16.91 C
1121 22-08-2018 21:20:00 25.7 C 59 % 17.09 C
1122 22-08-2018 21:25:00 25.4 C 59 % 16.81 C
1123 22-08-2018 21:30:00 25.3 C 61 % 17.24 C
1124 22-08-2018 21:35:00 25.1 C 61 % 17.05 C
1125 22-08-2018 21:40:00 24.9 C 61 % 16.86 C
Sensor: Nr:Datum:Temp:Feuchte:Taupunkt:
Aussen-T/F 1126 22-08-2018 21:45:00 24.9 C 62 % 17.12 C
1127 22-08-2018 21:50:00 24.9 C 62 % 17.12 C
1128 22-08-2018 21:55:00 24.7 C 63 % 17.18 C
1129 22-08-2018 22:00:00 24.5 C 63 % 16.99 C
1130 22-08-2018 22:05:00 24.2 C 65 % 17.2 C
1131 22-08-2018 22:10:00 24.1 C 65 % 17.11 C
1132 22-08-2018 22:15:00 24 C 66 % 17.26 C
1133 22-08-2018 22:20:00 24 C 65 % 17.01 C
1134 22-08-2018 22:25:00 23.9 C 66 % 17.16 C
1135 22-08-2018 22:30:00 23.8 C 66 % 17.07 C
1136 22-08-2018 22:35:00 23.7 C 66 % 16.97 C
1137 22-08-2018 22:40:00 23.5 C 67 % 17.02 C
1138 22-08-2018 22:45:00 23.4 C 68 % 17.16 C
1139 22-08-2018 22:50:00 23.3 C 68 % 17.06 C
1140 22-08-2018 22:55:00 23.2 C 68 % 16.97 C
1141 22-08-2018 23:00:00 23.1 C 69 % 17.1 C
1142 22-08-2018 23:05:00 22.9 C 69 % 16.91 C
1143 22-08-2018 23:10:00 22.8 C 70 % 17.04 C
1144 22-08-2018 23:15:00 22.7 C 70 % 16.95 C
1145 22-08-2018 23:20:00 22.6 C 71 % 17.07 C
1146 22-08-2018 23:25:00 22.4 C 71 % 16.88 C
1147 22-08-2018 23:30:00 22.3 C 72 % 17.01 C
1148 22-08-2018 23:35:00 22.1 C 72 % 16.82 C
1149 22-08-2018 23:40:00 22.1 C 73 % 17.03 C
1150 22-08-2018 23:45:00 21.9 C 73 % 16.84 C
Sensor: Nr:Datum:Temp:Feuchte:Taupunkt:
Aussen-T/F 1151 22-08-2018 23:50:00 21.9 C 73 % 16.84 C
1152 22-08-2018 23:55:00 21.8 C 73 % 16.75 C
1153 23-08-2018 00:00:00 21.7 C 73 % 16.65 C
1154 23-08-2018 00:05:00 21.7 C 74 % 16.86 C
1155 23-08-2018 00:10:00 21.6 C 75 % 16.98 C
1156 23-08-2018 00:15:00 21.4 C 75 % 16.79 C
1157 23-08-2018 00:20:00 21.3 C 75 % 16.69 C
1158 23-08-2018 00:25:00 21.2 C 75 % 16.59 C
1159 23-08-2018 00:30:00 21.2 C 76 % 16.8 C
1160 23-08-2018 00:35:00 21.1 C 76 % 16.7 C
1161 23-08-2018 00:40:00 21 C 76 % 16.61 C
1162 23-08-2018 00:45:00 20.9 C 77 % 16.72 C
1163 23-08-2018 00:50:00 20.9 C 77 % 16.72 C
1164 23-08-2018 00:55:00 20.8 C 77 % 16.62 C
1165 23-08-2018 01:00:00 20.7 C 77 % 16.52 C
1166 23-08-2018 01:05:00 20.5 C 77 % 16.33 C
1167 23-08-2018 01:10:00 20.4 C 78 % 16.44 C
1168 23-08-2018 01:15:00 20.3 C 78 % 16.34 C
1169 23-08-2018 01:20:00 20.2 C 79 % 16.44 C
1170 23-08-2018 01:25:00 20.1 C 79 % 16.34 C
1171 23-08-2018 01:30:00 20.1 C 79 % 16.34 C
1172 23-08-2018 01:35:00 19.9 C 79 % 16.15 C
1173 23-08-2018 01:40:00 19.8 C 79 % 16.05 C
1174 23-08-2018 01:45:00 19.7 C 80 % 16.15 C
1175 23-08-2018 01:50:00 19.6 C 80 % 16.06 C
Sensor: Nr:Datum:Temp:Feuchte:Taupunkt:
Aussen-T/F 1176 23-08-2018 01:55:00 19.5 C 81 % 16.15 C
1177 23-08-2018 02:00:00 19.4 C 81 % 16.06 C
1178 23-08-2018 02:05:00 19.4 C 81 % 16.06 C
1179 23-08-2018 02:10:00 19.4 C 81 % 16.06 C
1180 23-08-2018 02:15:00 19.4 C 81 % 16.06 C
1181 23-08-2018 02:20:00 19.4 C 81 % 16.06 C
1182 23-08-2018 02:25:00 19.3 C 81 % 15.96 C
1183 23-08-2018 02:30:00 19.3 C 81 % 15.96 C
1184 23-08-2018 02:35:00 19.2 C 81 % 15.86 C
1185 23-08-2018 02:40:00 19.2 C 82 % 16.05 C
1186 23-08-2018 02:45:00 19.1 C 82 % 15.96 C
1187 23-08-2018 02:50:00 19.1 C 82 % 15.96 C
1188 23-08-2018 02:55:00 19 C 82 % 15.86 C
1189 23-08-2018 03:00:00 18.9 C 82 % 15.76 C
1190 23-08-2018 03:05:00 18.9 C 83 % 15.95 C
1191 23-08-2018 03:10:00 18.9 C 83 % 15.95 C
1192 23-08-2018 03:15:00 18.8 C 83 % 15.85 C
1193 23-08-2018 03:20:00 18.8 C 83 % 15.85 C
1194 23-08-2018 03:25:00 18.7 C 83 % 15.75 C
1195 23-08-2018 03:30:00 18.6 C 83 % 15.66 C
1196 23-08-2018 03:35:00 18.4 C 84 % 15.65 C
1197 23-08-2018 03:40:00 18.3 C 84 % 15.55 C
1198 23-08-2018 03:45:00 18.2 C 85 % 15.64 C
1199 23-08-2018 03:50:00 18.2 C 85 % 15.64 C
1200 23-08-2018 03:55:00 18.2 C 85 % 15.64 C
Sensor: Nr:Datum:Temp:Feuchte:Taupunkt:
Aussen-T/F 1201 23-08-2018 04:00:00 18.1 C 85 % 15.54 C
1202 23-08-2018 04:05:00 17.9 C 85 % 15.34 C
1203 23-08-2018 04:10:00 17.8 C 86 % 15.43 C
1204 23-08-2018 04:15:00 17.7 C 86 % 15.33 C
1205 23-08-2018 04:20:00 17.6 C 86 % 15.23 C
1206 23-08-2018 04:25:00 17.4 C 86 % 15.03 C
1207 23-08-2018 04:30:00 17.4 C 87 % 15.21 C
1208 23-08-2018 04:35:00 17.3 C 87 % 15.12 C
1209 23-08-2018 04:40:00 17.2 C 87 % 15.02 C
1210 23-08-2018 04:45:00 17.2 C 87 % 15.02 C
1211 23-08-2018 04:50:00 17.1 C 87 % 14.92 C
1212 23-08-2018 04:55:00 17 C 88 % 15 C
1213 23-08-2018 05:00:00 16.9 C 88 % 14.9 C
1214 23-08-2018 05:05:00 16.9 C 89 % 15.08 C
1215 23-08-2018 05:10:00 16.9 C 89 % 15.08 C
1216 23-08-2018 05:15:00 16.8 C 88 % 14.8 C
1217 23-08-2018 05:20:00 16.7 C 89 % 14.88 C
1218 23-08-2018 05:25:00 16.8 C 89 % 14.98 C
1219 23-08-2018 05:30:00 16.7 C 89 % 14.88 C
1220 23-08-2018 05:35:00 16.6 C 89 % 14.78 C
1221 23-08-2018 05:40:00 16.6 C 89 % 14.78 C
1222 23-08-2018 05:45:00 16.5 C 89 % 14.68 C
1223 23-08-2018 05:50:00 16.5 C 90 % 14.85 C
1224 23-08-2018 05:55:00 16.4 C 90 % 14.76 C
1225 23-08-2018 06:00:00 16.4 C 90 % 14.76 C
Sensor: Nr:Datum:Temp:Feuchte:Taupunkt:
Aussen-T/F 1226 23-08-2018 06:05:00 16.4 C 90 % 14.76 C
1227 23-08-2018 06:10:00 16.4 C 90 % 14.76 C
1228 23-08-2018 06:15:00 16.4 C 90 % 14.76 C
1229 23-08-2018 06:20:00 16.4 C 90 % 14.76 C
1230 23-08-2018 06:25:00 16.4 C 91 % 14.93 C
1231 23-08-2018 06:30:00 16.3 C 90 % 14.66 C
1232 23-08-2018 06:35:00 16.3 C 91 % 14.83 C
1233 23-08-2018 06:40:00 16.3 C 91 % 14.83 C
1234 23-08-2018 06:45:00 16.3 C 91 % 14.83 C
1235 23-08-2018 06:50:00 16.2 C 90 % 14.56 C
1236 23-08-2018 06:55:00 16.2 C 90 % 14.56 C
1237 23-08-2018 07:00:00 16.2 C 90 % 14.56 C
1238 23-08-2018 07:05:00 16.2 C 91 % 14.73 C
1239 23-08-2018 07:10:00 16.2 C 91 % 14.73 C
1240 23-08-2018 07:15:00 16.2 C 91 % 14.73 C
1241 23-08-2018 07:20:00 16.2 C 91 % 14.73 C
1242 23-08-2018 07:25:00 16.1 C 91 % 14.63 C
1243 23-08-2018 07:30:00 16.1 C 91 % 14.63 C
1244 23-08-2018 07:35:00 16.2 C 91 % 14.73 C
1245 23-08-2018 07:40:00 16.2 C 91 % 14.73 C
1246 23-08-2018 07:45:00 16.2 C 91 % 14.73 C
1247 23-08-2018 07:50:00 16.3 C 92 % 15 C
1248 23-08-2018 07:55:00 16.4 C 92 % 15.1 C
1249 23-08-2018 08:00:00 16.4 C 92 % 15.1 C
1250 23-08-2018 08:05:00 16.5 C 92 % 15.2 C
Sensor: Nr:Datum:Temp:Feuchte:Taupunkt:
Aussen-T/F 1251 23-08-2018 08:10:00 16.6 C 92 % 15.3 C
1252 23-08-2018 08:15:00 16.6 C 92 % 15.3 C
1253 23-08-2018 08:20:00 16.7 C 92 % 15.39 C
1254 23-08-2018 08:25:00 16.8 C 91 % 15.32 C
1255 23-08-2018 08:30:00 16.9 C 91 % 15.42 C
1256 23-08-2018 08:35:00 17.1 C 91 % 15.62 C
1257 23-08-2018 08:40:00 17.2 C 90 % 15.55 C
1258 23-08-2018 08:45:00 17.3 C 90 % 15.64 C
1259 23-08-2018 08:50:00 17.4 C 90 % 15.74 C
1260 23-08-2018 08:55:00 17.5 C 90 % 15.84 C
1261 23-08-2018 09:00:00 17.7 C 89 % 15.86 C
1262 23-08-2018 09:05:00 17.8 C 89 % 15.96 C
1263 23-08-2018 09:10:00 17.9 C 88 % 15.88 C
1264 23-08-2018 09:15:00 18.1 C 88 % 16.08 C
1265 23-08-2018 09:20:00 18.3 C 88 % 16.28 C
1266 23-08-2018 09:25:00 18.4 C 88 % 16.38 C
1267 23-08-2018 09:30:00 18.7 C 87 % 16.49 C
1268 23-08-2018 09:35:00 18.8 C 87 % 16.59 C
1269 23-08-2018 09:40:00 19.1 C 86 % 16.7 C
1270 23-08-2018 09:45:00 19.3 C 85 % 16.72 C
1271 23-08-2018 09:50:00 19.5 C 84 % 16.72 C
1272 23-08-2018 09:55:00 19.7 C 84 % 16.92 C
1273 23-08-2018 10:00:00 19.9 C 83 % 16.93 C
1274 23-08-2018 10:05:00 20.2 C 83 % 17.22 C
1275 23-08-2018 10:10:00 20.4 C 82 % 17.22 C
Sensor: Nr:Datum:Temp:Feuchte:Taupunkt:
Aussen-T/F 1276 23-08-2018 10:15:00 20.7 C 82 % 17.52 C
1277 23-08-2018 10:20:00 20.8 C 81 % 17.42 C
1278 23-08-2018 10:25:00 20.9 C 81 % 17.52 C
1279 23-08-2018 10:30:00 21.1 C 80 % 17.51 C
1280 23-08-2018 10:35:00 21.3 C 80 % 17.71 C
1281 23-08-2018 10:40:00 21.4 C 80 % 17.81 C
1282 23-08-2018 10:45:00 21.6 C 79 % 17.8 C
1283 23-08-2018 10:50:00 21.7 C 79 % 17.9 C
1284 23-08-2018 10:55:00 21.9 C 78 % 17.89 C
1285 23-08-2018 11:00:00 22.2 C 78 % 18.18 C
1286 23-08-2018 11:05:00 22.3 C 77 % 18.07 C
1287 23-08-2018 11:10:00 22.6 C 75 % 17.94 C
1288 23-08-2018 11:15:00 22.9 C 74 % 18.02 C
1289 23-08-2018 11:20:00 23.1 C 72 % 17.78 C
1290 23-08-2018 11:25:00 23.4 C 71 % 17.84 C
1291 23-08-2018 11:30:00 23.6 C 70 % 17.81 C
1292 23-08-2018 11:35:00 23.8 C 69 % 17.77 C
1293 23-08-2018 11:40:00 24.1 C 67 % 17.59 C
1294 23-08-2018 11:45:00 24.3 C 66 % 17.54 C
1295 23-08-2018 11:50:00 24.4 C 65 % 17.39 C
1296 23-08-2018 11:55:00 24.6 C 65 % 17.58 C
1297 23-08-2018 12:00:00 24.8 C 63 % 17.28 C
1298 23-08-2018 12:05:00 24.9 C 62 % 17.12 C
1299 23-08-2018 12:10:00 25.1 C 60 % 16.79 C
1300 23-08-2018 12:15:00 25.2 C 59 % 16.62 C
Sensor: Nr:Datum:Temp:Feuchte:Taupunkt:
Aussen-T/F 1301 23-08-2018 12:20:00 25.4 C 59 % 16.81 C
1302 23-08-2018 12:25:00 25.6 C 59 % 16.99 C
1303 23-08-2018 12:30:00 25.8 C 57 % 16.64 C
1304 23-08-2018 12:35:00 26 C 56 % 16.54 C
1305 23-08-2018 12:40:00 26.2 C 56 % 16.73 C
1306 23-08-2018 12:45:00 26.3 C 54 % 16.25 C
1307 23-08-2018 12:50:00 26.4 C 55 % 16.63 C
1308 23-08-2018 12:55:00 26.6 C 54 % 16.53 C
1309 23-08-2018 13:00:00 26.8 C 52 % 16.12 C
1310 23-08-2018 13:05:00 27.1 C 52 % 16.4 C
1311 23-08-2018 13:10:00 27.3 C 51 % 16.28 C
1312 23-08-2018 13:15:00 27.6 C 46 % 14.94 C
1313 23-08-2018 13:20:00 27.7 C 42 % 13.62 C
1314 23-08-2018 13:25:00 27.9 C 42 % 13.8 C
1315 23-08-2018 13:30:00 28.1 C 43 % 14.35 C
1316 23-08-2018 13:35:00 28.2 C 42 % 14.07 C
1317 23-08-2018 13:40:00 28.2 C 44 % 14.79 C
1318 23-08-2018 13:45:00 28.1 C 43 % 14.35 C
1319 23-08-2018 13:50:00 28.2 C 44 % 14.79 C
1320 23-08-2018 13:55:00 28.3 C 44 % 14.88 C
1321 23-08-2018 14:00:00 28.3 C 45 % 15.23 C
1322 23-08-2018 14:05:00 28.4 C 44 % 14.97 C
1323 23-08-2018 14:10:00 28.4 C 45 % 15.32 C
1324 23-08-2018 14:15:00 28.5 C 45 % 15.41 C
1325 23-08-2018 14:20:00 28.7 C 44 % 15.24 C
Sensor: Nr:Datum:Temp:Feuchte:Taupunkt:
Aussen-T/F 1326 23-08-2018 14:25:00 28.7 C 43 % 14.88 C
1327 23-08-2018 14:30:00 28.9 C 43 % 15.06 C
1328 23-08-2018 14:35:00 29.1 C 43 % 15.24 C
1329 23-08-2018 14:40:00 29.3 C 43 % 15.42 C
1330 23-08-2018 14:45:00 29.6 C 42 % 15.33 C
1331 23-08-2018 14:50:00 29.6 C 43 % 15.69 C
1332 23-08-2018 14:55:00 29.6 C 44 % 16.05 C
1333 23-08-2018 15:00:00 29.6 C 45 % 16.41 C
1334 23-08-2018 15:05:00 29.7 C 46 % 16.84 C
1335 23-08-2018 15:10:00 29.9 C 43 % 15.96 C
1336 23-08-2018 15:15:00 29.8 C 43 % 15.87 C
1337 23-08-2018 15:20:00 29.9 C 43 % 15.96 C
1338 23-08-2018 15:25:00 29.9 C 45 % 16.68 C
1339 23-08-2018 15:30:00 30 C 45 % 16.77 C
1340 23-08-2018 15:35:00 30.1 C 44 % 16.5 C
1341 23-08-2018 15:40:00 30.2 C 43 % 16.23 C
1342 23-08-2018 15:45:00 30.3 C 44 % 16.68 C
1343 23-08-2018 15:50:00 30.4 C 42 % 16.04 C
1344 23-08-2018 15:55:00 30.2 C 43 % 16.23 C
1345 23-08-2018 16:00:00 30.1 C 45 % 16.86 C
1346 23-08-2018 16:05:00 29.9 C 44 % 16.32 C
1347 23-08-2018 16:10:00 29.8 C 46 % 16.93 C
1348 23-08-2018 16:15:00 29.6 C 45 % 16.41 C
1349 23-08-2018 16:20:00 29.7 C 45 % 16.5 C
1350 23-08-2018 16:25:00 30.2 C 44 % 16.59 C
Sensor: Nr:Datum:Temp:Feuchte:Taupunkt:
Aussen-T/F 1351 23-08-2018 16:30:00 30.7 C 44 % 17.04 C
1352 23-08-2018 16:35:00 31.2 C 42 % 16.76 C
1353 23-08-2018 16:40:00 31.4 C 40 % 16.17 C
1354 23-08-2018 16:45:00 31.2 C 40 % 15.99 C
1355 23-08-2018 16:50:00 30.8 C 41 % 16.02 C
1356 23-08-2018 16:55:00 30.6 C 42 % 16.22 C
1357 23-08-2018 17:00:00 30.3 C 43 % 16.32 C
1358 23-08-2018 17:05:00 30.2 C 46 % 17.3 C
1359 23-08-2018 17:10:00 30.2 C 45 % 16.95 C
1360 23-08-2018 17:15:00 30.3 C 43 % 16.32 C
1361 23-08-2018 17:20:00 30.6 C 42 % 16.22 C
1362 23-08-2018 17:25:00 30.4 C 42 % 16.04 C
1363 23-08-2018 17:30:00 30.2 C 42 % 15.86 C
1364 23-08-2018 17:35:00 29.9 C 44 % 16.32 C
1365 23-08-2018 17:40:00 29.8 C 43 % 15.87 C
1366 23-08-2018 17:45:00 29.8 C 44 % 16.23 C
1367 23-08-2018 17:50:00 29.7 C 45 % 16.5 C
1368 23-08-2018 17:55:00 29.7 C 44 % 16.14 C
1369 23-08-2018 18:00:00 29.6 C 44 % 16.05 C
1370 23-08-2018 18:05:00 29.3 C 45 % 16.13 C
1371 23-08-2018 18:10:00 29.2 C 46 % 16.39 C
1372 23-08-2018 18:15:00 29.2 C 46 % 16.39 C
1373 23-08-2018 18:20:00 29.4 C 47 % 16.91 C
1374 23-08-2018 18:25:00 29.7 C 46 % 16.84 C
1375 23-08-2018 18:30:00 29.9 C 46 % 17.02 C
Sensor: Nr:Datum:Temp:Feuchte:Taupunkt:
Aussen-T/F 1376 23-08-2018 18:35:00 30 C 45 % 16.77 C
1377 23-08-2018 18:40:00 30.1 C 45 % 16.86 C
1378 23-08-2018 18:45:00 29.9 C 45 % 16.68 C
1379 23-08-2018 18:50:00 29.8 C 46 % 16.93 C
1380 23-08-2018 18:55:00 29.4 C 46 % 16.57 C
1381 23-08-2018 19:00:00 28.9 C 47 % 16.45 C
1382 23-08-2018 19:05:00 28.6 C 49 % 16.84 C
1383 23-08-2018 19:10:00 28.3 C 49 % 16.56 C
1384 23-08-2018 19:15:00 28.1 C 50 % 16.7 C
1385 23-08-2018 19:20:00 27.9 C 52 % 17.13 C
1386 23-08-2018 19:25:00 27.7 C 53 % 17.25 C
1387 23-08-2018 19:30:00 27.5 C 54 % 17.36 C
1388 23-08-2018 19:35:00 27.3 C 54 % 17.18 C
1389 23-08-2018 19:40:00 27.2 C 54 % 17.08 C
1390 23-08-2018 19:45:00 27.1 C 55 % 17.28 C
1391 23-08-2018 19:50:00 27 C 57 % 17.75 C
1392 23-08-2018 19:55:00 26.9 C 58 % 17.94 C
1393 23-08-2018 20:00:00 26.8 C 56 % 17.29 C
1394 23-08-2018 20:05:00 26.7 C 57 % 17.47 C
1395 23-08-2018 20:10:00 26.7 C 58 % 17.75 C
1396 23-08-2018 20:15:00 26.6 C 57 % 17.38 C
1397 23-08-2018 20:20:00 26.4 C 57 % 17.19 C
1398 23-08-2018 20:25:00 26 C 57 % 16.82 C
1399 23-08-2018 20:30:00 25.7 C 59 % 17.09 C
1400 23-08-2018 20:35:00 25.4 C 60 % 17.07 C
Sensor: Nr:Datum:Temp:Feuchte:Taupunkt:
Aussen-T/F 1401 23-08-2018 20:40:00 25.1 C 61 % 17.05 C
1402 23-08-2018 20:45:00 24.8 C 62 % 17.02 C
1403 23-08-2018 20:50:00 24.7 C 62 % 16.93 C
1404 23-08-2018 20:55:00 24.6 C 63 % 17.09 C
1405 23-08-2018 21:00:00 24.3 C 64 % 17.05 C
1406 23-08-2018 21:05:00 24.1 C 65 % 17.11 C
1407 23-08-2018 21:10:00 23.8 C 66 % 17.07 C
1408 23-08-2018 21:15:00 23.6 C 68 % 17.35 C
1409 23-08-2018 21:20:00 23.4 C 69 % 17.39 C
1410 23-08-2018 21:25:00 23.3 C 69 % 17.29 C
1411 23-08-2018 21:30:00 23.2 C 70 % 17.42 C
1412 23-08-2018 21:35:00 23.1 C 71 % 17.55 C
1413 23-08-2018 21:40:00 22.9 C 71 % 17.36 C
1414 23-08-2018 21:45:00 22.8 C 72 % 17.49 C
1415 23-08-2018 21:50:00 22.7 C 72 % 17.39 C
1416 23-08-2018 21:55:00 22.7 C 72 % 17.39 C
1417 23-08-2018 22:00:00 22.8 C 72 % 17.49 C
1418 23-08-2018 22:05:00 22.9 C 72 % 17.58 C
1419 23-08-2018 22:10:00 23 C 72 % 17.68 C
1420 23-08-2018 22:15:00 22.9 C 72 % 17.58 C
1421 23-08-2018 22:20:00 22.9 C 72 % 17.58 C
1422 23-08-2018 22:25:00 22.9 C 72 % 17.58 C
1423 23-08-2018 22:30:00 22.8 C 72 % 17.49 C
1424 23-08-2018 22:35:00 22.8 C 72 % 17.49 C
1425 23-08-2018 22:40:00 22.7 C 72 % 17.39 C
Sensor: Nr:Datum:Temp:Feuchte:Taupunkt:
Aussen-T/F 1426 23-08-2018 22:45:00 22.6 C 73 % 17.51 C
1427 23-08-2018 22:50:00 22.4 C 73 % 17.32 C
1428 23-08-2018 22:55:00 22.2 C 73 % 17.13 C
1429 23-08-2018 23:00:00 21.9 C 74 % 17.06 C
1430 23-08-2018 23:05:00 21.7 C 75 % 17.07 C
1431 23-08-2018 23:10:00 21.6 C 75 % 16.98 C
1432 23-08-2018 23:15:00 21.6 C 75 % 16.98 C
1433 23-08-2018 23:20:00 21.6 C 75 % 16.98 C
1434 23-08-2018 23:25:00 21.5 C 76 % 17.09 C
1435 23-08-2018 23:30:00 21.3 C 76 % 16.9 C
1436 23-08-2018 23:35:00 21.2 C 76 % 16.8 C
1437 23-08-2018 23:40:00 21.1 C 77 % 16.91 C
1438 23-08-2018 23:45:00 21 C 77 % 16.81 C
1439 23-08-2018 23:50:00 20.9 C 77 % 16.72 C
1440 23-08-2018 23:55:00 20.8 C 78 % 16.82 C
1441 24-08-2018 00:00:00 20.7 C 78 % 16.73 C
1442 24-08-2018 00:05:00 20.5 C 78 % 16.53 C
1443 24-08-2018 00:10:00 20.4 C 79 % 16.64 C
1444 24-08-2018 00:15:00 20.5 C 78 % 16.53 C
1445 24-08-2018 00:20:00 20.7 C 78 % 16.73 C
1446 24-08-2018 00:25:00 20.7 C 78 % 16.73 C
1447 24-08-2018 00:30:00 20.8 C 77 % 16.62 C
1448 24-08-2018 00:35:00 20.9 C 76 % 16.51 C
1449 24-08-2018 00:40:00 21.1 C 76 % 16.7 C
1450 24-08-2018 00:45:00 21.2 C 75 % 16.59 C
Sensor: Nr:Datum:Temp:Feuchte:Taupunkt:
Aussen-T/F 1451 24-08-2018 00:50:00 21.2 C 75 % 16.59 C
1452 24-08-2018 00:55:00 21.2 C 75 % 16.59 C
1453 24-08-2018 01:00:00 21.3 C 74 % 16.48 C
1454 24-08-2018 01:05:00 21.3 C 75 % 16.69 C
1455 24-08-2018 01:10:00 21.3 C 75 % 16.69 C
1456 24-08-2018 01:15:00 21.3 C 75 % 16.69 C
1457 24-08-2018 01:20:00 21.2 C 75 % 16.59 C
1458 24-08-2018 01:25:00 21.2 C 76 % 16.8 C
1459 24-08-2018 01:30:00 21.1 C 76 % 16.7 C
1460 24-08-2018 01:35:00 21.1 C 76 % 16.7 C
1461 24-08-2018 01:40:00 21 C 76 % 16.61 C
1462 24-08-2018 01:45:00 20.9 C 76 % 16.51 C
1463 24-08-2018 01:50:00 20.8 C 76 % 16.41 C
1464 24-08-2018 01:55:00 20.7 C 76 % 16.32 C
1465 24-08-2018 02:00:00 20.5 C 76 % 16.12 C
1466 24-08-2018 02:05:00 20.3 C 77 % 16.14 C
1467 24-08-2018 02:10:00 20.2 C 78 % 16.24 C
1468 24-08-2018 02:15:00 20.2 C 78 % 16.24 C
1469 24-08-2018 02:20:00 20.2 C 78 % 16.24 C
1470 24-08-2018 02:25:00 20.2 C 79 % 16.44 C
1471 24-08-2018 02:30:00 20.1 C 78 % 16.14 C
1472 24-08-2018 02:35:00 20.1 C 78 % 16.14 C
1473 24-08-2018 02:40:00 20 C 78 % 16.05 C
1474 24-08-2018 02:45:00 19.9 C 78 % 15.95 C
1475 24-08-2018 02:50:00 19.7 C 78 % 15.76 C
Sensor: Nr:Datum:Temp:Feuchte:Taupunkt:
Aussen-T/F 1476 24-08-2018 02:55:00 19.6 C 79 % 15.86 C
1477 24-08-2018 03:00:00 19.5 C 79 % 15.76 C
1478 24-08-2018 03:05:00 19.4 C 80 % 15.86 C
1479 24-08-2018 03:10:00 19.3 C 80 % 15.76 C
1480 24-08-2018 03:15:00 19.2 C 81 % 15.86 C
1481 24-08-2018 03:20:00 19.1 C 81 % 15.76 C
1482 24-08-2018 03:25:00 18.9 C 81 % 15.57 C
1483 24-08-2018 03:30:00 18.8 C 81 % 15.47 C
1484 24-08-2018 03:35:00 18.7 C 82 % 15.57 C
1485 24-08-2018 03:40:00 18.6 C 82 % 15.47 C
1486 24-08-2018 03:45:00 18.5 C 82 % 15.37 C
1487 24-08-2018 03:50:00 18.4 C 83 % 15.46 C
1488 24-08-2018 03:55:00 18.3 C 83 % 15.36 C
1489 24-08-2018 04:00:00 18.3 C 83 % 15.36 C
1490 24-08-2018 04:05:00 18.3 C 84 % 15.55 C
1491 24-08-2018 04:10:00 18.2 C 83 % 15.27 C
1492 24-08-2018 04:15:00 18.2 C 83 % 15.27 C
1493 24-08-2018 04:20:00 18.2 C 83 % 15.27 C
1494 24-08-2018 04:25:00 18.2 C 83 % 15.27 C
1495 24-08-2018 04:30:00 18.2 C 83 % 15.27 C
1496 24-08-2018 04:35:00 18.2 C 83 % 15.27 C
1497 24-08-2018 04:40:00 18.2 C 83 % 15.27 C
1498 24-08-2018 04:45:00 18.1 C 83 % 15.17 C
1499 24-08-2018 04:50:00 18.1 C 83 % 15.17 C
1500 24-08-2018 04:55:00 17.9 C 83 % 14.97 C
Sensor: Nr:Datum:Temp:Feuchte:Taupunkt:
Aussen-T/F 1501 24-08-2018 05:00:00 17.9 C 83 % 14.97 C
1502 24-08-2018 05:05:00 17.8 C 83 % 14.88 C
1503 24-08-2018 05:10:00 17.7 C 84 % 14.96 C
1504 24-08-2018 05:15:00 17.6 C 84 % 14.87 C
1505 24-08-2018 05:20:00 17.6 C 84 % 14.87 C
1506 24-08-2018 05:25:00 17.6 C 84 % 14.87 C
1507 24-08-2018 05:30:00 17.5 C 84 % 14.77 C
1508 24-08-2018 05:35:00 17.5 C 83 % 14.58 C
1509 24-08-2018 05:40:00 17.5 C 83 % 14.58 C
1510 24-08-2018 05:45:00 17.6 C 81 % 14.3 C
1511 24-08-2018 05:50:00 17.6 C 80 % 14.11 C
1512 24-08-2018 05:55:00 17.6 C 77 % 13.52 C
1513 24-08-2018 06:00:00 17.7 C 77 % 13.62 C
1514 24-08-2018 06:05:00 17.7 C 77 % 13.62 C
1515 24-08-2018 06:10:00 17.6 C 77 % 13.52 C
1516 24-08-2018 06:15:00 17.6 C 77 % 13.52 C
1517 24-08-2018 06:20:00 17.4 C 78 % 13.53 C
1518 24-08-2018 06:25:00 17.4 C 78 % 13.53 C
1519 24-08-2018 06:30:00 17.4 C 78 % 13.53 C
1520 24-08-2018 06:35:00 17.4 C 78 % 13.53 C
1521 24-08-2018 06:40:00 17.4 C 77 % 13.33 C
1522 24-08-2018 06:45:00 17.5 C 77 % 13.43 C
1523 24-08-2018 06:50:00 17.6 C 76 % 13.32 C
1524 24-08-2018 06:55:00 17.6 C 76 % 13.32 C
1525 24-08-2018 07:00:00 17.7 C 76 % 13.42 C
Sensor: Nr:Datum:Temp:Feuchte:Taupunkt:
Aussen-T/F 1526 24-08-2018 07:05:00 17.6 C 76 % 13.32 C
1527 24-08-2018 07:10:00 17.6 C 75 % 13.12 C
1528 24-08-2018 07:15:00 17.7 C 74 % 13.01 C
1529 24-08-2018 07:20:00 17.7 C 72 % 12.59 C
1530 24-08-2018 07:25:00 17.8 C 72 % 12.69 C
1531 24-08-2018 07:30:00 17.8 C 72 % 12.69 C
1532 24-08-2018 07:35:00 17.8 C 71 % 12.47 C
1533 24-08-2018 07:40:00 17.8 C 72 % 12.69 C
1534 24-08-2018 07:45:00 17.8 C 71 % 12.47 C
1535 24-08-2018 07:50:00 17.8 C 72 % 12.69 C
1536 24-08-2018 07:55:00 17.8 C 72 % 12.69 C
1537 24-08-2018 08:00:00 17.8 C 72 % 12.69 C
1538 24-08-2018 08:05:00 17.8 C 72 % 12.69 C
1539 24-08-2018 08:10:00 17.7 C 72 % 12.59 C
1540 24-08-2018 08:15:00 17.7 C 72 % 12.59 C
1541 24-08-2018 08:20:00 17.7 C 72 % 12.59 C
1542 24-08-2018 08:25:00 17.7 C 72 % 12.59 C
1543 24-08-2018 08:30:00 17.8 C 72 % 12.69 C
1544 24-08-2018 08:35:00 17.8 C 75 % 13.31 C
1545 24-08-2018 08:40:00 17.7 C 77 % 13.62 C
1546 24-08-2018 08:45:00 17.4 C 78 % 13.53 C
1547 24-08-2018 08:50:00 17.2 C 79 % 13.53 C
1548 24-08-2018 08:55:00 17.1 C 81 % 13.82 C
1549 24-08-2018 09:00:00 17 C 81 % 13.72 C
1550 24-08-2018 09:05:00 16.8 C 82 % 13.71 C
Sensor: Nr:Datum:Temp:Feuchte:Taupunkt:
Aussen-T/F 1551 24-08-2018 09:10:00 16.7 C 83 % 13.8 C
1552 24-08-2018 09:15:00 16.7 C 84 % 13.98 C
1553 24-08-2018 09:20:00 16.6 C 84 % 13.89 C
1554 24-08-2018 09:25:00 16.6 C 84 % 13.89 C
1555 24-08-2018 09:30:00 16.6 C 84 % 13.89 C
1556 24-08-2018 09:35:00 16.7 C 83 % 13.8 C
1557 24-08-2018 09:40:00 16.7 C 84 % 13.98 C
1558 24-08-2018 09:45:00 16.8 C 85 % 14.26 C
1559 24-08-2018 09:50:00 16.7 C 86 % 14.35 C
1560 24-08-2018 09:55:00 16.8 C 87 % 14.62 C
1561 24-08-2018 10:00:00 16.8 C 87 % 14.62 C
1562 24-08-2018 10:05:00 16.8 C 87 % 14.62 C
1563 24-08-2018 10:10:00 16.8 C 86 % 14.45 C
1564 24-08-2018 10:15:00 16.8 C 86 % 14.45 C
1565 24-08-2018 10:20:00 17 C 86 % 14.64 C
1566 24-08-2018 10:25:00 17.2 C 85 % 14.66 C
1567 24-08-2018 10:30:00 17.2 C 84 % 14.47 C
1568 24-08-2018 10:35:00 17.3 C 85 % 14.76 C
1569 24-08-2018 10:40:00 17.3 C 85 % 14.76 C
1570 24-08-2018 10:45:00 17.4 C 85 % 14.85 C
1571 24-08-2018 10:50:00 17.4 C 84 % 14.67 C
1572 24-08-2018 10:55:00 17.6 C 85 % 15.05 C
1573 24-08-2018 11:00:00 17.7 C 85 % 15.15 C
1574 24-08-2018 11:05:00 17.9 C 84 % 15.16 C
1575 24-08-2018 11:10:00 18 C 83 % 15.07 C
Sensor: Nr:Datum:Temp:Feuchte:Taupunkt:
Aussen-T/F 1576 24-08-2018 11:15:00 18.2 C 83 % 15.27 C
1577 24-08-2018 11:20:00 18.3 C 82 % 15.17 C
1578 24-08-2018 11:25:00 18.5 C 81 % 15.18 C
1579 24-08-2018 11:30:00 18.6 C 80 % 15.08 C
1580 24-08-2018 11:35:00 18.7 C 79 % 14.99 C
1581 24-08-2018 11:40:00 18.8 C 76 % 14.48 C
1582 24-08-2018 11:45:00 18.8 C 76 % 14.48 C
1583 24-08-2018 11:50:00 18.8 C 71 % 13.43 C
1584 24-08-2018 11:55:00 18.9 C 73 % 13.96 C
1585 24-08-2018 12:00:00 19.1 C 70 % 13.5 C
1586 24-08-2018 12:05:00 19.2 C 69 % 13.38 C
1587 24-08-2018 12:10:00 19.3 C 69 % 13.47 C
1588 24-08-2018 12:15:00 19.4 C 67 % 13.12 C
1589 24-08-2018 12:20:00 19.6 C 66 % 13.08 C
1590 24-08-2018 12:25:00 19.8 C 65 % 13.03 C
1591 24-08-2018 12:30:00 20 C 63 % 12.75 C
1592 24-08-2018 12:35:00 20.1 C 62 % 12.6 C
1593 24-08-2018 12:40:00 20.2 C 61 % 12.44 C
1594 24-08-2018 12:45:00 20.2 C 60 % 12.19 C
1595 24-08-2018 12:50:00 20.3 C 62 % 12.79 C
1596 24-08-2018 12:55:00 20.6 C 61 % 12.82 C
1597 24-08-2018 13:00:00 20.7 C 59 % 12.41 C
1598 24-08-2018 13:05:00 20.8 C 58 % 12.24 C
1599 24-08-2018 13:10:00 20.9 C 58 % 12.33 C
1600 24-08-2018 13:15:00 20.9 C 58 % 12.33 C
Sensor: Nr:Datum:Temp:Feuchte:Taupunkt:
Aussen-T/F 1601 24-08-2018 13:20:00 20.9 C 56 % 11.8 C
1602 24-08-2018 13:25:00 20.9 C 55 % 11.53 C
1603 24-08-2018 13:30:00 21 C 54 % 11.34 C
1604 24-08-2018 13:35:00 21.1 C 53 % 11.15 C
1605 24-08-2018 13:40:00 21.2 C 53 % 11.25 C
1606 24-08-2018 13:45:00 21.2 C 57 % 12.35 C
1607 24-08-2018 13:50:00 21.1 C 59 % 12.78 C
1608 24-08-2018 13:55:00 20.8 C 58 % 12.24 C
1609 24-08-2018 14:00:00 20.6 C 58 % 12.05 C
1610 24-08-2018 14:05:00 20.4 C 59 % 12.12 C
1611 24-08-2018 14:10:00 20.4 C 58 % 11.86 C
1612 24-08-2018 14:15:00 20.4 C 58 % 11.86 C
1613 24-08-2018 14:20:00 20.6 C 58 % 12.05 C
1614 24-08-2018 14:25:00 20.7 C 57 % 11.88 C
1615 24-08-2018 14:30:00 20.7 C 57 % 11.88 C
1616 24-08-2018 14:35:00 20.7 C 57 % 11.88 C
1617 24-08-2018 14:40:00 20.7 C 57 % 11.88 C
1618 24-08-2018 14:45:00 20.7 C 57 % 11.88 C
1619 24-08-2018 14:50:00 20.8 C 53 % 10.88 C
1620 24-08-2018 14:55:00 20.9 C 53 % 10.97 C
1621 24-08-2018 15:00:00 21.2 C 54 % 11.53 C
1622 24-08-2018 15:05:00 21.6 C 53 % 11.62 C
1623 24-08-2018 15:10:00 21.5 C 54 % 11.81 C
1624 24-08-2018 15:15:00 21.4 C 53 % 11.43 C
1625 24-08-2018 15:20:00 21.4 C 53 % 11.43 C
Sensor: Nr:Datum:Temp:Feuchte:Taupunkt:
Aussen-T/F 1626 24-08-2018 15:25:00 21.4 C 54 % 11.71 C
1627 24-08-2018 15:30:00 21.6 C 54 % 11.9 C
1628 24-08-2018 15:35:00 21.6 C 51 % 11.04 C
1629 24-08-2018 15:40:00 21.4 C 49 % 10.25 C
1630 24-08-2018 15:45:00 21.3 C 49 % 10.16 C
1631 24-08-2018 15:50:00 21.2 C 48 % 9.76 C
1632 24-08-2018 15:55:00 21.1 C 49 % 9.98 C
1633 24-08-2018 16:00:00 21 C 48 % 9.58 C
1634 24-08-2018 16:05:00 21 C 49 % 9.89 C
1635 24-08-2018 16:10:00 21 C 49 % 9.89 C
1636 24-08-2018 16:15:00 21 C 50 % 10.19 C
1637 24-08-2018 16:20:00 21.1 C 49 % 9.98 C
1638 24-08-2018 16:25:00 21.1 C 50 % 10.28 C
1639 24-08-2018 16:30:00 21.3 C 49 % 10.16 C
1640 24-08-2018 16:35:00 21.4 C 47 % 9.63 C
1641 24-08-2018 16:40:00 21.3 C 47 % 9.54 C
1642 24-08-2018 16:45:00 21.3 C 47 % 9.54 C
1643 24-08-2018 16:50:00 21.4 C 47 % 9.63 C
1644 24-08-2018 16:55:00 21.3 C 46 % 9.22 C
1645 24-08-2018 17:00:00 21.2 C 47 % 9.45 C
1646 24-08-2018 17:05:00 21.2 C 47 % 9.45 C
1647 24-08-2018 17:10:00 21.2 C 46 % 9.13 C
1648 24-08-2018 17:15:00 21.3 C 47 % 9.54 C
1649 24-08-2018 17:20:00 21.4 C 46 % 9.31 C
1650 24-08-2018 17:25:00 21.7 C 46 % 9.58 C
Sensor: Nr:Datum:Temp:Feuchte:Taupunkt:
Aussen-T/F 1651 24-08-2018 17:30:00 21.7 C 46 % 9.58 C
1652 24-08-2018 17:35:00 21.4 C 45 % 8.99 C
1653 24-08-2018 17:40:00 21.3 C 45 % 8.89 C
1654 24-08-2018 17:45:00 21.3 C 45 % 8.89 C
1655 24-08-2018 17:50:00 21.2 C 45 % 8.8 C
1656 24-08-2018 17:55:00 21.2 C 44 % 8.47 C
1657 24-08-2018 18:00:00 21.3 C 44 % 8.56 C
1658 24-08-2018 18:05:00 21.2 C 43 % 8.13 C
1659 24-08-2018 18:10:00 21.2 C 44 % 8.47 C
1660 24-08-2018 18:15:00 21.3 C 43 % 8.22 C
1661 24-08-2018 18:20:00 21.3 C 43 % 8.22 C
1662 24-08-2018 18:25:00 21.2 C 41 % 7.44 C
1663 24-08-2018 18:30:00 21.2 C 43 % 8.13 C
1664 24-08-2018 18:35:00 21.1 C 42 % 7.7 C
1665 24-08-2018 18:40:00 20.9 C 42 % 7.52 C
1666 24-08-2018 18:45:00 20.8 C 43 % 7.77 C
1667 24-08-2018 18:50:00 20.7 C 45 % 8.35 C
1668 24-08-2018 18:55:00 20.5 C 46 % 8.49 C
1669 24-08-2018 19:00:00 20.3 C 46 % 8.31 C
1670 24-08-2018 19:05:00 20.2 C 47 % 8.54 C
1671 24-08-2018 19:10:00 20.1 C 47 % 8.45 C
1672 24-08-2018 19:15:00 19.9 C 48 % 8.57 C
1673 24-08-2018 19:20:00 19.8 C 48 % 8.48 C
1674 24-08-2018 19:25:00 19.8 C 48 % 8.48 C
1675 24-08-2018 19:30:00 19.7 C 48 % 8.39 C
Sensor: Nr:Datum:Temp:Feuchte:Taupunkt:
Aussen-T/F 1676 24-08-2018 19:35:00 19.6 C 49 % 8.6 C
1677 24-08-2018 19:40:00 19.6 C 49 % 8.6 C
1678 24-08-2018 19:45:00 19.5 C 49 % 8.51 C
1679 24-08-2018 19:50:00 19.4 C 49 % 8.42 C
1680 24-08-2018 19:55:00 19.4 C 47 % 7.81 C
1681 24-08-2018 20:00:00 19.4 C 47 % 7.81 C
1682 24-08-2018 20:05:00 19.3 C 48 % 8.03 C
1683 24-08-2018 20:10:00 19.3 C 47 % 7.72 C
1684 24-08-2018 20:15:00 19.2 C 47 % 7.63 C
1685 24-08-2018 20:20:00 19.2 C 47 % 7.63 C
1686 24-08-2018 20:25:00 19.1 C 47 % 7.53 C
1687 24-08-2018 20:30:00 19.1 C 47 % 7.53 C
1688 24-08-2018 20:35:00 19 C 48 % 7.75 C
1689 24-08-2018 20:40:00 18.9 C 47 % 7.35 C
1690 24-08-2018 20:45:00 18.9 C 47 % 7.35 C
1691 24-08-2018 20:50:00 18.8 C 46 % 6.95 C
1692 24-08-2018 20:55:00 18.7 C 46 % 6.86 C
1693 24-08-2018 21:00:00 18.6 C 45 % 6.45 C
1694 24-08-2018 21:05:00 18.6 C 46 % 6.77 C
1695 24-08-2018 21:10:00 18.5 C 46 % 6.67 C
1696 24-08-2018 21:15:00 18.4 C 46 % 6.58 C
1697 24-08-2018 21:20:00 18.4 C 46 % 6.58 C
1698 24-08-2018 21:25:00 18.3 C 48 % 7.11 C
1699 24-08-2018 21:30:00 18.2 C 48 % 7.02 C
1700 24-08-2018 21:35:00 18.1 C 48 % 6.93 C
Sensor: Nr:Datum:Temp:Feuchte:Taupunkt:
Aussen-T/F 1701 24-08-2018 21:40:00 17.9 C 47 % 6.44 C
1702 24-08-2018 21:45:00 17.9 C 47 % 6.44 C
1703 24-08-2018 21:50:00 17.9 C 50 % 7.34 C
1704 24-08-2018 21:55:00 17.7 C 51 % 7.45 C
1705 24-08-2018 22:00:00 17.4 C 50 % 6.88 C
1706 24-08-2018 22:05:00 17.2 C 51 % 6.98 C
1707 24-08-2018 22:10:00 16.9 C 53 % 7.27 C
1708 24-08-2018 22:15:00 16.8 C 53 % 7.18 C
1709 24-08-2018 22:20:00 16.6 C 53 % 6.99 C
1710 24-08-2018 22:25:00 16.4 C 54 % 7.08 C
1711 24-08-2018 22:30:00 16.3 C 54 % 6.98 C
1712 24-08-2018 22:35:00 16.2 C 55 % 7.16 C
1713 24-08-2018 22:40:00 16 C 55 % 6.97 C
1714 24-08-2018 22:45:00 15.9 C 55 % 6.88 C
1715 24-08-2018 22:50:00 15.8 C 56 % 7.05 C
1716 24-08-2018 22:55:00 15.7 C 57 % 7.21 C
1717 24-08-2018 23:00:00 15.6 C 56 % 6.86 C
1718 24-08-2018 23:05:00 15.5 C 58 % 7.28 C
1719 24-08-2018 23:10:00 15.3 C 58 % 7.09 C
1720 24-08-2018 23:15:00 15.3 C 58 % 7.09 C
1721 24-08-2018 23:20:00 15.2 C 60 % 7.5 C
1722 24-08-2018 23:25:00 15.1 C 61 % 7.64 C
1723 24-08-2018 23:30:00 14.9 C 60 % 7.21 C
1724 24-08-2018 23:35:00 14.9 C 61 % 7.45 C
1725 24-08-2018 23:40:00 14.8 C 61 % 7.36 C
Sensor: Nr:Datum:Temp:Feuchte:Taupunkt:
Aussen-T/F 1726 24-08-2018 23:45:00 14.7 C 61 % 7.27 C
1727 24-08-2018 23:50:00 14.7 C 62 % 7.5 C
1728 24-08-2018 23:55:00 14.7 C 63 % 7.74 C
1729 25-08-2018 00:00:00 14.6 C 63 % 7.64 C
1730 25-08-2018 00:05:00 14.6 C 63 % 7.64 C
1731 25-08-2018 00:10:00 14.5 C 64 % 7.78 C
1732 25-08-2018 00:15:00 14.4 C 64 % 7.68 C
1733 25-08-2018 00:20:00 14.4 C 64 % 7.68 C
1734 25-08-2018 00:25:00 14.4 C 64 % 7.68 C
1735 25-08-2018 00:30:00 14.3 C 64 % 7.59 C
1736 25-08-2018 00:35:00 14.3 C 64 % 7.59 C
1737 25-08-2018 00:40:00 14.3 C 65 % 7.82 C
1738 25-08-2018 00:45:00 14.3 C 65 % 7.82 C
1739 25-08-2018 00:50:00 14.3 C 65 % 7.82 C
1740 25-08-2018 00:55:00 14.2 C 65 % 7.72 C
1741 25-08-2018 01:00:00 14.2 C 65 % 7.72 C
1742 25-08-2018 01:05:00 14.2 C 66 % 7.95 C
1743 25-08-2018 01:10:00 14.2 C 66 % 7.95 C
1744 25-08-2018 01:15:00 14.2 C 65 % 7.72 C
1745 25-08-2018 01:20:00 14.1 C 65 % 7.63 C
1746 25-08-2018 01:25:00 14.1 C 66 % 7.85 C
1747 25-08-2018 01:30:00 14.1 C 66 % 7.85 C
1748 25-08-2018 01:35:00 14.1 C 66 % 7.85 C
1749 25-08-2018 01:40:00 14.1 C 66 % 7.85 C
1750 25-08-2018 01:45:00 14.1 C 66 % 7.85 C
Sensor: Nr:Datum:Temp:Feuchte:Taupunkt:
Aussen-T/F 1751 25-08-2018 01:50:00 14.2 C 67 % 8.17 C
1752 25-08-2018 01:55:00 14.2 C 66 % 7.95 C
1753 25-08-2018 02:00:00 14.2 C 66 % 7.95 C
1754 25-08-2018 02:05:00 14.2 C 67 % 8.17 C
1755 25-08-2018 02:10:00 14.2 C 67 % 8.17 C
1756 25-08-2018 02:15:00 14.2 C 67 % 8.17 C
1757 25-08-2018 02:20:00 14.3 C 68 % 8.48 C
1758 25-08-2018 02:25:00 14.3 C 66 % 8.04 C
1759 25-08-2018 02:30:00 14.3 C 65 % 7.82 C
1760 25-08-2018 02:35:00 14.4 C 65 % 7.91 C
1761 25-08-2018 02:40:00 14.6 C 65 % 8.1 C
1762 25-08-2018 02:45:00 14.8 C 64 % 8.06 C
1763 25-08-2018 02:50:00 14.9 C 64 % 8.16 C
1764 25-08-2018 02:55:00 15.1 C 64 % 8.35 C
1765 25-08-2018 03:00:00 15.1 C 64 % 8.35 C
1766 25-08-2018 03:05:00 15.1 C 64 % 8.35 C
1767 25-08-2018 03:10:00 15.1 C 65 % 8.58 C
1768 25-08-2018 03:15:00 15.1 C 65 % 8.58 C
1769 25-08-2018 03:20:00 15.1 C 66 % 8.8 C
1770 25-08-2018 03:25:00 14.9 C 67 % 8.83 C
1771 25-08-2018 03:30:00 14.8 C 67 % 8.74 C
1772 25-08-2018 03:35:00 14.7 C 68 % 8.86 C
1773 25-08-2018 03:40:00 14.6 C 69 % 8.98 C
1774 25-08-2018 03:45:00 14.5 C 69 % 8.89 C
1775 25-08-2018 03:50:00 14.3 C 69 % 8.7 C
Sensor: Nr:Datum:Temp:Feuchte:Taupunkt:
Aussen-T/F 1776 25-08-2018 03:55:00 14.2 C 69 % 8.6 C
1777 25-08-2018 04:00:00 14.1 C 70 % 8.72 C
1778 25-08-2018 04:05:00 13.9 C 71 % 8.73 C
1779 25-08-2018 04:10:00 13.8 C 70 % 8.43 C
1780 25-08-2018 04:15:00 13.8 C 72 % 8.85 C
1781 25-08-2018 04:20:00 13.7 C 72 % 8.75 C
1782 25-08-2018 04:25:00 13.7 C 73 % 8.95 C
1783 25-08-2018 04:30:00 13.7 C 73 % 8.95 C
1784 25-08-2018 04:35:00 13.7 C 74 % 9.15 C
1785 25-08-2018 04:40:00 13.7 C 74 % 9.15 C
1786 25-08-2018 04:45:00 13.6 C 74 % 9.06 C
1787 25-08-2018 04:50:00 13.6 C 74 % 9.06 C
1788 25-08-2018 04:55:00 13.6 C 74 % 9.06 C
1789 25-08-2018 05:00:00 13.6 C 74 % 9.06 C
1790 25-08-2018 05:05:00 13.6 C 74 % 9.06 C
1791 25-08-2018 05:10:00 13.7 C 75 % 9.35 C
1792 25-08-2018 05:15:00 13.7 C 74 % 9.15 C
1793 25-08-2018 05:20:00 13.8 C 74 % 9.25 C
1794 25-08-2018 05:25:00 13.9 C 74 % 9.35 C
1795 25-08-2018 05:30:00 13.9 C 73 % 9.15 C
1796 25-08-2018 05:35:00 14 C 74 % 9.44 C
1797 25-08-2018 05:40:00 14 C 74 % 9.44 C
1798 25-08-2018 05:45:00 14 C 74 % 9.44 C
1799 25-08-2018 05:50:00 14.1 C 73 % 9.34 C
1800 25-08-2018 05:55:00 14.1 C 73 % 9.34 C
Sensor: Nr:Datum:Temp:Feuchte:Taupunkt:
Aussen-T/F 1801 25-08-2018 06:00:00 14.2 C 73 % 9.43 C
1802 25-08-2018 06:05:00 14.2 C 73 % 9.43 C
1803 25-08-2018 06:10:00 14.3 C 73 % 9.53 C
1804 25-08-2018 06:15:00 14.3 C 73 % 9.53 C
1805 25-08-2018 06:20:00 14.3 C 72 % 9.33 C
1806 25-08-2018 06:25:00 14.4 C 72 % 9.42 C
1807 25-08-2018 06:30:00 14.4 C 74 % 9.83 C
1808 25-08-2018 06:35:00 14.4 C 76 % 10.23 C
1809 25-08-2018 06:40:00 14.3 C 76 % 10.13 C
1810 25-08-2018 06:45:00 14.2 C 76 % 10.03 C
1811 25-08-2018 06:50:00 14.1 C 76 % 9.94 C
1812 25-08-2018 06:55:00 14 C 76 % 9.84 C
1813 25-08-2018 07:00:00 13.9 C 77 % 9.94 C
1814 25-08-2018 07:05:00 13.9 C 77 % 9.94 C
1815 25-08-2018 07:10:00 13.9 C 76 % 9.74 C
1816 25-08-2018 07:15:00 13.9 C 76 % 9.74 C
1817 25-08-2018 07:20:00 13.9 C 76 % 9.74 C
1818 25-08-2018 07:25:00 14 C 76 % 9.84 C
1819 25-08-2018 07:30:00 14.1 C 77 % 10.13 C
1820 25-08-2018 07:35:00 14.1 C 80 % 10.71 C
1821 25-08-2018 07:40:00 14 C 81 % 10.79 C
1822 25-08-2018 07:45:00 13.8 C 82 % 10.78 C
1823 25-08-2018 07:50:00 13.6 C 83 % 10.77 C
1824 25-08-2018 07:55:00 13.4 C 84 % 10.75 C
1825 25-08-2018 08:00:00 13.3 C 85 % 10.83 C
Sensor: Nr:Datum:Temp:Feuchte:Taupunkt:
Aussen-T/F 1826 25-08-2018 08:05:00 13.3 C 86 % 11.01 C
1827 25-08-2018 08:10:00 13.2 C 86 % 10.91 C
1828 25-08-2018 08:15:00 13.2 C 85 % 10.74 C
1829 25-08-2018 08:20:00 13.1 C 85 % 10.64 C
1830 25-08-2018 08:25:00 13.2 C 85 % 10.74 C
1831 25-08-2018 08:30:00 13.2 C 85 % 10.74 C
1832 25-08-2018 08:35:00 13.3 C 85 % 10.83 C
1833 25-08-2018 08:40:00 13.3 C 85 % 10.83 C
1834 25-08-2018 08:45:00 13.4 C 85 % 10.93 C
1835 25-08-2018 08:50:00 13.4 C 85 % 10.93 C
1836 25-08-2018 08:55:00 13.4 C 84 % 10.75 C
1837 25-08-2018 09:00:00 13.6 C 84 % 10.95 C
1838 25-08-2018 09:05:00 13.6 C 85 % 11.13 C
1839 25-08-2018 09:10:00 13.6 C 85 % 11.13 C
1840 25-08-2018 09:15:00 13.6 C 86 % 11.3 C
1841 25-08-2018 09:20:00 13.6 C 87 % 11.48 C
1842 25-08-2018 09:25:00 13.5 C 87 % 11.38 C
1843 25-08-2018 09:30:00 13.4 C 87 % 11.28 C
1844 25-08-2018 09:35:00 13.4 C 87 % 11.28 C
1845 25-08-2018 09:40:00 13.4 C 87 % 11.28 C
1846 25-08-2018 09:45:00 13.4 C 88 % 11.45 C
1847 25-08-2018 09:50:00 13.5 C 88 % 11.55 C
1848 25-08-2018 09:55:00 13.5 C 88 % 11.55 C
1849 25-08-2018 10:00:00 13.6 C 88 % 11.65 C
1850 25-08-2018 10:05:00 13.6 C 87 % 11.48 C
Sensor: Nr:Datum:Temp:Feuchte:Taupunkt:
Aussen-T/F 1851 25-08-2018 10:10:00 13.7 C 86 % 11.4 C
1852 25-08-2018 10:15:00 13.7 C 84 % 11.05 C
1853 25-08-2018 10:20:00 13.7 C 82 % 10.69 C
1854 25-08-2018 10:25:00 13.7 C 81 % 10.5 C
1855 25-08-2018 10:30:00 13.8 C 80 % 10.41 C
1856 25-08-2018 10:35:00 13.9 C 79 % 10.32 C
1857 25-08-2018 10:40:00 13.9 C 77 % 9.94 C
1858 25-08-2018 10:45:00 13.9 C 74 % 9.35 C
1859 25-08-2018 10:50:00 13.9 C 74 % 9.35 C
1860 25-08-2018 10:55:00 14 C 72 % 9.04 C
1861 25-08-2018 11:00:00 14.2 C 73 % 9.43 C
1862 25-08-2018 11:05:00 14.3 C 71 % 9.12 C
1863 25-08-2018 11:10:00 14.3 C 71 % 9.12 C
1864 25-08-2018 11:15:00 14.4 C 70 % 9 C
1865 25-08-2018 11:20:00 14.6 C 70 % 9.2 C
1866 25-08-2018 11:25:00 14.9 C 70 % 9.48 C
1867 25-08-2018 11:30:00 15.1 C 69 % 9.46 C
1868 25-08-2018 11:35:00 15.2 C 68 % 9.34 C
1869 25-08-2018 11:40:00 15.2 C 68 % 9.34 C
1870 25-08-2018 11:45:00 15.2 C 67 % 9.12 C
1871 25-08-2018 11:50:00 15.2 C 66 % 8.9 C
1872 25-08-2018 11:55:00 15.3 C 66 % 8.99 C
1873 25-08-2018 12:00:00 15.4 C 66 % 9.09 C
1874 25-08-2018 12:05:00 15.4 C 67 % 9.31 C
1875 25-08-2018 12:10:00 15.4 C 66 % 9.09 C
Sensor: Nr:Datum:Temp:Feuchte:Taupunkt:
Aussen-T/F 1876 25-08-2018 12:15:00 15.7 C 64 % 8.92 C
1877 25-08-2018 12:20:00 15.8 C 62 % 8.54 C
1878 25-08-2018 12:25:00 16 C 60 % 8.25 C
1879 25-08-2018 12:30:00 16.2 C 60 % 8.43 C
1880 25-08-2018 12:35:00 16.4 C 60 % 8.62 C
1881 25-08-2018 12:40:00 16.4 C 59 % 8.38 C
1882 25-08-2018 12:45:00 16.5 C 59 % 8.47 C
1883 25-08-2018 12:50:00 16.6 C 58 % 8.31 C
1884 25-08-2018 12:55:00 16.7 C 58 % 8.4 C
1885 25-08-2018 13:00:00 16.7 C 57 % 8.15 C
1886 25-08-2018 13:05:00 16.7 C 57 % 8.15 C
1887 25-08-2018 13:10:00 16.7 C 58 % 8.4 C
1888 25-08-2018 13:15:00 16.8 C 57 % 8.24 C
1889 25-08-2018 13:20:00 16.8 C 56 % 7.98 C
1890 25-08-2018 13:25:00 16.8 C 56 % 7.98 C
1891 25-08-2018 13:30:00 16.9 C 55 % 7.81 C
1892 25-08-2018 13:35:00 16.8 C 55 % 7.72 C
1893 25-08-2018 13:40:00 16.8 C 56 % 7.98 C
1894 25-08-2018 13:45:00 16.8 C 55 % 7.72 C
1895 25-08-2018 13:50:00 16.7 C 55 % 7.62 C
1896 25-08-2018 13:55:00 16.7 C 56 % 7.89 C
1897 25-08-2018 14:00:00 16.7 C 58 % 8.4 C
1898 25-08-2018 14:05:00 16.8 C 57 % 8.24 C
1899 25-08-2018 14:10:00 17 C 57 % 8.43 C
1900 25-08-2018 14:15:00 16.8 C 57 % 8.24 C
Sensor: Nr:Datum:Temp:Feuchte:Taupunkt:
Aussen-T/F 1901 25-08-2018 14:20:00 16.7 C 58 % 8.4 C
1902 25-08-2018 14:25:00 16.6 C 59 % 8.56 C
1903 25-08-2018 14:30:00 16.6 C 58 % 8.31 C
1904 25-08-2018 14:35:00 16.7 C 59 % 8.66 C
1905 25-08-2018 14:40:00 16.8 C 56 % 7.98 C
1906 25-08-2018 14:45:00 16.9 C 58 % 8.59 C
1907 25-08-2018 14:50:00 17.1 C 56 % 8.26 C
1908 25-08-2018 14:55:00 17.2 C 57 % 8.62 C
1909 25-08-2018 15:00:00 17.4 C 55 % 8.28 C
1910 25-08-2018 15:05:00 17.7 C 54 % 8.28 C
1911 25-08-2018 15:10:00 17.8 C 52 % 7.82 C
1912 25-08-2018 15:15:00 17.8 C 52 % 7.82 C
1913 25-08-2018 15:20:00 17.7 C 52 % 7.73 C
1914 25-08-2018 15:25:00 17.6 C 54 % 8.19 C
1915 25-08-2018 15:30:00 17.6 C 53 % 7.92 C
1916 25-08-2018 15:35:00 17.6 C 52 % 7.64 C
1917 25-08-2018 15:40:00 17.7 C 53 % 8.01 C
1918 25-08-2018 15:45:00 17.8 C 53 % 8.1 C
1919 25-08-2018 15:50:00 17.9 C 53 % 8.19 C
1920 25-08-2018 15:55:00 18.1 C 52 % 8.1 C
1921 25-08-2018 16:00:00 17.9 C 50 % 7.34 C
1922 25-08-2018 16:05:00 17.8 C 50 % 7.25 C
1923 25-08-2018 16:10:00 17.8 C 50 % 7.25 C
1924 25-08-2018 16:15:00 17.8 C 51 % 7.54 C
1925 25-08-2018 16:20:00 17.9 C 51 % 7.63 C
Sensor: Nr:Datum:Temp:Feuchte:Taupunkt:
Aussen-T/F 1926 25-08-2018 16:25:00 18.1 C 52 % 8.1 C
1927 25-08-2018 16:30:00 18.1 C 50 % 7.52 C
1928 25-08-2018 16:35:00 18.2 C 50 % 7.62 C
1929 25-08-2018 16:40:00 18.1 C 50 % 7.52 C
1930 25-08-2018 16:45:00 18 C 50 % 7.43 C
1931 25-08-2018 16:50:00 17.9 C 49 % 7.05 C
1932 25-08-2018 16:55:00 17.9 C 48 % 6.75 C
1933 25-08-2018 17:00:00 17.8 C 48 % 6.65 C
1934 25-08-2018 17:05:00 17.8 C 48 % 6.65 C
1935 25-08-2018 17:10:00 17.9 C 51 % 7.63 C
1936 25-08-2018 17:15:00 18 C 50 % 7.43 C
1937 25-08-2018 17:20:00 18.1 C 49 % 7.23 C
1938 25-08-2018 17:25:00 18.1 C 49 % 7.23 C
1939 25-08-2018 17:30:00 18.2 C 50 % 7.62 C
1940 25-08-2018 17:35:00 18.2 C 52 % 8.19 C
1941 25-08-2018 17:40:00 18.2 C 51 % 7.91 C
1942 25-08-2018 17:45:00 18.3 C 51 % 8 C
1943 25-08-2018 17:50:00 18.2 C 50 % 7.62 C
1944 25-08-2018 17:55:00 18.1 C 52 % 8.1 C
1945 25-08-2018 18:00:00 17.9 C 52 % 7.91 C
1946 25-08-2018 18:05:00 17.9 C 52 % 7.91 C
1947 25-08-2018 18:10:00 17.8 C 52 % 7.82 C
1948 25-08-2018 18:15:00 17.6 C 56 % 8.73 C
1949 25-08-2018 18:20:00 16.9 C 59 % 8.84 C
1950 25-08-2018 18:25:00 16.4 C 64 % 9.58 C
Sensor: Nr:Datum:Temp:Feuchte:Taupunkt:
Aussen-T/F 1951 25-08-2018 18:30:00 15.8 C 68 % 9.91 C
1952 25-08-2018 18:35:00 15.3 C 70 % 9.87 C
1953 25-08-2018 18:40:00 14.8 C 71 % 9.6 C
1954 25-08-2018 18:45:00 14.6 C 72 % 9.61 C
1955 25-08-2018 18:50:00 14.5 C 74 % 9.93 C
1956 25-08-2018 18:55:00 14.4 C 74 % 9.83 C
1957 25-08-2018 19:00:00 14.3 C 73 % 9.53 C
1958 25-08-2018 19:05:00 14.3 C 74 % 9.73 C
1959 25-08-2018 19:10:00 14.3 C 74 % 9.73 C
1960 25-08-2018 19:15:00 14.4 C 74 % 9.83 C
1961 25-08-2018 19:20:00 14.4 C 73 % 9.63 C
1962 25-08-2018 19:25:00 14.4 C 73 % 9.63 C
1963 25-08-2018 19:30:00 14.5 C 73 % 9.72 C
1964 25-08-2018 19:35:00 14.4 C 73 % 9.63 C
1965 25-08-2018 19:40:00 14.4 C 73 % 9.63 C
1966 25-08-2018 19:45:00 14.4 C 73 % 9.63 C
1967 25-08-2018 19:50:00 14.3 C 74 % 9.73 C
1968 25-08-2018 19:55:00 14.3 C 75 % 9.93 C
1969 25-08-2018 20:00:00 14.1 C 75 % 9.74 C
1970 25-08-2018 20:05:00 13.9 C 75 % 9.55 C
1971 25-08-2018 20:10:00 13.8 C 76 % 9.65 C
1972 25-08-2018 20:15:00 13.6 C 76 % 9.45 C
1973 25-08-2018 20:20:00 13.3 C 77 % 9.36 C
1974 25-08-2018 20:25:00 13.2 C 77 % 9.26 C
1975 25-08-2018 20:30:00 13 C 78 % 9.26 C
Sensor: Nr:Datum:Temp:Feuchte:Taupunkt:
Aussen-T/F 1976 25-08-2018 20:35:00 12.8 C 78 % 9.06 C
1977 25-08-2018 20:40:00 12.6 C 79 % 9.06 C
1978 25-08-2018 20:45:00 12.5 C 79 % 8.96 C
1979 25-08-2018 20:50:00 12.4 C 80 % 9.05 C
1980 25-08-2018 20:55:00 12.3 C 80 % 8.95 C
1981 25-08-2018 21:00:00 12.2 C 80 % 8.86 C
1982 25-08-2018 21:05:00 12.2 C 80 % 8.86 C
1983 25-08-2018 21:10:00 12.1 C 81 % 8.94 C
1984 25-08-2018 21:15:00 12 C 81 % 8.84 C
1985 25-08-2018 21:20:00 11.9 C 81 % 8.75 C
1986 25-08-2018 21:25:00 11.8 C 82 % 8.83 C
1987 25-08-2018 21:30:00 11.7 C 82 % 8.73 C
1988 25-08-2018 21:35:00 11.6 C 82 % 8.64 C
1989 25-08-2018 21:40:00 11.4 C 82 % 8.44 C
1990 25-08-2018 21:45:00 11.3 C 82 % 8.34 C
1991 25-08-2018 21:50:00 11.2 C 82 % 8.25 C
1992 25-08-2018 21:55:00 11.2 C 83 % 8.42 C
1993 25-08-2018 22:00:00 11.1 C 83 % 8.33 C
1994 25-08-2018 22:05:00 10.9 C 83 % 8.13 C
1995 25-08-2018 22:10:00 10.9 C 83 % 8.13 C
1996 25-08-2018 22:15:00 10.8 C 83 % 8.03 C
1997 25-08-2018 22:20:00 10.7 C 83 % 7.93 C
1998 25-08-2018 22:25:00 10.6 C 84 % 8.01 C
1999 25-08-2018 22:30:00 10.5 C 84 % 7.91 C
2000 25-08-2018 22:35:00 10.4 C 84 % 7.82 C
Sensor: Nr:Datum:Temp:Feuchte:Taupunkt:
Aussen-T/F 2001 25-08-2018 22:40:00 10.4 C 85 % 7.99 C
2002 25-08-2018 22:45:00 10.3 C 85 % 7.89 C
2003 25-08-2018 22:50:00 10.3 C 85 % 7.89 C
2004 25-08-2018 22:55:00 10.3 C 85 % 7.89 C
2005 25-08-2018 23:00:00 10.3 C 85 % 7.89 C
2006 25-08-2018 23:05:00 10.3 C 85 % 7.89 C
2007 25-08-2018 23:10:00 10.3 C 85 % 7.89 C
2008 25-08-2018 23:15:00 10.3 C 85 % 7.89 C
2009 25-08-2018 23:20:00 10.3 C 85 % 7.89 C
2010 25-08-2018 23:25:00 10.3 C 85 % 7.89 C
2011 25-08-2018 23:30:00 10.4 C 85 % 7.99 C
2012 25-08-2018 23:35:00 10.4 C 85 % 7.99 C
2013 25-08-2018 23:40:00 10.4 C 85 % 7.99 C
2014 25-08-2018 23:45:00 10.3 C 85 % 7.89 C
2015 25-08-2018 23:50:00 10.3 C 85 % 7.89 C
2016 25-08-2018 23:55:00 10.3 C 85 % 7.89 C
2017 26-08-2018 00:00:00 10.3 C 85 % 7.89 C
2018 26-08-2018 00:05:00 10.3 C 85 % 7.89 C
2019 26-08-2018 00:10:00 10.2 C 85 % 7.79 C
2020 26-08-2018 00:15:00 10.2 C 85 % 7.79 C
2021 26-08-2018 00:20:00 10.1 C 85 % 7.7 C
2022 26-08-2018 00:25:00 10.1 C 85 % 7.7 C
2023 26-08-2018 00:30:00 10 C 86 % 7.77 C
2024 26-08-2018 00:35:00 9.9 C 86 % 7.67 C
2025 26-08-2018 00:40:00 9.9 C 85 % 7.5 C
Sensor: Nr:Datum:Temp:Feuchte:Taupunkt:
Aussen-T/F 2026 26-08-2018 00:45:00 9.8 C 86 % 7.57 C
2027 26-08-2018 00:50:00 9.7 C 86 % 7.47 C
2028 26-08-2018 00:55:00 9.6 C 86 % 7.38 C
2029 26-08-2018 01:00:00 9.4 C 86 % 7.18 C
2030 26-08-2018 01:05:00 9.3 C 86 % 7.08 C
2031 26-08-2018 01:10:00 9.3 C 87 % 7.25 C
2032 26-08-2018 01:15:00 9.3 C 87 % 7.25 C
2033 26-08-2018 01:20:00 9.2 C 87 % 7.15 C
2034 26-08-2018 01:25:00 9.2 C 87 % 7.15 C
2035 26-08-2018 01:30:00 9.1 C 87 % 7.05 C
2036 26-08-2018 01:35:00 9.1 C 88 % 7.22 C
2037 26-08-2018 01:40:00 9.1 C 88 % 7.22 C
2038 26-08-2018 01:45:00 8.9 C 88 % 7.02 C
2039 26-08-2018 01:50:00 8.9 C 88 % 7.02 C
2040 26-08-2018 01:55:00 8.9 C 89 % 7.19 C
2041 26-08-2018 02:00:00 8.8 C 89 % 7.09 C
2042 26-08-2018 02:05:00 8.8 C 89 % 7.09 C
2043 26-08-2018 02:10:00 8.7 C 89 % 6.99 C
2044 26-08-2018 02:15:00 8.7 C 89 % 6.99 C
2045 26-08-2018 02:20:00 8.7 C 90 % 7.15 C
2046 26-08-2018 02:25:00 8.7 C 90 % 7.15 C
2047 26-08-2018 02:30:00 8.7 C 90 % 7.15 C
2048 26-08-2018 02:35:00 8.7 C 90 % 7.15 C
2049 26-08-2018 02:40:00 8.7 C 90 % 7.15 C
2050 26-08-2018 02:45:00 8.8 C 91 % 7.41 C
Sensor: Nr:Datum:Temp:Feuchte:Taupunkt:
Aussen-T/F 2051 26-08-2018 02:50:00 8.8 C 91 % 7.41 C
2052 26-08-2018 02:55:00 8.8 C 90 % 7.25 C
2053 26-08-2018 03:00:00 8.7 C 90 % 7.15 C
2054 26-08-2018 03:05:00 8.7 C 90 % 7.15 C
2055 26-08-2018 03:10:00 8.6 C 90 % 7.06 C
2056 26-08-2018 03:15:00 8.4 C 90 % 6.86 C
2057 26-08-2018 03:20:00 8.4 C 90 % 6.86 C
2058 26-08-2018 03:25:00 8.3 C 90 % 6.76 C
2059 26-08-2018 03:30:00 8.3 C 90 % 6.76 C
2060 26-08-2018 03:35:00 8.3 C 90 % 6.76 C
2061 26-08-2018 03:40:00 8.2 C 90 % 6.66 C
2062 26-08-2018 03:45:00 8.1 C 91 % 6.72 C
2063 26-08-2018 03:50:00 8.1 C 91 % 6.72 C
2064 26-08-2018 03:55:00 8.1 C 91 % 6.72 C
2065 26-08-2018 04:00:00 8.1 C 91 % 6.72 C
2066 26-08-2018 04:05:00 8.1 C 91 % 6.72 C
2067 26-08-2018 04:10:00 8.1 C 91 % 6.72 C
2068 26-08-2018 04:15:00 8 C 91 % 6.62 C
2069 26-08-2018 04:20:00 8 C 91 % 6.62 C
2070 26-08-2018 04:25:00 8 C 91 % 6.62 C
2071 26-08-2018 04:30:00 7.9 C 91 % 6.52 C
2072 26-08-2018 04:35:00 7.9 C 92 % 6.68 C
2073 26-08-2018 04:40:00 7.9 C 92 % 6.68 C
2074 26-08-2018 04:45:00 7.9 C 92 % 6.68 C
2075 26-08-2018 04:50:00 7.9 C 92 % 6.68 C
Sensor: Nr:Datum:Temp:Feuchte:Taupunkt:
Aussen-T/F 2076 26-08-2018 04:55:00 7.9 C 92 % 6.68 C
2077 26-08-2018 05:00:00 7.9 C 92 % 6.68 C
2078 26-08-2018 05:05:00 7.8 C 91 % 6.43 C
2079 26-08-2018 05:10:00 7.8 C 91 % 6.43 C
2080 26-08-2018 05:15:00 7.7 C 91 % 6.33 C
2081 26-08-2018 05:20:00 7.7 C 91 % 6.33 C
2082 26-08-2018 05:25:00 7.6 C 91 % 6.23 C
2083 26-08-2018 05:30:00 7.5 C 91 % 6.13 C
2084 26-08-2018 05:35:00 7.4 C 91 % 6.03 C
2085 26-08-2018 05:40:00 7.4 C 91 % 6.03 C
2086 26-08-2018 05:45:00 7.3 C 91 % 5.93 C
2087 26-08-2018 05:50:00 7.2 C 92 % 5.99 C
2088 26-08-2018 05:55:00 7.2 C 91 % 5.83 C
2089 26-08-2018 06:00:00 7.1 C 91 % 5.73 C
2090 26-08-2018 06:05:00 7.1 C 92 % 5.89 C
2091 26-08-2018 06:10:00 7.1 C 92 % 5.89 C
2092 26-08-2018 06:15:00 7 C 92 % 5.79 C
2093 26-08-2018 06:20:00 6.9 C 92 % 5.69 C
2094 26-08-2018 06:25:00 6.9 C 92 % 5.69 C
2095 26-08-2018 06:30:00 6.9 C 92 % 5.69 C
2096 26-08-2018 06:35:00 6.9 C 92 % 5.69 C
2097 26-08-2018 06:40:00 6.8 C 92 % 5.59 C
2098 26-08-2018 06:45:00 6.8 C 92 % 5.59 C
2099 26-08-2018 06:50:00 6.8 C 92 % 5.59 C
2100 26-08-2018 06:55:00 6.8 C 92 % 5.59 C
Sensor: Nr:Datum:Temp:Feuchte:Taupunkt:
Aussen-T/F 2101 26-08-2018 07:00:00 6.8 C 92 % 5.59 C
2102 26-08-2018 07:05:00 6.8 C 92 % 5.59 C
2103 26-08-2018 07:10:00 6.8 C 92 % 5.59 C
2104 26-08-2018 07:15:00 6.9 C 92 % 5.69 C
2105 26-08-2018 07:20:00 6.9 C 93 % 5.85 C
2106 26-08-2018 07:25:00 7 C 93 % 5.95 C
2107 26-08-2018 07:30:00 7 C 93 % 5.95 C
2108 26-08-2018 07:35:00 7 C 93 % 5.95 C
2109 26-08-2018 07:40:00 7.1 C 93 % 6.05 C
2110 26-08-2018 07:45:00 7.2 C 93 % 6.15 C
2111 26-08-2018 07:50:00 7.3 C 93 % 6.25 C
2112 26-08-2018 07:55:00 7.3 C 93 % 6.25 C
2113 26-08-2018 08:00:00 7.4 C 93 % 6.34 C
2114 26-08-2018 08:05:00 7.6 C 93 % 6.54 C
2115 26-08-2018 08:10:00 7.7 C 93 % 6.64 C
2116 26-08-2018 08:15:00 7.7 C 93 % 6.64 C
2117 26-08-2018 08:20:00 7.8 C 93 % 6.74 C
2118 26-08-2018 08:25:00 7.8 C 93 % 6.74 C
2119 26-08-2018 08:30:00 7.8 C 93 % 6.74 C
2120 26-08-2018 08:35:00 7.9 C 93 % 6.84 C
2121 26-08-2018 08:40:00 8 C 93 % 6.94 C
2122 26-08-2018 08:45:00 8.1 C 93 % 7.04 C
2123 26-08-2018 08:50:00 8.2 C 93 % 7.14 C
2124 26-08-2018 08:55:00 8.3 C 93 % 7.24 C
2125 26-08-2018 09:00:00 8.4 C 93 % 7.34 C
Sensor: Nr:Datum:Temp:Feuchte:Taupunkt:
Aussen-T/F 2126 26-08-2018 09:05:00 8.5 C 93 % 7.43 C
2127 26-08-2018 09:10:00 8.6 C 93 % 7.53 C
2128 26-08-2018 09:15:00 8.7 C 93 % 7.63 C
2129 26-08-2018 09:20:00 8.8 C 93 % 7.73 C
2130 26-08-2018 09:25:00 8.9 C 93 % 7.83 C
2131 26-08-2018 09:30:00 9.1 C 93 % 8.03 C
2132 26-08-2018 09:35:00 9.2 C 93 % 8.13 C
2133 26-08-2018 09:40:00 9.3 C 93 % 8.23 C
2134 26-08-2018 09:45:00 9.4 C 93 % 8.33 C
2135 26-08-2018 09:50:00 9.6 C 93 % 8.53 C
2136 26-08-2018 09:55:00 9.8 C 93 % 8.72 C
2137 26-08-2018 10:00:00 9.9 C 93 % 8.82 C
2138 26-08-2018 10:05:00 10.1 C 92 % 8.86 C
2139 26-08-2018 10:10:00 10.3 C 92 % 9.06 C
2140 26-08-2018 10:15:00 10.6 C 92 % 9.36 C
2141 26-08-2018 10:20:00 10.8 C 91 % 9.39 C
2142 26-08-2018 10:25:00 11 C 90 % 9.42 C
2143 26-08-2018 10:30:00 11.2 C 90 % 9.62 C
2144 26-08-2018 10:35:00 11.5 C 89 % 9.75 C
2145 26-08-2018 10:40:00 11.8 C 87 % 9.71 C
2146 26-08-2018 10:45:00 12.1 C 86 % 9.83 C
2147 26-08-2018 10:50:00 12.3 C 86 % 10.03 C
2148 26-08-2018 10:55:00 12.5 C 84 % 9.87 C
2149 26-08-2018 11:00:00 12.8 C 84 % 10.17 C
2150 26-08-2018 11:05:00 12.9 C 84 % 10.26 C
Sensor: Nr:Datum:Temp:Feuchte:Taupunkt:
Aussen-T/F 2151 26-08-2018 11:10:00 13.2 C 81 % 10.01 C
2152 26-08-2018 11:15:00 13.4 C 79 % 9.84 C
2153 26-08-2018 11:20:00 13.7 C 78 % 9.94 C
2154 26-08-2018 11:25:00 13.8 C 75 % 9.45 C
2155 26-08-2018 11:30:00 14.2 C 69 % 8.6 C
2156 26-08-2018 11:35:00 14.7 C 67 % 8.64 C
2157 26-08-2018 11:40:00 15 C 67 % 8.93 C
2158 26-08-2018 11:45:00 15.3 C 66 % 8.99 C
2159 26-08-2018 11:50:00 15.5 C 66 % 9.18 C
2160 26-08-2018 11:55:00 15.7 C 64 % 8.92 C
2161 26-08-2018 12:00:00 16 C 62 % 8.73 C
2162 26-08-2018 12:05:00 16.2 C 60 % 8.43 C
2163 26-08-2018 12:10:00 16.3 C 55 % 7.25 C
2164 26-08-2018 12:15:00 16.4 C 57 % 7.87 C
2165 26-08-2018 12:20:00 16.5 C 56 % 7.7 C
2166 26-08-2018 12:25:00 16.6 C 56 % 7.8 C
2167 26-08-2018 12:30:00 16.7 C 54 % 7.36 C
2168 26-08-2018 12:35:00 16.8 C 56 % 7.98 C
2169 26-08-2018 12:40:00 16.8 C 53 % 7.18 C
2170 26-08-2018 12:45:00 17 C 50 % 6.51 C
2171 26-08-2018 12:50:00 17.2 C 50 % 6.7 C
2172 26-08-2018 12:55:00 17.4 C 48 % 6.29 C
2173 26-08-2018 13:00:00 17.6 C 47 % 6.17 C
2174 26-08-2018 13:05:00 17.7 C 46 % 5.95 C
2175 26-08-2018 13:10:00 17.8 C 47 % 6.35 C
Sensor: Nr:Datum:Temp:Feuchte:Taupunkt:
Aussen-T/F 2176 26-08-2018 13:15:00 17.8 C 46 % 6.04 C
2177 26-08-2018 13:20:00 18 C 49 % 7.14 C
2178 26-08-2018 13:25:00 18.1 C 46 % 6.31 C
2179 26-08-2018 13:30:00 18.2 C 48 % 7.02 C
2180 26-08-2018 13:35:00 18.3 C 47 % 6.8 C
2181 26-08-2018 13:40:00 18.4 C 46 % 6.58 C
2182 26-08-2018 13:45:00 18.5 C 46 % 6.67 C
2183 26-08-2018 13:50:00 18.7 C 45 % 6.54 C
2184 26-08-2018 13:55:00 18.8 C 44 % 6.3 C
2185 26-08-2018 14:00:00 18.8 C 44 % 6.3 C
2186 26-08-2018 14:05:00 18.9 C 44 % 6.39 C
2187 26-08-2018 14:10:00 19 C 43 % 6.15 C
2188 26-08-2018 14:15:00 19.2 C 44 % 6.66 C
2189 26-08-2018 14:20:00 19.4 C 41 % 5.82 C
2190 26-08-2018 14:25:00 19.6 C 42 % 6.35 C
2191 26-08-2018 14:30:00 19.6 C 42 % 6.35 C
2192 26-08-2018 14:35:00 19.7 C 41 % 6.09 C
2193 26-08-2018 14:40:00 19.7 C 42 % 6.44 C
2194 26-08-2018 14:45:00 19.9 C 41 % 6.27 C
2195 26-08-2018 14:50:00 20.1 C 41 % 6.45 C
2196 26-08-2018 14:55:00 20.2 C 41 % 6.54 C
2197 26-08-2018 15:00:00 20.4 C 41 % 6.72 C
2198 26-08-2018 15:05:00 20.5 C 42 % 7.16 C
2199 26-08-2018 15:10:00 20.5 C 41 % 6.81 C
2200 26-08-2018 15:15:00 20.3 C 42 % 6.98 C
Sensor: Nr:Datum:Temp:Feuchte:Taupunkt:
Aussen-T/F 2201 26-08-2018 15:20:00 20.4 C 42 % 7.07 C
2202 26-08-2018 15:25:00 20.7 C 41 % 6.99 C
2203 26-08-2018 15:30:00 20.8 C 41 % 7.08 C
2204 26-08-2018 15:35:00 20.6 C 42 % 7.25 C
2205 26-08-2018 15:40:00 20.5 C 42 % 7.16 C
2206 26-08-2018 15:45:00 20.4 C 42 % 7.07 C
2207 26-08-2018 15:50:00 20.5 C 43 % 7.5 C
2208 26-08-2018 15:55:00 20.8 C 42 % 7.43 C
2209 26-08-2018 16:00:00 20.9 C 40 % 6.81 C
2210 26-08-2018 16:05:00 20.8 C 40 % 6.72 C
2211 26-08-2018 16:10:00 20.7 C 42 % 7.34 C
2212 26-08-2018 16:15:00 20.9 C 41 % 7.17 C
2213 26-08-2018 16:20:00 21.4 C 40 % 7.25 C
2214 26-08-2018 16:25:00 21.4 C 40 % 7.25 C
2215 26-08-2018 16:30:00 21.9 C 41 % 8.06 C
2216 26-08-2018 16:35:00 22.6 C 36 % 6.78 C
2217 26-08-2018 16:40:00 22.8 C 36 % 6.96 C
2218 26-08-2018 16:45:00 22.6 C 37 % 7.18 C
2219 26-08-2018 16:50:00 22.2 C 37 % 6.83 C
2220 26-08-2018 16:55:00 21.8 C 37 % 6.48 C
2221 26-08-2018 17:00:00 21.4 C 38 % 6.51 C
2222 26-08-2018 17:05:00 21.5 C 39 % 6.97 C
2223 26-08-2018 17:10:00 21.9 C 38 % 6.95 C
2224 26-08-2018 17:15:00 22.2 C 39 % 7.6 C
2225 26-08-2018 17:20:00 22.2 C 38 % 7.22 C
Sensor: Nr:Datum:Temp:Feuchte:Taupunkt:
Aussen-T/F 2226 26-08-2018 17:25:00 22.1 C 39 % 7.51 C
2227 26-08-2018 17:30:00 21.9 C 38 % 6.95 C
2228 26-08-2018 17:35:00 21.9 C 38 % 6.95 C
2229 26-08-2018 17:40:00 21.7 C 37 % 6.39 C
2230 26-08-2018 17:45:00 21.6 C 37 % 6.3 C
2231 26-08-2018 17:50:00 21.4 C 38 % 6.51 C
2232 26-08-2018 17:55:00 21.2 C 37 % 5.94 C
2233 26-08-2018 18:00:00 21.1 C 37 % 5.86 C
2234 26-08-2018 18:05:00 21.1 C 38 % 6.24 C
2235 26-08-2018 18:10:00 21.2 C 39 % 6.71 C
2236 26-08-2018 18:15:00 21.3 C 37 % 6.03 C
2237 26-08-2018 18:20:00 21.3 C 37 % 6.03 C
2238 26-08-2018 18:25:00 21.3 C 37 % 6.03 C
2239 26-08-2018 18:30:00 21.2 C 38 % 6.33 C
2240 26-08-2018 18:35:00 21.1 C 38 % 6.24 C
2241 26-08-2018 18:40:00 21.1 C 39 % 6.62 C
2242 26-08-2018 18:45:00 20.9 C 37 % 5.68 C
2243 26-08-2018 18:50:00 20.8 C 37 % 5.59 C
2244 26-08-2018 18:55:00 20.7 C 39 % 6.26 C
2245 26-08-2018 19:00:00 20.8 C 38 % 5.97 C
2246 26-08-2018 19:05:00 20.9 C 38 % 6.06 C
2247 26-08-2018 19:10:00 21.1 C 38 % 6.24 C
2248 26-08-2018 19:15:00 21.1 C 38 % 6.24 C
2249 26-08-2018 19:20:00 20.9 C 38 % 6.06 C
2250 26-08-2018 19:25:00 20.7 C 39 % 6.26 C
Sensor: Nr:Datum:Temp:Feuchte:Taupunkt:
Aussen-T/F 2251 26-08-2018 19:30:00 20.6 C 39 % 6.17 C
2252 26-08-2018 19:35:00 20.4 C 40 % 6.36 C
2253 26-08-2018 19:40:00 20.3 C 40 % 6.27 C
2254 26-08-2018 19:45:00 20.2 C 42 % 6.89 C
2255 26-08-2018 19:50:00 20.1 C 44 % 7.48 C
2256 26-08-2018 19:55:00 19.8 C 44 % 7.21 C
2257 26-08-2018 20:00:00 19.6 C 45 % 7.35 C
2258 26-08-2018 20:05:00 19.3 C 46 % 7.4 C
2259 26-08-2018 20:10:00 19.1 C 47 % 7.53 C
2260 26-08-2018 20:15:00 18.7 C 48 % 7.48 C
2261 26-08-2018 20:20:00 18.3 C 48 % 7.11 C
2262 26-08-2018 20:25:00 18.1 C 49 % 7.23 C
2263 26-08-2018 20:30:00 17.8 C 51 % 7.54 C
2264 26-08-2018 20:35:00 17.5 C 51 % 7.26 C
2265 26-08-2018 20:40:00 17.2 C 51 % 6.98 C
2266 26-08-2018 20:45:00 16.9 C 50 % 6.42 C
2267 26-08-2018 20:50:00 16.7 C 51 % 6.52 C
2268 26-08-2018 20:55:00 16.4 C 52 % 6.53 C
2269 26-08-2018 21:00:00 16.2 C 53 % 6.62 C
2270 26-08-2018 21:05:00 16 C 54 % 6.71 C
2271 26-08-2018 21:10:00 15.8 C 53 % 6.25 C
2272 26-08-2018 21:15:00 15.7 C 54 % 6.43 C
2273 26-08-2018 21:20:00 15.6 C 55 % 6.6 C
2274 26-08-2018 21:25:00 15.4 C 55 % 6.42 C
2275 26-08-2018 21:30:00 15.2 C 55 % 6.23 C
Sensor: Nr:Datum:Temp:Feuchte:Taupunkt:
Aussen-T/F 2276 26-08-2018 21:35:00 15.1 C 55 % 6.14 C
2277 26-08-2018 21:40:00 14.9 C 56 % 6.21 C
2278 26-08-2018 21:45:00 14.8 C 57 % 6.37 C
2279 26-08-2018 21:50:00 14.7 C 56 % 6.02 C
2280 26-08-2018 21:55:00 14.6 C 57 % 6.19 C
2281 26-08-2018 22:00:00 14.6 C 58 % 6.44 C
2282 26-08-2018 22:05:00 14.6 C 57 % 6.19 C
2283 26-08-2018 22:10:00 14.6 C 58 % 6.44 C
2284 26-08-2018 22:15:00 14.7 C 58 % 6.53 C
2285 26-08-2018 22:20:00 14.7 C 58 % 6.53 C
2286 26-08-2018 22:25:00 14.7 C 57 % 6.28 C
2287 26-08-2018 22:30:00 14.7 C 56 % 6.02 C
2288 26-08-2018 22:35:00 14.7 C 56 % 6.02 C
2289 26-08-2018 22:40:00 14.8 C 58 % 6.63 C
2290 26-08-2018 22:45:00 14.8 C 57 % 6.37 C
2291 26-08-2018 22:50:00 14.9 C 59 % 6.97 C
2292 26-08-2018 22:55:00 15.1 C 58 % 6.91 C
2293 26-08-2018 23:00:00 15.2 C 57 % 6.75 C
2294 26-08-2018 23:05:00 15.4 C 58 % 7.19 C
2295 26-08-2018 23:10:00 15.4 C 57 % 6.93 C
2296 26-08-2018 23:15:00 15.6 C 57 % 7.12 C
2297 26-08-2018 23:20:00 15.6 C 57 % 7.12 C
2298 26-08-2018 23:25:00 15.5 C 56 % 6.77 C
2299 26-08-2018 23:30:00 15.4 C 56 % 6.68 C
2300 26-08-2018 23:35:00 15.4 C 57 % 6.93 C
Sensor: Nr:Datum:Temp:Feuchte:Taupunkt:
Aussen-T/F 2301 26-08-2018 23:40:00 15.3 C 57 % 6.84 C
2302 26-08-2018 23:45:00 15.3 C 58 % 7.09 C
2303 26-08-2018 23:50:00 15.4 C 59 % 7.44 C
2304 26-08-2018 23:55:00 15.5 C 56 % 6.77 C
2305 27-08-2018 00:00:00 15.7 C 56 % 6.96 C
2306 27-08-2018 00:05:00 15.8 C 56 % 7.05 C
2307 27-08-2018 00:10:00 16 C 55 % 6.97 C
2308 27-08-2018 00:15:00 16.1 C 56 % 7.33 C
2309 27-08-2018 00:20:00 16.1 C 57 % 7.59 C
2310 27-08-2018 00:25:00 16.1 C 56 % 7.33 C
2311 27-08-2018 00:30:00 16 C 56 % 7.24 C
2312 27-08-2018 00:35:00 15.9 C 56 % 7.14 C
2313 27-08-2018 00:40:00 15.9 C 57 % 7.4 C
2314 27-08-2018 00:45:00 15.9 C 57 % 7.4 C
2315 27-08-2018 00:50:00 16 C 54 % 6.71 C
2316 27-08-2018 00:55:00 16.1 C 58 % 7.84 C
2317 27-08-2018 01:00:00 16.1 C 57 % 7.59 C
2318 27-08-2018 01:05:00 16.1 C 57 % 7.59 C
2319 27-08-2018 01:10:00 16.2 C 52 % 6.34 C
2320 27-08-2018 01:15:00 16.6 C 50 % 6.15 C
2321 27-08-2018 01:20:00 16.8 C 52 % 6.9 C
2322 27-08-2018 01:25:00 16.9 C 53 % 7.27 C
2323 27-08-2018 01:30:00 16.9 C 51 % 6.71 C
2324 27-08-2018 01:35:00 16.9 C 50 % 6.42 C
2325 27-08-2018 01:40:00 17 C 51 % 6.8 C
Sensor: Nr:Datum:Temp:Feuchte:Taupunkt:
Aussen-T/F 2326 27-08-2018 01:45:00 17.1 C 53 % 7.45 C
2327 27-08-2018 01:50:00 17.2 C 54 % 7.82 C
2328 27-08-2018 01:55:00 17.1 C 52 % 7.18 C
2329 27-08-2018 02:00:00 17.1 C 57 % 8.52 C
2330 27-08-2018 02:05:00 16.9 C 62 % 9.58 C
2331 27-08-2018 02:10:00 16.6 C 66 % 10.23 C
2332 27-08-2018 02:15:00 16.3 C 66 % 9.94 C
2333 27-08-2018 02:20:00 16 C 69 % 10.32 C
2334 27-08-2018 02:25:00 15.7 C 71 % 10.46 C
2335 27-08-2018 02:30:00 15.5 C 71 % 10.27 C
2336 27-08-2018 02:35:00 15.3 C 71 % 10.08 C
2337 27-08-2018 02:40:00 15.1 C 68 % 9.24 C
2338 27-08-2018 02:45:00 15.2 C 67 % 9.12 C
2339 27-08-2018 02:50:00 15.2 C 69 % 9.56 C
2340 27-08-2018 02:55:00 15.3 C 68 % 9.43 C
2341 27-08-2018 03:00:00 15.3 C 65 % 8.77 C
2342 27-08-2018 03:05:00 15.4 C 66 % 9.09 C
2343 27-08-2018 03:10:00 15.6 C 69 % 9.94 C
2344 27-08-2018 03:15:00 15.6 C 69 % 9.94 C
2345 27-08-2018 03:20:00 15.6 C 70 % 10.15 C
2346 27-08-2018 03:25:00 15.5 C 66 % 9.18 C
2347 27-08-2018 03:30:00 15.5 C 67 % 9.41 C
2348 27-08-2018 03:35:00 15.5 C 66 % 9.18 C
2349 27-08-2018 03:40:00 15.6 C 65 % 9.05 C
2350 27-08-2018 03:45:00 15.6 C 65 % 9.05 C
Sensor: Nr:Datum:Temp:Feuchte:Taupunkt:
Aussen-T/F 2351 27-08-2018 03:50:00 15.7 C 64 % 8.92 C
2352 27-08-2018 03:55:00 15.8 C 65 % 9.24 C
2353 27-08-2018 04:00:00 15.9 C 65 % 9.34 C
2354 27-08-2018 04:05:00 16.1 C 59 % 8.09 C
2355 27-08-2018 04:10:00 16.3 C 61 % 8.77 C
2356 27-08-2018 04:15:00 16.4 C 62 % 9.11 C
2357 27-08-2018 04:20:00 16.4 C 63 % 9.35 C
2358 27-08-2018 04:25:00 16.3 C 64 % 9.48 C
2359 27-08-2018 04:30:00 16.3 C 68 % 10.39 C
2360 27-08-2018 04:35:00 16.1 C 67 % 9.98 C
2361 27-08-2018 04:40:00 15.9 C 68 % 10.01 C
2362 27-08-2018 04:45:00 15.7 C 69 % 10.03 C
2363 27-08-2018 04:50:00 15.6 C 68 % 9.72 C
2364 27-08-2018 04:55:00 15.5 C 68 % 9.63 C
2365 27-08-2018 05:00:00 15.5 C 70 % 10.06 C
2366 27-08-2018 05:05:00 15.4 C 69 % 9.75 C
2367 27-08-2018 05:10:00 15.5 C 69 % 9.84 C
2368 27-08-2018 05:15:00 15.5 C 68 % 9.63 C
2369 27-08-2018 05:20:00 15.6 C 67 % 9.5 C
2370 27-08-2018 05:25:00 15.6 C 67 % 9.5 C
2371 27-08-2018 05:30:00 15.6 C 65 % 9.05 C
2372 27-08-2018 05:35:00 15.7 C 63 % 8.68 C
2373 27-08-2018 05:40:00 15.9 C 63 % 8.87 C
2374 27-08-2018 05:45:00 16.1 C 62 % 8.82 C
2375 27-08-2018 05:50:00 16.2 C 61 % 8.68 C
Sensor: Nr:Datum:Temp:Feuchte:Taupunkt:
Aussen-T/F 2376 27-08-2018 05:55:00 16.2 C 63 % 9.16 C
2377 27-08-2018 06:00:00 16.3 C 65 % 9.71 C
2378 27-08-2018 06:05:00 16.3 C 70 % 10.82 C
2379 27-08-2018 06:10:00 16.1 C 72 % 11.06 C
2380 27-08-2018 06:15:00 15.8 C 74 % 11.18 C
2381 27-08-2018 06:20:00 15.7 C 76 % 11.48 C
2382 27-08-2018 06:25:00 15.4 C 77 % 11.39 C
2383 27-08-2018 06:30:00 15.3 C 78 % 11.49 C
2384 27-08-2018 06:35:00 15.1 C 78 % 11.3 C
2385 27-08-2018 06:40:00 15.1 C 78 % 11.3 C
2386 27-08-2018 06:45:00 15.1 C 79 % 11.49 C
2387 27-08-2018 06:50:00 15.1 C 79 % 11.49 C
2388 27-08-2018 06:55:00 15.2 C 78 % 11.39 C
2389 27-08-2018 07:00:00 15.3 C 78 % 11.49 C
2390 27-08-2018 07:05:00 15.4 C 78 % 11.59 C
2391 27-08-2018 07:10:00 15.5 C 79 % 11.88 C
2392 27-08-2018 07:15:00 15.6 C 78 % 11.78 C
2393 27-08-2018 07:20:00 15.6 C 79 % 11.97 C
2394 27-08-2018 07:25:00 15.6 C 80 % 12.16 C
2395 27-08-2018 07:30:00 15.6 C 82 % 12.54 C
2396 27-08-2018 07:35:00 15.6 C 83 % 12.72 C
2397 27-08-2018 07:40:00 15.4 C 84 % 12.71 C
2398 27-08-2018 07:45:00 15.3 C 84 % 12.61 C
2399 27-08-2018 07:50:00 15.3 C 85 % 12.79 C
2400 27-08-2018 07:55:00 15.2 C 86 % 12.88 C
Sensor: Nr:Datum:Temp:Feuchte:Taupunkt:
Aussen-T/F 2401 27-08-2018 08:00:00 15.1 C 86 % 12.78 C
2402 27-08-2018 08:05:00 15.1 C 86 % 12.78 C
2403 27-08-2018 08:10:00 15 C 86 % 12.68 C
2404 27-08-2018 08:15:00 15 C 85 % 12.5 C
2405 27-08-2018 08:20:00 15 C 85 % 12.5 C
2406 27-08-2018 08:25:00 15.1 C 85 % 12.6 C
2407 27-08-2018 08:30:00 15.1 C 85 % 12.6 C
2408 27-08-2018 08:35:00 15.1 C 85 % 12.6 C
2409 27-08-2018 08:40:00 15.2 C 84 % 12.52 C
2410 27-08-2018 08:45:00 15.2 C 85 % 12.7 C
2411 27-08-2018 08:50:00 15.3 C 84 % 12.61 C
2412 27-08-2018 08:55:00 15.3 C 84 % 12.61 C
2413 27-08-2018 09:00:00 15.3 C 84 % 12.61 C
2414 27-08-2018 09:05:00 15.4 C 84 % 12.71 C
2415 27-08-2018 09:10:00 15.4 C 83 % 12.53 C
2416 27-08-2018 09:15:00 15.5 C 83 % 12.63 C
2417 27-08-2018 09:20:00 15.6 C 83 % 12.72 C
2418 27-08-2018 09:25:00 15.6 C 83 % 12.72 C
2419 27-08-2018 09:30:00 15.6 C 83 % 12.72 C
2420 27-08-2018 09:35:00 15.7 C 83 % 12.82 C
2421 27-08-2018 09:40:00 15.7 C 83 % 12.82 C
2422 27-08-2018 09:45:00 15.7 C 82 % 12.64 C
2423 27-08-2018 09:50:00 15.8 C 82 % 12.74 C
2424 27-08-2018 09:55:00 15.8 C 82 % 12.74 C
2425 27-08-2018 10:00:00 15.9 C 82 % 12.83 C
Sensor: Nr:Datum:Temp:Feuchte:Taupunkt:
Aussen-T/F 2426 27-08-2018 10:05:00 15.9 C 82 % 12.83 C
2427 27-08-2018 10:10:00 16.1 C 82 % 13.03 C
2428 27-08-2018 10:15:00 16.1 C 81 % 12.84 C
2429 27-08-2018 10:20:00 16.2 C 81 % 12.94 C
2430 27-08-2018 10:25:00 16.2 C 81 % 12.94 C
2431 27-08-2018 10:30:00 16.2 C 82 % 13.13 C
2432 27-08-2018 10:35:00 16.2 C 81 % 12.94 C
2433 27-08-2018 10:40:00 16.2 C 81 % 12.94 C
2434 27-08-2018 10:45:00 16.2 C 81 % 12.94 C
2435 27-08-2018 10:50:00 16.3 C 81 % 13.04 C
2436 27-08-2018 10:55:00 16.3 C 81 % 13.04 C
2437 27-08-2018 11:00:00 16.4 C 81 % 13.13 C
2438 27-08-2018 11:05:00 16.5 C 81 % 13.23 C
2439 27-08-2018 11:10:00 16.6 C 81 % 13.33 C
2440 27-08-2018 11:15:00 16.7 C 80 % 13.23 C
2441 27-08-2018 11:20:00 16.8 C 80 % 13.33 C
2442 27-08-2018 11:25:00 16.9 C 80 % 13.43 C
2443 27-08-2018 11:30:00 17.1 C 80 % 13.62 C
2444 27-08-2018 11:35:00 17.1 C 80 % 13.62 C
2445 27-08-2018 11:40:00 17.2 C 80 % 13.72 C
2446 27-08-2018 11:45:00 17.4 C 79 % 13.72 C
2447 27-08-2018 11:50:00 17.6 C 79 % 13.92 C
2448 27-08-2018 11:55:00 17.7 C 79 % 14.01 C
2449 27-08-2018 12:00:00 17.8 C 78 % 13.91 C
2450 27-08-2018 12:05:00 17.9 C 78 % 14.01 C
Sensor: Nr:Datum:Temp:Feuchte:Taupunkt:
Aussen-T/F 2451 27-08-2018 12:10:00 18.1 C 77 % 14.01 C
2452 27-08-2018 12:15:00 18.1 C 77 % 14.01 C
2453 27-08-2018 12:20:00 18.2 C 78 % 14.3 C
2454 27-08-2018 12:25:00 18.3 C 77 % 14.2 C
2455 27-08-2018 12:30:00 18.3 C 77 % 14.2 C
2456 27-08-2018 12:35:00 18.3 C 77 % 14.2 C
2457 27-08-2018 12:40:00 18.3 C 77 % 14.2 C
2458 27-08-2018 12:45:00 18.4 C 76 % 14.1 C
2459 27-08-2018 12:50:00 18.5 C 77 % 14.39 C
2460 27-08-2018 12:55:00 18.7 C 77 % 14.59 C
2461 27-08-2018 13:00:00 18.9 C 76 % 14.58 C
2462 27-08-2018 13:05:00 19.3 C 75 % 14.76 C
2463 27-08-2018 13:10:00 19.4 C 74 % 14.65 C
2464 27-08-2018 13:15:00 19.4 C 74 % 14.65 C
2465 27-08-2018 13:20:00 19.5 C 75 % 14.95 C
2466 27-08-2018 13:25:00 19.5 C 74 % 14.74 C
2467 27-08-2018 13:30:00 19.4 C 74 % 14.65 C
2468 27-08-2018 13:35:00 19.6 C 74 % 14.84 C
2469 27-08-2018 13:40:00 19.7 C 73 % 14.73 C
2470 27-08-2018 13:45:00 19.8 C 73 % 14.82 C
2471 27-08-2018 13:50:00 19.9 C 73 % 14.92 C
2472 27-08-2018 13:55:00 20.1 C 72 % 14.9 C
2473 27-08-2018 14:00:00 20.2 C 72 % 14.99 C
2474 27-08-2018 14:05:00 20.1 C 72 % 14.9 C
2475 27-08-2018 14:10:00 20.1 C 72 % 14.9 C
Sensor: Nr:Datum:Temp:Feuchte:Taupunkt:
Aussen-T/F 2476 27-08-2018 14:15:00 20.2 C 72 % 14.99 C
2477 27-08-2018 14:20:00 20.1 C 72 % 14.9 C
2478 27-08-2018 14:25:00 20.1 C 72 % 14.9 C
2479 27-08-2018 14:30:00 20.2 C 72 % 14.99 C
2480 27-08-2018 14:35:00 20.3 C 72 % 15.09 C
2481 27-08-2018 14:40:00 20.3 C 72 % 15.09 C
2482 27-08-2018 14:45:00 20.2 C 72 % 14.99 C
2483 27-08-2018 14:50:00 20.1 C 73 % 15.11 C
2484 27-08-2018 14:55:00 20.3 C 72 % 15.09 C
2485 27-08-2018 15:00:00 20.3 C 73 % 15.3 C
2486 27-08-2018 15:05:00 20.4 C 73 % 15.4 C
2487 27-08-2018 15:10:00 20.5 C 73 % 15.5 C
2488 27-08-2018 15:15:00 20.6 C 73 % 15.59 C
2489 27-08-2018 15:20:00 20.7 C 72 % 15.47 C
2490 27-08-2018 15:25:00 20.8 C 72 % 15.57 C
2491 27-08-2018 15:30:00 20.9 C 71 % 15.45 C
2492 27-08-2018 15:35:00 21.1 C 71 % 15.64 C
2493 27-08-2018 15:40:00 21.1 C 70 % 15.42 C
2494 27-08-2018 15:45:00 21.1 C 70 % 15.42 C
2495 27-08-2018 15:50:00 21.2 C 70 % 15.51 C
2496 27-08-2018 15:55:00 21.1 C 70 % 15.42 C
2497 27-08-2018 16:00:00 21.1 C 71 % 15.64 C
2498 27-08-2018 16:05:00 21.1 C 70 % 15.42 C
2499 27-08-2018 16:10:00 21.1 C 71 % 15.64 C
2500 27-08-2018 16:15:00 21 C 71 % 15.54 C
Sensor: Nr:Datum:Temp:Feuchte:Taupunkt:
Aussen-T/F 2501 27-08-2018 16:20:00 21.1 C 71 % 15.64 C
2502 27-08-2018 16:25:00 21.2 C 71 % 15.73 C
2503 27-08-2018 16:30:00 21.6 C 70 % 15.89 C
2504 27-08-2018 16:35:00 22.2 C 68 % 16.01 C
2505 27-08-2018 16:40:00 22.4 C 67 % 15.97 C
2506 27-08-2018 16:45:00 22.3 C 67 % 15.88 C
2507 27-08-2018 16:50:00 22.1 C 68 % 15.92 C
2508 27-08-2018 16:55:00 22.2 C 68 % 16.01 C
2509 27-08-2018 17:00:00 22.3 C 67 % 15.88 C
2510 27-08-2018 17:05:00 22.5 C 68 % 16.3 C
2511 27-08-2018 17:10:00 22.7 C 67 % 16.26 C
2512 27-08-2018 17:15:00 22.5 C 66 % 15.83 C
2513 27-08-2018 17:20:00 22.3 C 67 % 15.88 C
2514 27-08-2018 17:25:00 22.3 C 68 % 16.11 C
2515 27-08-2018 17:30:00 22.8 C 67 % 16.35 C
2516 27-08-2018 17:35:00 23.1 C 65 % 16.16 C
2517 27-08-2018 17:40:00 23.2 C 64 % 16.01 C
2518 27-08-2018 17:45:00 23.3 C 64 % 16.11 C
2519 27-08-2018 17:50:00 23.4 C 62 % 15.71 C
2520 27-08-2018 17:55:00 23.4 C 63 % 15.96 C
2521 27-08-2018 18:00:00 23.5 C 62 % 15.8 C
2522 27-08-2018 18:05:00 23.5 C 63 % 16.05 C
2523 27-08-2018 18:10:00 23.7 C 62 % 15.99 C
2524 27-08-2018 18:15:00 23.7 C 63 % 16.24 C
2525 27-08-2018 18:20:00 23.4 C 62 % 15.71 C
Sensor: Nr:Datum:Temp:Feuchte:Taupunkt:
Aussen-T/F 2526 27-08-2018 18:25:00 23.2 C 64 % 16.01 C
2527 27-08-2018 18:30:00 23.3 C 64 % 16.11 C
2528 27-08-2018 18:35:00 23.4 C 63 % 15.96 C
2529 27-08-2018 18:40:00 23.4 C 64 % 16.2 C
2530 27-08-2018 18:45:00 23.3 C 63 % 15.86 C
2531 27-08-2018 18:50:00 23.2 C 64 % 16.01 C
2532 27-08-2018 18:55:00 23.1 C 64 % 15.92 C
2533 27-08-2018 19:00:00 22.8 C 65 % 15.88 C
2534 27-08-2018 19:05:00 22.6 C 66 % 15.93 C
2535 27-08-2018 19:10:00 22.4 C 66 % 15.74 C
2536 27-08-2018 19:15:00 22.2 C 67 % 15.78 C
2537 27-08-2018 19:20:00 22 C 68 % 15.82 C
2538 27-08-2018 19:25:00 21.8 C 68 % 15.63 C
2539 27-08-2018 19:30:00 21.7 C 69 % 15.77 C
2540 27-08-2018 19:35:00 21.6 C 69 % 15.67 C
2541 27-08-2018 19:40:00 21.4 C 69 % 15.48 C
2542 27-08-2018 19:45:00 21.3 C 69 % 15.38 C
2543 27-08-2018 19:50:00 21.2 C 70 % 15.51 C
2544 27-08-2018 19:55:00 21.2 C 71 % 15.73 C
2545 27-08-2018 20:00:00 21.1 C 72 % 15.86 C
2546 27-08-2018 20:05:00 20.9 C 71 % 15.45 C
2547 27-08-2018 20:10:00 20.8 C 72 % 15.57 C
2548 27-08-2018 20:15:00 20.7 C 72 % 15.47 C
2549 27-08-2018 20:20:00 20.6 C 71 % 15.16 C
2550 27-08-2018 20:25:00 20.4 C 70 % 14.75 C
Sensor: Nr:Datum:Temp:Feuchte:Taupunkt:
Aussen-T/F 2551 27-08-2018 20:30:00 20.4 C 68 % 14.3 C
2552 27-08-2018 20:35:00 20.4 C 68 % 14.3 C
2553 27-08-2018 20:40:00 20.3 C 67 % 13.97 C
2554 27-08-2018 20:45:00 20.3 C 65 % 13.51 C
2555 27-08-2018 20:50:00 20.2 C 65 % 13.41 C
2556 27-08-2018 20:55:00 20.2 C 65 % 13.41 C
2557 27-08-2018 21:00:00 20.2 C 61 % 12.44 C
2558 27-08-2018 21:05:00 20.2 C 61 % 12.44 C
2559 27-08-2018 21:10:00 20.2 C 64 % 13.18 C
2560 27-08-2018 21:15:00 20.1 C 66 % 13.55 C
2561 27-08-2018 21:20:00 19.9 C 62 % 12.41 C
2562 27-08-2018 21:25:00 19.8 C 64 % 12.8 C
2563 27-08-2018 21:30:00 19.7 C 63 % 12.46 C
2564 27-08-2018 21:35:00 19.5 C 62 % 12.03 C
2565 27-08-2018 21:40:00 19.4 C 63 % 12.18 C
2566 27-08-2018 21:45:00 19.2 C 62 % 11.75 C
2567 27-08-2018 21:50:00 19.1 C 63 % 11.9 C
2568 27-08-2018 21:55:00 19 C 61 % 11.31 C
2569 27-08-2018 22:00:00 18.9 C 61 % 11.22 C
2570 27-08-2018 22:05:00 18.8 C 61 % 11.13 C
2571 27-08-2018 22:10:00 18.8 C 62 % 11.37 C
2572 27-08-2018 22:15:00 18.7 C 61 % 11.03 C
2573 27-08-2018 22:20:00 18.7 C 61 % 11.03 C
2574 27-08-2018 22:25:00 18.7 C 60 % 10.78 C
2575 27-08-2018 22:30:00 18.7 C 60 % 10.78 C
Sensor: Nr:Datum:Temp:Feuchte:Taupunkt:
Aussen-T/F 2576 27-08-2018 22:35:00 18.8 C 61 % 11.13 C
2577 27-08-2018 22:40:00 18.7 C 60 % 10.78 C
2578 27-08-2018 22:45:00 18.7 C 62 % 11.28 C
2579 27-08-2018 22:50:00 18.6 C 63 % 11.42 C
2580 27-08-2018 22:55:00 18.4 C 64 % 11.47 C
2581 27-08-2018 23:00:00 18.3 C 65 % 11.61 C
2582 27-08-2018 23:05:00 18.1 C 66 % 11.65 C
2583 27-08-2018 23:10:00 17.7 C 67 % 11.5 C
2584 27-08-2018 23:15:00 17.4 C 69 % 11.66 C
2585 27-08-2018 23:20:00 17.1 C 70 % 11.59 C
2586 27-08-2018 23:25:00 16.8 C 71 % 11.52 C
2587 27-08-2018 23:30:00 16.6 C 72 % 11.54 C
2588 27-08-2018 23:35:00 16.4 C 73 % 11.55 C
2589 27-08-2018 23:40:00 16.3 C 73 % 11.46 C
2590 27-08-2018 23:45:00 16.2 C 74 % 11.56 C
2591 27-08-2018 23:50:00 16 C 74 % 11.37 C
2592 27-08-2018 23:55:00 15.8 C 75 % 11.38 C
2593 28-08-2018 00:00:00 15.7 C 76 % 11.48 C
2594 28-08-2018 00:05:00 15.7 C 76 % 11.48 C
2595 28-08-2018 00:10:00 15.8 C 77 % 11.78 C
2596 28-08-2018 00:15:00 15.8 C 77 % 11.78 C
2597 28-08-2018 00:20:00 15.8 C 77 % 11.78 C
2598 28-08-2018 00:25:00 15.9 C 77 % 11.88 C
2599 28-08-2018 00:30:00 15.9 C 77 % 11.88 C
2600 28-08-2018 00:35:00 15.9 C 77 % 11.88 C
Sensor: Nr:Datum:Temp:Feuchte:Taupunkt:
Aussen-T/F 2601 28-08-2018 00:40:00 15.9 C 77 % 11.88 C
2602 28-08-2018 00:45:00 15.9 C 77 % 11.88 C
2603 28-08-2018 00:50:00 15.9 C 77 % 11.88 C
2604 28-08-2018 00:55:00 15.8 C 77 % 11.78 C
2605 28-08-2018 01:00:00 15.8 C 77 % 11.78 C
2606 28-08-2018 01:05:00 15.8 C 77 % 11.78 C
2607 28-08-2018 01:10:00 15.7 C 77 % 11.68 C
2608 28-08-2018 01:15:00 15.8 C 77 % 11.78 C
2609 28-08-2018 01:20:00 15.8 C 77 % 11.78 C
2610 28-08-2018 01:25:00 15.8 C 78 % 11.97 C
2611 28-08-2018 01:30:00 15.8 C 77 % 11.78 C
2612 28-08-2018 01:35:00 15.8 C 77 % 11.78 C
2613 28-08-2018 01:40:00 15.7 C 77 % 11.68 C
2614 28-08-2018 01:45:00 15.7 C 77 % 11.68 C
2615 28-08-2018 01:50:00 15.7 C 77 % 11.68 C
2616 28-08-2018 01:55:00 15.7 C 77 % 11.68 C
2617 28-08-2018 02:00:00 15.7 C 78 % 11.88 C
2618 28-08-2018 02:05:00 15.7 C 78 % 11.88 C
2619 28-08-2018 02:10:00 15.6 C 78 % 11.78 C
2620 28-08-2018 02:15:00 15.6 C 78 % 11.78 C
2621 28-08-2018 02:20:00 15.6 C 78 % 11.78 C
2622 28-08-2018 02:25:00 15.6 C 78 % 11.78 C
2623 28-08-2018 02:30:00 15.6 C 77 % 11.59 C
2624 28-08-2018 02:35:00 15.5 C 78 % 11.68 C
2625 28-08-2018 02:40:00 15.5 C 77 % 11.49 C
Sensor: Nr:Datum:Temp:Feuchte:Taupunkt:
Aussen-T/F 2626 28-08-2018 02:45:00 15.5 C 78 % 11.68 C
2627 28-08-2018 02:50:00 15.4 C 78 % 11.59 C
2628 28-08-2018 02:55:00 15.3 C 77 % 11.3 C
2629 28-08-2018 03:00:00 15.1 C 78 % 11.3 C
2630 28-08-2018 03:05:00 14.8 C 78 % 11 C
2631 28-08-2018 03:10:00 14.6 C 79 % 11 C
2632 28-08-2018 03:15:00 14.4 C 80 % 11 C
2633 28-08-2018 03:20:00 14.2 C 80 % 10.8 C
2634 28-08-2018 03:25:00 14 C 81 % 10.79 C
2635 28-08-2018 03:30:00 13.8 C 81 % 10.6 C
2636 28-08-2018 03:35:00 13.6 C 81 % 10.4 C
2637 28-08-2018 03:40:00 13.4 C 82 % 10.39 C
2638 28-08-2018 03:45:00 13.3 C 83 % 10.48 C
2639 28-08-2018 03:50:00 13.2 C 83 % 10.38 C
2640 28-08-2018 03:55:00 13.1 C 84 % 10.46 C
2641 28-08-2018 04:00:00 13 C 84 % 10.36 C
2642 28-08-2018 04:05:00 12.9 C 84 % 10.26 C
2643 28-08-2018 04:10:00 12.8 C 84 % 10.17 C
2644 28-08-2018 04:15:00 12.7 C 85 % 10.25 C
2645 28-08-2018 04:20:00 12.6 C 85 % 10.15 C
2646 28-08-2018 04:25:00 12.4 C 85 % 9.95 C
2647 28-08-2018 04:30:00 12.3 C 85 % 9.85 C
2648 28-08-2018 04:35:00 12.3 C 86 % 10.03 C
2649 28-08-2018 04:40:00 12.2 C 86 % 9.93 C
2650 28-08-2018 04:45:00 12.1 C 86 % 9.83 C
Sensor: Nr:Datum:Temp:Feuchte:Taupunkt:
Aussen-T/F 2651 28-08-2018 04:50:00 12.1 C 87 % 10 C
2652 28-08-2018 04:55:00 12.1 C 87 % 10 C
2653 28-08-2018 05:00:00 12.1 C 87 % 10 C
2654 28-08-2018 05:05:00 12.2 C 88 % 10.27 C
2655 28-08-2018 05:10:00 12.2 C 88 % 10.27 C
2656 28-08-2018 05:15:00 12.3 C 88 % 10.37 C
2657 28-08-2018 05:20:00 12.3 C 88 % 10.37 C
2658 28-08-2018 05:25:00 12.4 C 88 % 10.47 C
2659 28-08-2018 05:30:00 12.5 C 87 % 10.4 C
2660 28-08-2018 05:35:00 12.6 C 87 % 10.5 C
2661 28-08-2018 05:40:00 12.7 C 87 % 10.59 C
2662 28-08-2018 05:45:00 12.7 C 87 % 10.59 C
2663 28-08-2018 05:50:00 12.7 C 87 % 10.59 C
2664 28-08-2018 05:55:00 12.7 C 87 % 10.59 C
2665 28-08-2018 06:00:00 12.8 C 86 % 10.52 C
2666 28-08-2018 06:05:00 12.8 C 86 % 10.52 C
2667 28-08-2018 06:10:00 12.8 C 86 % 10.52 C
2668 28-08-2018 06:15:00 12.8 C 86 % 10.52 C
2669 28-08-2018 06:20:00 12.8 C 86 % 10.52 C
2670 28-08-2018 06:25:00 12.8 C 86 % 10.52 C
2671 28-08-2018 06:30:00 12.8 C 86 % 10.52 C
2672 28-08-2018 06:35:00 12.8 C 86 % 10.52 C
2673 28-08-2018 06:40:00 12.8 C 86 % 10.52 C
2674 28-08-2018 06:45:00 12.8 C 86 % 10.52 C
2675 28-08-2018 06:50:00 12.8 C 86 % 10.52 C
Sensor: Nr:Datum:Temp:Feuchte:Taupunkt:
Aussen-T/F 2676 28-08-2018 06:55:00 12.8 C 86 % 10.52 C
2677 28-08-2018 07:00:00 12.9 C 86 % 10.62 C
2678 28-08-2018 07:05:00 12.9 C 86 % 10.62 C
2679 28-08-2018 07:10:00 12.9 C 86 % 10.62 C
2680 28-08-2018 07:15:00 12.9 C 86 % 10.62 C
2681 28-08-2018 07:20:00 13 C 86 % 10.72 C
2682 28-08-2018 07:25:00 13 C 86 % 10.72 C
2683 28-08-2018 07:30:00 13.1 C 86 % 10.81 C
2684 28-08-2018 07:35:00 13.1 C 86 % 10.81 C
2685 28-08-2018 07:40:00 13.2 C 86 % 10.91 C
2686 28-08-2018 07:45:00 13.2 C 86 % 10.91 C
2687 28-08-2018 07:50:00 13.3 C 86 % 11.01 C
2688 28-08-2018 07:55:00 13.3 C 85 % 10.83 C
2689 28-08-2018 08:00:00 13.4 C 84 % 10.75 C
2690 28-08-2018 08:05:00 13.6 C 84 % 10.95 C
2691 28-08-2018 08:10:00 13.6 C 84 % 10.95 C
2692 28-08-2018 08:15:00 13.7 C 83 % 10.87 C
2693 28-08-2018 08:20:00 13.7 C 83 % 10.87 C
2694 28-08-2018 08:25:00 13.7 C 83 % 10.87 C
2695 28-08-2018 08:30:00 13.7 C 84 % 11.05 C
2696 28-08-2018 08:35:00 13.8 C 84 % 11.15 C
2697 28-08-2018 08:40:00 13.8 C 84 % 11.15 C
2698 28-08-2018 08:45:00 13.8 C 83 % 10.97 C
2699 28-08-2018 08:50:00 13.8 C 83 % 10.97 C
2700 28-08-2018 08:55:00 13.9 C 83 % 11.06 C
Sensor: Nr:Datum:Temp:Feuchte:Taupunkt:
Aussen-T/F 2701 28-08-2018 09:00:00 13.9 C 83 % 11.06 C
2702 28-08-2018 09:05:00 14 C 83 % 11.16 C
2703 28-08-2018 09:10:00 14.1 C 83 % 11.26 C
2704 28-08-2018 09:15:00 14.2 C 83 % 11.36 C
2705 28-08-2018 09:20:00 14.2 C 83 % 11.36 C
2706 28-08-2018 09:25:00 14.3 C 83 % 11.45 C
2707 28-08-2018 09:30:00 14.3 C 83 % 11.45 C
2708 28-08-2018 09:35:00 14.4 C 83 % 11.55 C
2709 28-08-2018 09:40:00 14.6 C 84 % 11.93 C
2710 28-08-2018 09:45:00 14.6 C 84 % 11.93 C
2711 28-08-2018 09:50:00 14.7 C 84 % 12.03 C
2712 28-08-2018 09:55:00 14.8 C 84 % 12.12 C
2713 28-08-2018 10:00:00 14.8 C 82 % 11.76 C
2714 28-08-2018 10:05:00 14.9 C 83 % 12.04 C
2715 28-08-2018 10:10:00 15.1 C 83 % 12.24 C
2716 28-08-2018 10:15:00 15.3 C 81 % 12.06 C
2717 28-08-2018 10:20:00 15.4 C 81 % 12.16 C
2718 28-08-2018 10:25:00 15.8 C 80 % 12.36 C
2719 28-08-2018 10:30:00 16.1 C 79 % 12.46 C
2720 28-08-2018 10:35:00 16.5 C 78 % 12.65 C
2721 28-08-2018 10:40:00 17 C 77 % 12.94 C
2722 28-08-2018 10:45:00 17.3 C 75 % 12.83 C
2723 28-08-2018 10:50:00 17.5 C 74 % 12.82 C
2724 28-08-2018 10:55:00 17.8 C 73 % 12.9 C
2725 28-08-2018 11:00:00 18 C 71 % 12.67 C
Sensor: Nr:Datum:Temp:Feuchte:Taupunkt:
Aussen-T/F 2726 28-08-2018 11:05:00 18.2 C 70 % 12.64 C
2727 28-08-2018 11:10:00 18.4 C 69 % 12.61 C
2728 28-08-2018 11:15:00 18.5 C 69 % 12.71 C
2729 28-08-2018 11:20:00 18.7 C 66 % 12.22 C
2730 28-08-2018 11:25:00 18.8 C 67 % 12.55 C
2731 28-08-2018 11:30:00 18.9 C 67 % 12.64 C
2732 28-08-2018 11:35:00 19 C 66 % 12.51 C
2733 28-08-2018 11:40:00 19.1 C 65 % 12.37 C
2734 28-08-2018 11:45:00 19.2 C 65 % 12.47 C
2735 28-08-2018 11:50:00 19.3 C 64 % 12.32 C
2736 28-08-2018 11:55:00 19.3 C 64 % 12.32 C
2737 28-08-2018 12:00:00 19.3 C 63 % 12.09 C
2738 28-08-2018 12:05:00 19.5 C 63 % 12.27 C
2739 28-08-2018 12:10:00 19.6 C 62 % 12.13 C
2740 28-08-2018 12:15:00 19.6 C 62 % 12.13 C
2741 28-08-2018 12:20:00 19.7 C 62 % 12.22 C
2742 28-08-2018 12:25:00 19.8 C 61 % 12.07 C
2743 28-08-2018 12:30:00 19.9 C 60 % 11.91 C
2744 28-08-2018 12:35:00 19.9 C 61 % 12.16 C
2745 28-08-2018 12:40:00 20 C 60 % 12 C
2746 28-08-2018 12:45:00 20.1 C 60 % 12.1 C
2747 28-08-2018 12:50:00 20.3 C 59 % 12.03 C
2748 28-08-2018 12:55:00 20.4 C 59 % 12.12 C
2749 28-08-2018 13:00:00 20.4 C 59 % 12.12 C
2750 28-08-2018 13:05:00 20.5 C 59 % 12.22 C
Sensor: Nr:Datum:Temp:Feuchte:Taupunkt:
Aussen-T/F 2751 28-08-2018 13:10:00 20.6 C 58 % 12.05 C
2752 28-08-2018 13:15:00 20.7 C 56 % 11.61 C
2753 28-08-2018 13:20:00 20.7 C 56 % 11.61 C
2754 28-08-2018 13:25:00 20.8 C 57 % 11.97 C
2755 28-08-2018 13:30:00 20.9 C 56 % 11.8 C
2756 28-08-2018 13:35:00 21 C 56 % 11.89 C
2757 28-08-2018 13:40:00 21.1 C 56 % 11.99 C
2758 28-08-2018 13:45:00 21.4 C 55 % 11.99 C
2759 28-08-2018 13:50:00 21.7 C 54 % 11.99 C
2760 28-08-2018 13:55:00 21.9 C 54 % 12.18 C
2761 28-08-2018 14:00:00 22.1 C 53 % 12.08 C
2762 28-08-2018 14:05:00 22.3 C 53 % 12.26 C
2763 28-08-2018 14:10:00 22.4 C 52 % 12.07 C
2764 28-08-2018 14:15:00 22.4 C 52 % 12.07 C
2765 28-08-2018 14:20:00 22.5 C 52 % 12.16 C
2766 28-08-2018 14:25:00 22.5 C 52 % 12.16 C
2767 28-08-2018 14:30:00 22.6 C 53 % 12.54 C
2768 28-08-2018 14:35:00 22.7 C 51 % 12.05 C
2769 28-08-2018 14:40:00 22.8 C 50 % 11.84 C
2770 28-08-2018 14:45:00 23 C 50 % 12.02 C
2771 28-08-2018 14:50:00 23.2 C 50 % 12.21 C
2772 28-08-2018 14:55:00 23.3 C 50 % 12.3 C
2773 28-08-2018 15:00:00 23.3 C 49 % 11.99 C
2774 28-08-2018 15:05:00 23.6 C 49 % 12.27 C
2775 28-08-2018 15:10:00 23.7 C 48 % 12.04 C
Sensor: Nr:Datum:Temp:Feuchte:Taupunkt:
Aussen-T/F 2776 28-08-2018 15:15:00 23.7 C 49 % 12.36 C
2777 28-08-2018 15:20:00 23.6 C 48 % 11.95 C
2778 28-08-2018 15:25:00 23.6 C 49 % 12.27 C
2779 28-08-2018 15:30:00 23.8 C 48 % 12.14 C
2780 28-08-2018 15:35:00 23.8 C 48 % 12.14 C
2781 28-08-2018 15:40:00 23.8 C 48 % 12.14 C
2782 28-08-2018 15:45:00 23.9 C 48 % 12.23 C
2783 28-08-2018 15:50:00 23.9 C 48 % 12.23 C
2784 28-08-2018 15:55:00 24 C 47 % 12 C
2785 28-08-2018 16:00:00 24.1 C 46 % 11.76 C
2786 28-08-2018 16:05:00 24.1 C 47 % 12.09 C
2787 28-08-2018 16:10:00 24.2 C 46 % 11.85 C
2788 28-08-2018 16:15:00 24.2 C 46 % 11.85 C
2789 28-08-2018 16:20:00 24.3 C 47 % 12.27 C
2790 28-08-2018 16:25:00 24.8 C 47 % 12.73 C
2791 28-08-2018 16:30:00 25.3 C 44 % 12.18 C
2792 28-08-2018 16:35:00 25.7 C 43 % 12.19 C
2793 28-08-2018 16:40:00 26.1 C 42 % 12.19 C
2794 28-08-2018 16:45:00 26.2 C 42 % 12.28 C
2795 28-08-2018 16:50:00 26.3 C 43 % 12.73 C
2796 28-08-2018 16:55:00 26.4 C 41 % 12.09 C
2797 28-08-2018 17:00:00 26.6 C 41 % 12.27 C
2798 28-08-2018 17:05:00 26.7 C 41 % 12.36 C
2799 28-08-2018 17:10:00 26.8 C 40 % 12.07 C
2800 28-08-2018 17:15:00 26.8 C 40 % 12.07 C
Sensor: Nr:Datum:Temp:Feuchte:Taupunkt:
Aussen-T/F 2801 28-08-2018 17:20:00 26.3 C 41 % 12 C
2802 28-08-2018 17:25:00 26.1 C 43 % 12.55 C
2803 28-08-2018 17:30:00 26.2 C 42 % 12.28 C
2804 28-08-2018 17:35:00 26.3 C 41 % 12 C
2805 28-08-2018 17:40:00 26.6 C 41 % 12.27 C
2806 28-08-2018 17:45:00 26.5 C 41 % 12.18 C
2807 28-08-2018 17:50:00 26.3 C 41 % 12 C
2808 28-08-2018 17:55:00 25.9 C 43 % 12.37 C
2809 28-08-2018 18:00:00 25.9 C 43 % 12.37 C
2810 28-08-2018 18:05:00 26 C 41 % 11.73 C
2811 28-08-2018 18:10:00 26.1 C 42 % 12.19 C
2812 28-08-2018 18:15:00 26 C 42 % 12.1 C
2813 28-08-2018 18:20:00 25.9 C 42 % 12.01 C
2814 28-08-2018 18:25:00 25.9 C 41 % 11.64 C
2815 28-08-2018 18:30:00 25.9 C 42 % 12.01 C
2816 28-08-2018 18:35:00 26.1 C 42 % 12.19 C
2817 28-08-2018 18:40:00 26.3 C 43 % 12.73 C
2818 28-08-2018 18:45:00 26.5 C 41 % 12.18 C
2819 28-08-2018 18:50:00 26.7 C 41 % 12.36 C
2820 28-08-2018 18:55:00 26.7 C 43 % 13.09 C
2821 28-08-2018 19:00:00 26.6 C 42 % 12.64 C
2822 28-08-2018 19:05:00 26.3 C 41 % 12 C
2823 28-08-2018 19:10:00 26.3 C 44 % 13.08 C
2824 28-08-2018 19:15:00 26.1 C 43 % 12.55 C
2825 28-08-2018 19:20:00 25.9 C 45 % 13.06 C
Sensor: Nr:Datum:Temp:Feuchte:Taupunkt:
Aussen-T/F 2826 28-08-2018 19:25:00 25.6 C 47 % 13.45 C
2827 28-08-2018 19:30:00 25.1 C 48 % 13.32 C
2828 28-08-2018 19:35:00 24.7 C 49 % 13.27 C
2829 28-08-2018 19:40:00 24.3 C 50 % 13.22 C
2830 28-08-2018 19:45:00 23.8 C 51 % 13.06 C
2831 28-08-2018 19:50:00 23.4 C 52 % 12.99 C
2832 28-08-2018 19:55:00 22.9 C 53 % 12.82 C
2833 28-08-2018 20:00:00 22.5 C 55 % 13.01 C
2834 28-08-2018 20:05:00 22 C 56 % 12.82 C
2835 28-08-2018 20:10:00 21.5 C 57 % 12.63 C
2836 28-08-2018 20:15:00 21.1 C 58 % 12.52 C
2837 28-08-2018 20:20:00 20.6 C 59 % 12.31 C
2838 28-08-2018 20:25:00 20.1 C 60 % 12.1 C
2839 28-08-2018 20:30:00 19.7 C 61 % 11.97 C
2840 28-08-2018 20:35:00 19.3 C 61 % 11.6 C
2841 28-08-2018 20:40:00 19 C 62 % 11.56 C
2842 28-08-2018 20:45:00 18.8 C 62 % 11.37 C
2843 28-08-2018 20:50:00 18.6 C 63 % 11.42 C
2844 28-08-2018 20:55:00 18.5 C 63 % 11.33 C
2845 28-08-2018 21:00:00 18.3 C 63 % 11.14 C
2846 28-08-2018 21:05:00 18.3 C 64 % 11.38 C
2847 28-08-2018 21:10:00 18.2 C 64 % 11.28 C
2848 28-08-2018 21:15:00 18.1 C 65 % 11.42 C
2849 28-08-2018 21:20:00 18 C 64 % 11.09 C
2850 28-08-2018 21:25:00 17.9 C 64 % 11 C
Sensor: Nr:Datum:Temp:Feuchte:Taupunkt:
Aussen-T/F 2851 28-08-2018 21:30:00 17.8 C 64 % 10.9 C
2852 28-08-2018 21:35:00 17.8 C 65 % 11.14 C
2853 28-08-2018 21:40:00 17.7 C 65 % 11.04 C
2854 28-08-2018 21:45:00 17.6 C 65 % 10.95 C
2855 28-08-2018 21:50:00 17.5 C 65 % 10.85 C
2856 28-08-2018 21:55:00 17.3 C 66 % 10.89 C
2857 28-08-2018 22:00:00 17.2 C 66 % 10.8 C
2858 28-08-2018 22:05:00 17.1 C 66 % 10.7 C
2859 28-08-2018 22:10:00 16.9 C 67 % 10.74 C
2860 28-08-2018 22:15:00 16.8 C 67 % 10.64 C
2861 28-08-2018 22:20:00 16.7 C 67 % 10.55 C
2862 28-08-2018 22:25:00 16.6 C 67 % 10.45 C
2863 28-08-2018 22:30:00 16.6 C 68 % 10.67 C
2864 28-08-2018 22:35:00 16.4 C 68 % 10.48 C
2865 28-08-2018 22:40:00 16.3 C 68 % 10.39 C
2866 28-08-2018 22:45:00 16.3 C 68 % 10.39 C
2867 28-08-2018 22:50:00 16.3 C 68 % 10.39 C
2868 28-08-2018 22:55:00 16.2 C 68 % 10.29 C
2869 28-08-2018 23:00:00 16.2 C 69 % 10.51 C
2870 28-08-2018 23:05:00 16.1 C 69 % 10.42 C
2871 28-08-2018 23:10:00 15.9 C 69 % 10.23 C
2872 28-08-2018 23:15:00 15.8 C 70 % 10.34 C
2873 28-08-2018 23:20:00 15.8 C 70 % 10.34 C
2874 28-08-2018 23:25:00 15.7 C 71 % 10.46 C
2875 28-08-2018 23:30:00 15.6 C 71 % 10.37 C
Sensor: Nr:Datum:Temp:Feuchte:Taupunkt:
Aussen-T/F 2876 28-08-2018 23:35:00 15.4 C 71 % 10.17 C
2877 28-08-2018 23:40:00 15.4 C 72 % 10.38 C
2878 28-08-2018 23:45:00 15.3 C 72 % 10.29 C
2879 28-08-2018 23:50:00 15.2 C 72 % 10.19 C
2880 28-08-2018 23:55:00 15.1 C 73 % 10.3 C
2881 29-08-2018 00:00:00 15 C 73 % 10.2 C
2882 29-08-2018 00:05:00 14.9 C 73 % 10.11 C
2883 29-08-2018 00:10:00 14.9 C 73 % 10.11 C
2884 29-08-2018 00:15:00 14.8 C 74 % 10.22 C
2885 29-08-2018 00:20:00 14.7 C 74 % 10.12 C
2886 29-08-2018 00:25:00 14.7 C 74 % 10.12 C
2887 29-08-2018 00:30:00 14.6 C 76 % 10.42 C
2888 29-08-2018 00:35:00 14.5 C 75 % 10.13 C
2889 29-08-2018 00:40:00 14.4 C 75 % 10.03 C
2890 29-08-2018 00:45:00 14.3 C 76 % 10.13 C
2891 29-08-2018 00:50:00 14.2 C 76 % 10.03 C
2892 29-08-2018 00:55:00 14.1 C 76 % 9.94 C
2893 29-08-2018 01:00:00 13.9 C 77 % 9.94 C
2894 29-08-2018 01:05:00 13.9 C 77 % 9.94 C
2895 29-08-2018 01:10:00 14 C 78 % 10.23 C
2896 29-08-2018 01:15:00 14 C 77 % 10.04 C
2897 29-08-2018 01:20:00 13.8 C 78 % 10.03 C
2898 29-08-2018 01:25:00 13.8 C 79 % 10.22 C
2899 29-08-2018 01:30:00 13.7 C 78 % 9.94 C
2900 29-08-2018 01:35:00 13.5 C 79 % 9.93 C
Sensor: Nr:Datum:Temp:Feuchte:Taupunkt:
Aussen-T/F 2901 29-08-2018 01:40:00 13.3 C 79 % 9.74 C
2902 29-08-2018 01:45:00 13.2 C 80 % 9.83 C
2903 29-08-2018 01:50:00 13.2 C 80 % 9.83 C
2904 29-08-2018 01:55:00 13.1 C 80 % 9.73 C
2905 29-08-2018 02:00:00 12.9 C 81 % 9.72 C
2906 29-08-2018 02:05:00 12.9 C 81 % 9.72 C
2907 29-08-2018 02:10:00 12.8 C 82 % 9.81 C
2908 29-08-2018 02:15:00 12.8 C 82 % 9.81 C
2909 29-08-2018 02:20:00 12.8 C 82 % 9.81 C
2910 29-08-2018 02:25:00 12.7 C 82 % 9.71 C
2911 29-08-2018 02:30:00 12.6 C 82 % 9.61 C
2912 29-08-2018 02:35:00 12.4 C 82 % 9.42 C
2913 29-08-2018 02:40:00 12.4 C 83 % 9.6 C
2914 29-08-2018 02:45:00 12.3 C 83 % 9.5 C
2915 29-08-2018 02:50:00 12.2 C 83 % 9.4 C
2916 29-08-2018 02:55:00 12.1 C 83 % 9.3 C
2917 29-08-2018 03:00:00 11.9 C 83 % 9.11 C
2918 29-08-2018 03:05:00 11.8 C 84 % 9.19 C
2919 29-08-2018 03:10:00 11.7 C 84 % 9.09 C
2920 29-08-2018 03:15:00 11.7 C 85 % 9.27 C
2921 29-08-2018 03:20:00 11.7 C 85 % 9.27 C
2922 29-08-2018 03:25:00 11.6 C 85 % 9.17 C
2923 29-08-2018 03:30:00 11.6 C 85 % 9.17 C
2924 29-08-2018 03:35:00 11.6 C 86 % 9.34 C
2925 29-08-2018 03:40:00 11.4 C 85 % 8.97 C
Sensor: Nr:Datum:Temp:Feuchte:Taupunkt:
Aussen-T/F 2926 29-08-2018 03:45:00 11.4 C 86 % 9.14 C
2927 29-08-2018 03:50:00 11.3 C 86 % 9.05 C
2928 29-08-2018 03:55:00 11.3 C 86 % 9.05 C
2929 29-08-2018 04:00:00 11.3 C 87 % 9.22 C
2930 29-08-2018 04:05:00 11.3 C 86 % 9.05 C
2931 29-08-2018 04:10:00 11.3 C 87 % 9.22 C
2932 29-08-2018 04:15:00 11.3 C 87 % 9.22 C
2933 29-08-2018 04:20:00 11.3 C 87 % 9.22 C
2934 29-08-2018 04:25:00 11.2 C 87 % 9.12 C
2935 29-08-2018 04:30:00 11.2 C 87 % 9.12 C
2936 29-08-2018 04:35:00 11.2 C 87 % 9.12 C
2937 29-08-2018 04:40:00 11.2 C 88 % 9.29 C
2938 29-08-2018 04:45:00 11.1 C 87 % 9.02 C
2939 29-08-2018 04:50:00 11.1 C 87 % 9.02 C
2940 29-08-2018 04:55:00 11.1 C 87 % 9.02 C
2941 29-08-2018 05:00:00 11 C 87 % 8.92 C
2942 29-08-2018 05:05:00 10.9 C 87 % 8.82 C
2943 29-08-2018 05:10:00 10.9 C 87 % 8.82 C
2944 29-08-2018 05:15:00 10.8 C 88 % 8.89 C
2945 29-08-2018 05:20:00 10.8 C 87 % 8.73 C
2946 29-08-2018 05:25:00 10.7 C 88 % 8.8 C
2947 29-08-2018 05:30:00 10.7 C 88 % 8.8 C
2948 29-08-2018 05:35:00 10.6 C 88 % 8.7 C
2949 29-08-2018 05:40:00 10.6 C 88 % 8.7 C
2950 29-08-2018 05:45:00 10.6 C 88 % 8.7 C
Sensor: Nr:Datum:Temp:Feuchte:Taupunkt:
Aussen-T/F 2951 29-08-2018 05:50:00 10.6 C 89 % 8.86 C
2952 29-08-2018 05:55:00 10.5 C 88 % 8.6 C
2953 29-08-2018 06:00:00 10.4 C 88 % 8.5 C
2954 29-08-2018 06:05:00 10.4 C 89 % 8.67 C
2955 29-08-2018 06:10:00 10.3 C 89 % 8.57 C
2956 29-08-2018 06:15:00 10.3 C 89 % 8.57 C
2957 29-08-2018 06:20:00 10.3 C 89 % 8.57 C
2958 29-08-2018 06:25:00 10.2 C 89 % 8.47 C
2959 29-08-2018 06:30:00 10.2 C 89 % 8.47 C
2960 29-08-2018 06:35:00 10.2 C 89 % 8.47 C
2961 29-08-2018 06:40:00 10.2 C 89 % 8.47 C
2962 29-08-2018 06:45:00 10.1 C 89 % 8.37 C
2963 29-08-2018 06:50:00 10.1 C 90 % 8.54 C
2964 29-08-2018 06:55:00 10.1 C 90 % 8.54 C
2965 29-08-2018 07:00:00 10.1 C 90 % 8.54 C
2966 29-08-2018 07:05:00 10.2 C 90 % 8.64 C
2967 29-08-2018 07:10:00 10.2 C 90 % 8.64 C
2968 29-08-2018 07:15:00 10.3 C 91 % 8.9 C
2969 29-08-2018 07:20:00 10.4 C 91 % 9 C
2970 29-08-2018 07:25:00 10.4 C 90 % 8.83 C
2971 29-08-2018 07:30:00 10.4 C 90 % 8.83 C
2972 29-08-2018 07:35:00 10.4 C 90 % 8.83 C
2973 29-08-2018 07:40:00 10.5 C 90 % 8.93 C
2974 29-08-2018 07:45:00 10.5 C 90 % 8.93 C
2975 29-08-2018 07:50:00 10.6 C 90 % 9.03 C
Sensor: Nr:Datum:Temp:Feuchte:Taupunkt:
Aussen-T/F 2976 29-08-2018 07:55:00 10.6 C 91 % 9.19 C
2977 29-08-2018 08:00:00 10.7 C 91 % 9.29 C
2978 29-08-2018 08:05:00 10.7 C 91 % 9.29 C
2979 29-08-2018 08:10:00 10.8 C 90 % 9.23 C
2980 29-08-2018 08:15:00 10.8 C 90 % 9.23 C
2981 29-08-2018 08:20:00 10.9 C 90 % 9.33 C
2982 29-08-2018 08:25:00 10.9 C 90 % 9.33 C
2983 29-08-2018 08:30:00 11 C 90 % 9.42 C
2984 29-08-2018 08:35:00 11.1 C 90 % 9.52 C
2985 29-08-2018 08:40:00 11.2 C 90 % 9.62 C
2986 29-08-2018 08:45:00 11.3 C 90 % 9.72 C
2987 29-08-2018 08:50:00 11.4 C 90 % 9.82 C
2988 29-08-2018 08:55:00 11.5 C 90 % 9.92 C
2989 29-08-2018 09:00:00 11.6 C 90 % 10.02 C
2990 29-08-2018 09:05:00 11.7 C 90 % 10.12 C
2991 29-08-2018 09:10:00 11.7 C 90 % 10.12 C
2992 29-08-2018 09:15:00 11.8 C 90 % 10.21 C
2993 29-08-2018 09:20:00 11.9 C 90 % 10.31 C
2994 29-08-2018 09:25:00 12.1 C 90 % 10.51 C
2995 29-08-2018 09:30:00 12.2 C 89 % 10.44 C
2996 29-08-2018 09:35:00 12.3 C 90 % 10.71 C
2997 29-08-2018 09:40:00 12.5 C 90 % 10.91 C
2998 29-08-2018 09:45:00 12.7 C 90 % 11.1 C
2999 29-08-2018 09:50:00 12.8 C 89 % 11.03 C
3000 29-08-2018 09:55:00 13.1 C 89 % 11.33 C
Sensor: Nr:Datum:Temp:Feuchte:Taupunkt:
Aussen-T/F 3001 29-08-2018 10:00:00 13.3 C 89 % 11.53 C
3002 29-08-2018 10:05:00 13.6 C 89 % 11.82 C
3003 29-08-2018 10:10:00 13.8 C 88 % 11.85 C
3004 29-08-2018 10:15:00 14.1 C 87 % 11.97 C
3005 29-08-2018 10:20:00 14.4 C 87 % 12.27 C
3006 29-08-2018 10:25:00 14.7 C 86 % 12.38 C
3007 29-08-2018 10:30:00 15 C 86 % 12.68 C
3008 29-08-2018 10:35:00 15.3 C 84 % 12.61 C
3009 29-08-2018 10:40:00 15.7 C 84 % 13.01 C
3010 29-08-2018 10:45:00 15.9 C 83 % 13.02 C
3011 29-08-2018 10:50:00 16.3 C 81 % 13.04 C
3012 29-08-2018 10:55:00 16.5 C 80 % 13.04 C
3013 29-08-2018 11:00:00 16.7 C 78 % 12.85 C
3014 29-08-2018 11:05:00 17.1 C 78 % 13.24 C
3015 29-08-2018 11:10:00 17.4 C 77 % 13.33 C
3016 29-08-2018 11:15:00 17.7 C 75 % 13.22 C
3017 29-08-2018 11:20:00 18.1 C 74 % 13.4 C
3018 29-08-2018 11:25:00 18.4 C 72 % 13.26 C
3019 29-08-2018 11:30:00 18.7 C 72 % 13.55 C
3020 29-08-2018 11:35:00 19.1 C 70 % 13.5 C
3021 29-08-2018 11:40:00 19.4 C 66 % 12.89 C
3022 29-08-2018 11:45:00 19.8 C 68 % 13.73 C
3023 29-08-2018 11:50:00 20.2 C 66 % 13.65 C
3024 29-08-2018 11:55:00 20.7 C 63 % 13.41 C
3025 29-08-2018 12:00:00 21.1 C 62 % 13.54 C
Sensor: Nr:Datum:Temp:Feuchte:Taupunkt:
Aussen-T/F 3026 29-08-2018 12:05:00 21.6 C 61 % 13.76 C
3027 29-08-2018 12:10:00 21.9 C 61 % 14.04 C
3028 29-08-2018 12:15:00 22.2 C 58 % 13.55 C
3029 29-08-2018 12:20:00 22.6 C 56 % 13.38 C
3030 29-08-2018 12:25:00 22.9 C 58 % 14.2 C
3031 29-08-2018 12:30:00 23.2 C 55 % 13.66 C
3032 29-08-2018 12:35:00 23.5 C 55 % 13.94 C
3033 29-08-2018 12:40:00 23.7 C 54 % 13.84 C
3034 29-08-2018 12:45:00 24.1 C 54 % 14.21 C
3035 29-08-2018 12:50:00 24.4 C 53 % 14.2 C
3036 29-08-2018 12:55:00 24.7 C 52 % 14.19 C
3037 29-08-2018 13:00:00 24.9 C 52 % 14.37 C
3038 29-08-2018 13:05:00 25.1 C 50 % 13.95 C
3039 29-08-2018 13:10:00 25.3 C 50 % 14.13 C
3040 29-08-2018 13:15:00 25.6 C 50 % 14.41 C
3041 29-08-2018 13:20:00 25.7 C 50 % 14.5 C
3042 29-08-2018 13:25:00 25.8 C 50 % 14.59 C
3043 29-08-2018 13:30:00 25.9 C 50 % 14.68 C
3044 29-08-2018 13:35:00 25.9 C 49 % 14.37 C
3045 29-08-2018 13:40:00 26.1 C 51 % 15.17 C
3046 29-08-2018 13:45:00 26.1 C 49 % 14.55 C
3047 29-08-2018 13:50:00 26.2 C 48 % 14.32 C
3048 29-08-2018 13:55:00 26.2 C 50 % 14.96 C
3049 29-08-2018 14:00:00 26.2 C 51 % 15.27 C
3050 29-08-2018 14:05:00 26.3 C 50 % 15.05 C
Sensor: Nr:Datum:Temp:Feuchte:Taupunkt:
Aussen-T/F 3051 29-08-2018 14:10:00 26.3 C 48 % 14.42 C
3052 29-08-2018 14:15:00 26.5 C 47 % 14.27 C
3053 29-08-2018 14:20:00 26.7 C 47 % 14.45 C
3054 29-08-2018 14:25:00 26.8 C 47 % 14.55 C
3055 29-08-2018 14:30:00 27 C 46 % 14.39 C
3056 29-08-2018 14:35:00 27.2 C 46 % 14.58 C
3057 29-08-2018 14:40:00 27.3 C 46 % 14.67 C
3058 29-08-2018 14:45:00 27.4 C 45 % 14.42 C
3059 29-08-2018 14:50:00 27.7 C 45 % 14.69 C
3060 29-08-2018 14:55:00 28.1 C 44 % 14.7 C
3061 29-08-2018 15:00:00 28.2 C 43 % 14.44 C
3062 29-08-2018 15:05:00 28.2 C 44 % 14.79 C
3063 29-08-2018 15:10:00 28.1 C 47 % 15.73 C
3064 29-08-2018 15:15:00 27.9 C 44 % 14.52 C
3065 29-08-2018 15:20:00 27.9 C 48 % 15.87 C
3066 29-08-2018 15:25:00 27.8 C 45 % 14.78 C
3067 29-08-2018 15:30:00 27.7 C 47 % 15.36 C
3068 29-08-2018 15:35:00 27.6 C 49 % 15.92 C
3069 29-08-2018 15:40:00 27.3 C 50 % 15.97 C
3070 29-08-2018 15:45:00 26.9 C 49 % 15.28 C
3071 29-08-2018 15:50:00 26.6 C 50 % 15.32 C
3072 29-08-2018 15:55:00 26.2 C 53 % 15.87 C
3073 29-08-2018 16:00:00 25.2 C 63 % 17.65 C
3074 29-08-2018 16:05:00 23.9 C 71 % 18.32 C
3075 29-08-2018 16:10:00 22.8 C 75 % 18.14 C
Sensor: Nr:Datum:Temp:Feuchte:Taupunkt:
Aussen-T/F 3076 29-08-2018 16:15:00 22.1 C 79 % 18.29 C
3077 29-08-2018 16:20:00 21.6 C 82 % 18.39 C
3078 29-08-2018 16:25:00 21.3 C 84 % 18.49 C
3079 29-08-2018 16:30:00 21.2 C 84 % 18.39 C
3080 29-08-2018 16:35:00 20.9 C 85 % 18.28 C
3081 29-08-2018 16:40:00 20.8 C 86 % 18.37 C
3082 29-08-2018 16:45:00 20.7 C 87 % 18.46 C
3083 29-08-2018 16:50:00 20.6 C 87 % 18.36 C
3084 29-08-2018 16:55:00 20.4 C 88 % 18.34 C
3085 29-08-2018 17:00:00 20.3 C 88 % 18.25 C
3086 29-08-2018 17:05:00 20.3 C 88 % 18.25 C
3087 29-08-2018 17:10:00 20.2 C 88 % 18.15 C
3088 29-08-2018 17:15:00 20.1 C 88 % 18.05 C
3089 29-08-2018 17:20:00 20.1 C 89 % 18.23 C
3090 29-08-2018 17:25:00 20 C 89 % 18.13 C
3091 29-08-2018 17:30:00 20 C 89 % 18.13 C
3092 29-08-2018 17:35:00 19.9 C 89 % 18.03 C
3093 29-08-2018 17:40:00 19.9 C 90 % 18.21 C
3094 29-08-2018 17:45:00 20 C 90 % 18.31 C
3095 29-08-2018 17:50:00 20.1 C 90 % 18.41 C
3096 29-08-2018 17:55:00 20.2 C 91 % 18.68 C
3097 29-08-2018 18:00:00 20.4 C 91 % 18.88 C
3098 29-08-2018 18:05:00 20.8 C 92 % 19.45 C
3099 29-08-2018 18:10:00 21.5 C 91 % 19.97 C
3100 29-08-2018 18:15:00 21.9 C 88 % 19.82 C
Sensor: Nr:Datum:Temp:Feuchte:Taupunkt:
Aussen-T/F 3101 29-08-2018 18:20:00 22.4 C 86 % 19.94 C
3102 29-08-2018 18:25:00 22.8 C 83 % 19.76 C
3103 29-08-2018 18:30:00 23 C 84 % 20.15 C
3104 29-08-2018 18:35:00 23.1 C 83 % 20.05 C
3105 29-08-2018 18:40:00 22.9 C 82 % 19.66 C
3106 29-08-2018 18:45:00 22.6 C 81 % 19.17 C
3107 29-08-2018 18:50:00 22.2 C 82 % 18.98 C
3108 29-08-2018 18:55:00 21.9 C 82 % 18.69 C
3109 29-08-2018 19:00:00 21.6 C 83 % 18.59 C
3110 29-08-2018 19:05:00 21.2 C 84 % 18.39 C
3111 29-08-2018 19:10:00 20.9 C 85 % 18.28 C
3112 29-08-2018 19:15:00 20.7 C 86 % 18.27 C
3113 29-08-2018 19:20:00 20.5 C 86 % 18.08 C
3114 29-08-2018 19:25:00 20.3 C 87 % 18.06 C
3115 29-08-2018 19:30:00 20.2 C 87 % 17.97 C
3116 29-08-2018 19:35:00 20 C 87 % 17.77 C
3117 29-08-2018 19:40:00 19.9 C 88 % 17.85 C
3118 29-08-2018 19:45:00 19.8 C 88 % 17.75 C
3119 29-08-2018 19:50:00 19.7 C 89 % 17.84 C
3120 29-08-2018 19:55:00 19.6 C 89 % 17.74 C
3121 29-08-2018 20:00:00 19.6 C 89 % 17.74 C
3122 29-08-2018 20:05:00 19.5 C 89 % 17.64 C
3123 29-08-2018 20:10:00 19.4 C 90 % 17.72 C
3124 29-08-2018 20:15:00 19.4 C 90 % 17.72 C
3125 29-08-2018 20:20:00 19.3 C 90 % 17.62 C
Sensor: Nr:Datum:Temp:Feuchte:Taupunkt:
Aussen-T/F 3126 29-08-2018 20:25:00 19.3 C 90 % 17.62 C
3127 29-08-2018 20:30:00 19.3 C 90 % 17.62 C
3128 29-08-2018 20:35:00 19.3 C 91 % 17.79 C
3129 29-08-2018 20:40:00 19.3 C 91 % 17.79 C
3130 29-08-2018 20:45:00 19.3 C 92 % 17.97 C
3131 29-08-2018 20:50:00 19.3 C 92 % 17.97 C
3132 29-08-2018 20:55:00 19 C 91 % 17.5 C
3133 29-08-2018 21:00:00 18.7 C 91 % 17.2 C
3134 29-08-2018 21:05:00 18.6 C 91 % 17.1 C
3135 29-08-2018 21:10:00 18.4 C 91 % 16.9 C
3136 29-08-2018 21:15:00 18.3 C 92 % 16.98 C
3137 29-08-2018 21:20:00 18.2 C 92 % 16.88 C
3138 29-08-2018 21:25:00 18.2 C 92 % 16.88 C
3139 29-08-2018 21:30:00 18.1 C 92 % 16.78 C
3140 29-08-2018 21:35:00 18 C 92 % 16.68 C
3141 29-08-2018 21:40:00 17.9 C 92 % 16.58 C
3142 29-08-2018 21:45:00 17.9 C 92 % 16.58 C
3143 29-08-2018 21:50:00 17.9 C 93 % 16.75 C
3144 29-08-2018 21:55:00 17.8 C 93 % 16.65 C
3145 29-08-2018 22:00:00 17.8 C 93 % 16.65 C
3146 29-08-2018 22:05:00 17.8 C 93 % 16.65 C
3147 29-08-2018 22:10:00 17.8 C 93 % 16.65 C
3148 29-08-2018 22:15:00 17.7 C 93 % 16.55 C
3149 29-08-2018 22:20:00 17.7 C 93 % 16.55 C
3150 29-08-2018 22:25:00 17.7 C 93 % 16.55 C
Sensor: Nr:Datum:Temp:Feuchte:Taupunkt:
Aussen-T/F 3151 29-08-2018 22:30:00 17.7 C 94 % 16.72 C
3152 29-08-2018 22:35:00 17.7 C 93 % 16.55 C
3153 29-08-2018 22:40:00 17.7 C 94 % 16.72 C
3154 29-08-2018 22:45:00 17.7 C 94 % 16.72 C
3155 29-08-2018 22:50:00 17.6 C 94 % 16.62 C
3156 29-08-2018 22:55:00 17.6 C 94 % 16.62 C
3157 29-08-2018 23:00:00 17.6 C 94 % 16.62 C
3158 29-08-2018 23:05:00 17.5 C 94 % 16.52 C
3159 29-08-2018 23:10:00 17.4 C 94 % 16.42 C
3160 29-08-2018 23:15:00 17.3 C 94 % 16.33 C
3161 29-08-2018 23:20:00 17.3 C 94 % 16.33 C
3162 29-08-2018 23:25:00 17.2 C 94 % 16.23 C
3163 29-08-2018 23:30:00 17.2 C 94 % 16.23 C
3164 29-08-2018 23:35:00 17.2 C 94 % 16.23 C
3165 29-08-2018 23:40:00 17.2 C 94 % 16.23 C
3166 29-08-2018 23:45:00 17.2 C 94 % 16.23 C
3167 29-08-2018 23:50:00 17.2 C 94 % 16.23 C
3168 29-08-2018 23:55:00 17.2 C 94 % 16.23 C
3169 30-08-2018 00:00:00 17.2 C 94 % 16.23 C
3170 30-08-2018 00:05:00 17.2 C 94 % 16.23 C
3171 30-08-2018 00:10:00 17.2 C 94 % 16.23 C
3172 30-08-2018 00:15:00 17.2 C 95 % 16.39 C
3173 30-08-2018 00:20:00 17.3 C 95 % 16.49 C
3174 30-08-2018 00:25:00 17.3 C 95 % 16.49 C
3175 30-08-2018 00:30:00 17.2 C 95 % 16.39 C
Sensor: Nr:Datum:Temp:Feuchte:Taupunkt:
Aussen-T/F 3176 30-08-2018 00:35:00 17.2 C 95 % 16.39 C
3177 30-08-2018 00:40:00 17.2 C 95 % 16.39 C
3178 30-08-2018 00:45:00 17.1 C 95 % 16.29 C
3179 30-08-2018 00:50:00 17.1 C 94 % 16.13 C
3180 30-08-2018 00:55:00 16.9 C 94 % 15.93 C
3181 30-08-2018 01:00:00 16.9 C 94 % 15.93 C
3182 30-08-2018 01:05:00 16.9 C 95 % 16.09 C
3183 30-08-2018 01:10:00 16.8 C 95 % 15.99 C
3184 30-08-2018 01:15:00 16.7 C 95 % 15.9 C
3185 30-08-2018 01:20:00 16.7 C 94 % 15.73 C
3186 30-08-2018 01:25:00 16.6 C 94 % 15.63 C
3187 30-08-2018 01:30:00 16.6 C 94 % 15.63 C
3188 30-08-2018 01:35:00 16.4 C 94 % 15.43 C
3189 30-08-2018 01:40:00 16.3 C 94 % 15.33 C
3190 30-08-2018 01:45:00 16.2 C 93 % 15.07 C
3191 30-08-2018 01:50:00 16.1 C 93 % 14.97 C
3192 30-08-2018 01:55:00 16 C 93 % 14.87 C
3193 30-08-2018 02:00:00 16 C 93 % 14.87 C
3194 30-08-2018 02:05:00 15.9 C 92 % 14.6 C
3195 30-08-2018 02:10:00 16 C 92 % 14.7 C
3196 30-08-2018 02:15:00 16 C 92 % 14.7 C
3197 30-08-2018 02:20:00 16 C 92 % 14.7 C
3198 30-08-2018 02:25:00 15.9 C 92 % 14.6 C
3199 30-08-2018 02:30:00 15.9 C 91 % 14.43 C
3200 30-08-2018 02:35:00 15.9 C 92 % 14.6 C
Sensor: Nr:Datum:Temp:Feuchte:Taupunkt:
Aussen-T/F 3201 30-08-2018 02:40:00 15.9 C 92 % 14.6 C
3202 30-08-2018 02:45:00 15.9 C 92 % 14.6 C
3203 30-08-2018 02:50:00 15.9 C 92 % 14.6 C
3204 30-08-2018 02:55:00 15.9 C 92 % 14.6 C
3205 30-08-2018 03:00:00 15.9 C 91 % 14.43 C
3206 30-08-2018 03:05:00 15.9 C 91 % 14.43 C
3207 30-08-2018 03:10:00 15.9 C 91 % 14.43 C
3208 30-08-2018 03:15:00 15.9 C 91 % 14.43 C
3209 30-08-2018 03:20:00 15.9 C 91 % 14.43 C
3210 30-08-2018 03:25:00 15.9 C 91 % 14.43 C
3211 30-08-2018 03:30:00 15.9 C 91 % 14.43 C
3212 30-08-2018 03:35:00 15.9 C 91 % 14.43 C
3213 30-08-2018 03:40:00 15.8 C 91 % 14.33 C
3214 30-08-2018 03:45:00 15.8 C 91 % 14.33 C
3215 30-08-2018 03:50:00 15.8 C 91 % 14.33 C
3216 30-08-2018 03:55:00 15.7 C 91 % 14.24 C
3217 30-08-2018 04:00:00 15.7 C 90 % 14.06 C
3218 30-08-2018 04:05:00 15.6 C 90 % 13.97 C
3219 30-08-2018 04:10:00 15.6 C 90 % 13.97 C
3220 30-08-2018 04:15:00 15.6 C 90 % 13.97 C
3221 30-08-2018 04:20:00 15.6 C 90 % 13.97 C
3222 30-08-2018 04:25:00 15.6 C 90 % 13.97 C
3223 30-08-2018 04:30:00 15.6 C 90 % 13.97 C
3224 30-08-2018 04:35:00 15.6 C 90 % 13.97 C
3225 30-08-2018 04:40:00 15.6 C 90 % 13.97 C
Sensor: Nr:Datum:Temp:Feuchte:Taupunkt:
Aussen-T/F 3226 30-08-2018 04:45:00 15.6 C 90 % 13.97 C
3227 30-08-2018 04:50:00 15.6 C 90 % 13.97 C
3228 30-08-2018 04:55:00 15.6 C 90 % 13.97 C
3229 30-08-2018 05:00:00 15.5 C 90 % 13.87 C
3230 30-08-2018 05:05:00 15.5 C 90 % 13.87 C
3231 30-08-2018 05:10:00 15.5 C 90 % 13.87 C
3232 30-08-2018 05:15:00 15.4 C 90 % 13.77 C
3233 30-08-2018 05:20:00 15.4 C 90 % 13.77 C
3234 30-08-2018 05:25:00 15.4 C 90 % 13.77 C
3235 30-08-2018 05:30:00 15.4 C 90 % 13.77 C
3236 30-08-2018 05:35:00 15.4 C 89 % 13.6 C
3237 30-08-2018 05:40:00 15.3 C 89 % 13.5 C
3238 30-08-2018 05:45:00 15.3 C 89 % 13.5 C
3239 30-08-2018 05:50:00 15.3 C 89 % 13.5 C
3240 30-08-2018 05:55:00 15.3 C 89 % 13.5 C
3241 30-08-2018 06:00:00 15.2 C 90 % 13.57 C
3242 30-08-2018 06:05:00 15.2 C 90 % 13.57 C
3243 30-08-2018 06:10:00 15.2 C 90 % 13.57 C
3244 30-08-2018 06:15:00 15.2 C 90 % 13.57 C
3245 30-08-2018 06:20:00 15.1 C 90 % 13.47 C
3246 30-08-2018 06:25:00 15.1 C 90 % 13.47 C
3247 30-08-2018 06:30:00 15.2 C 90 % 13.57 C
3248 30-08-2018 06:35:00 15.1 C 90 % 13.47 C
3249 30-08-2018 06:40:00 15.1 C 90 % 13.47 C
3250 30-08-2018 06:45:00 15.1 C 90 % 13.47 C
Sensor: Nr:Datum:Temp:Feuchte:Taupunkt:
Aussen-T/F 3251 30-08-2018 06:50:00 15.1 C 90 % 13.47 C
3252 30-08-2018 06:55:00 15.1 C 90 % 13.47 C
3253 30-08-2018 07:00:00 15.1 C 90 % 13.47 C
3254 30-08-2018 07:05:00 15.1 C 90 % 13.47 C
3255 30-08-2018 07:10:00 15.1 C 90 % 13.47 C
3256 30-08-2018 07:15:00 15.1 C 90 % 13.47 C
3257 30-08-2018 07:20:00 15.1 C 90 % 13.47 C
3258 30-08-2018 07:25:00 15.1 C 90 % 13.47 C
3259 30-08-2018 07:30:00 15.1 C 90 % 13.47 C
3260 30-08-2018 07:35:00 15.1 C 90 % 13.47 C
3261 30-08-2018 07:40:00 15.1 C 90 % 13.47 C
3262 30-08-2018 07:45:00 15.1 C 89 % 13.3 C
3263 30-08-2018 07:50:00 15.2 C 89 % 13.4 C
3264 30-08-2018 07:55:00 15.2 C 89 % 13.4 C
3265 30-08-2018 08:00:00 15.3 C 89 % 13.5 C
3266 30-08-2018 08:05:00 15.3 C 89 % 13.5 C
3267 30-08-2018 08:10:00 15.3 C 89 % 13.5 C
3268 30-08-2018 08:15:00 15.4 C 89 % 13.6 C
3269 30-08-2018 08:20:00 15.4 C 89 % 13.6 C
3270 30-08-2018 08:25:00 15.5 C 88 % 13.52 C
3271 30-08-2018 08:30:00 15.6 C 88 % 13.62 C
3272 30-08-2018 08:35:00 15.6 C 88 % 13.62 C
3273 30-08-2018 08:40:00 15.7 C 88 % 13.72 C
3274 30-08-2018 08:45:00 15.8 C 89 % 13.99 C
3275 30-08-2018 08:50:00 15.9 C 88 % 13.92 C
Sensor: Nr:Datum:Temp:Feuchte:Taupunkt:
Aussen-T/F 3276 30-08-2018 08:55:00 16 C 88 % 14.01 C
3277 30-08-2018 09:00:00 16 C 87 % 13.84 C
3278 30-08-2018 09:05:00 16.1 C 87 % 13.94 C
3279 30-08-2018 09:10:00 16.1 C 87 % 13.94 C
3280 30-08-2018 09:15:00 16.1 C 86 % 13.76 C
3281 30-08-2018 09:20:00 16.2 C 86 % 13.86 C
3282 30-08-2018 09:25:00 16.2 C 86 % 13.86 C
3283 30-08-2018 09:30:00 16.2 C 86 % 13.86 C
3284 30-08-2018 09:35:00 16.2 C 86 % 13.86 C
3285 30-08-2018 09:40:00 16.2 C 86 % 13.86 C
3286 30-08-2018 09:45:00 16.2 C 86 % 13.86 C
3287 30-08-2018 09:50:00 16.2 C 86 % 13.86 C
3288 30-08-2018 09:55:00 16.3 C 86 % 13.95 C
3289 30-08-2018 10:00:00 16.3 C 85 % 13.77 C
3290 30-08-2018 10:05:00 16.4 C 84 % 13.69 C
3291 30-08-2018 10:10:00 16.5 C 85 % 13.97 C
3292 30-08-2018 10:15:00 16.7 C 84 % 13.98 C
3293 30-08-2018 10:20:00 16.8 C 82 % 13.71 C
3294 30-08-2018 10:25:00 16.9 C 82 % 13.81 C
3295 30-08-2018 10:30:00 17.1 C 81 % 13.82 C
3296 30-08-2018 10:35:00 17.2 C 81 % 13.91 C
3297 30-08-2018 10:40:00 17.3 C 81 % 14.01 C
3298 30-08-2018 10:45:00 17.3 C 80 % 13.82 C
3299 30-08-2018 10:50:00 17.3 C 80 % 13.82 C
3300 30-08-2018 10:55:00 17.3 C 80 % 13.82 C
Sensor: Nr:Datum:Temp:Feuchte:Taupunkt:
Aussen-T/F 3301 30-08-2018 11:00:00 17.4 C 80 % 13.92 C
3302 30-08-2018 11:05:00 17.5 C 80 % 14.01 C
3303 30-08-2018 11:10:00 17.6 C 79 % 13.92 C
3304 30-08-2018 11:15:00 17.6 C 80 % 14.11 C
3305 30-08-2018 11:20:00 17.7 C 79 % 14.01 C
3306 30-08-2018 11:25:00 17.8 C 79 % 14.11 C
3307 30-08-2018 11:30:00 17.8 C 78 % 13.91 C
3308 30-08-2018 11:35:00 17.8 C 78 % 13.91 C
3309 30-08-2018 11:40:00 17.7 C 76 % 13.42 C
3310 30-08-2018 11:45:00 17.7 C 76 % 13.42 C
3311 30-08-2018 11:50:00 17.8 C 76 % 13.52 C
3312 30-08-2018 11:55:00 17.9 C 75 % 13.41 C
3313 30-08-2018 12:00:00 18 C 76 % 13.71 C
3314 30-08-2018 12:05:00 18.1 C 75 % 13.6 C
3315 30-08-2018 12:10:00 18.2 C 76 % 13.9 C
3316 30-08-2018 12:15:00 18.3 C 76 % 14 C
3317 30-08-2018 12:20:00 18.4 C 75 % 13.89 C
3318 30-08-2018 12:25:00 18.5 C 74 % 13.78 C
3319 30-08-2018 12:30:00 18.6 C 74 % 13.88 C
3320 30-08-2018 12:35:00 18.8 C 73 % 13.86 C
3321 30-08-2018 12:40:00 18.9 C 73 % 13.96 C
3322 30-08-2018 12:45:00 19.1 C 72 % 13.94 C
3323 30-08-2018 12:50:00 19.1 C 71 % 13.72 C
3324 30-08-2018 12:55:00 19.2 C 70 % 13.6 C
3325 30-08-2018 13:00:00 19.1 C 69 % 13.28 C
Sensor: Nr:Datum:Temp:Feuchte:Taupunkt:
Aussen-T/F 3326 30-08-2018 13:05:00 19.1 C 68 % 13.06 C
3327 30-08-2018 13:10:00 18.9 C 67 % 12.64 C
3328 30-08-2018 13:15:00 18.9 C 67 % 12.64 C
3329 30-08-2018 13:20:00 19.1 C 67 % 12.83 C
3330 30-08-2018 13:25:00 19.3 C 63 % 12.09 C
3331 30-08-2018 13:30:00 19.4 C 61 % 11.69 C
3332 30-08-2018 13:35:00 19.5 C 62 % 12.03 C
3333 30-08-2018 13:40:00 19.4 C 63 % 12.18 C
3334 30-08-2018 13:45:00 19.5 C 64 % 12.51 C
3335 30-08-2018 13:50:00 19.6 C 65 % 12.84 C
3336 30-08-2018 13:55:00 19.6 C 59 % 11.37 C
3337 30-08-2018 14:00:00 19.4 C 59 % 11.19 C
3338 30-08-2018 14:05:00 19.4 C 60 % 11.44 C
3339 30-08-2018 14:10:00 19.4 C 63 % 12.18 C
3340 30-08-2018 14:15:00 19.6 C 63 % 12.37 C
3341 30-08-2018 14:20:00 19.6 C 62 % 12.13 C
3342 30-08-2018 14:25:00 19.6 C 65 % 12.84 C
3343 30-08-2018 14:30:00 19.7 C 62 % 12.22 C
3344 30-08-2018 14:35:00 19.8 C 63 % 12.56 C
3345 30-08-2018 14:40:00 20 C 60 % 12 C
3346 30-08-2018 14:45:00 20.1 C 60 % 12.1 C
3347 30-08-2018 14:50:00 20.2 C 58 % 11.68 C
3348 30-08-2018 14:55:00 20.5 C 57 % 11.7 C
3349 30-08-2018 15:00:00 20.6 C 56 % 11.52 C
3350 30-08-2018 15:05:00 20.7 C 55 % 11.34 C
Sensor: Nr:Datum:Temp:Feuchte:Taupunkt:
Aussen-T/F 3351 30-08-2018 15:10:00 20.7 C 53 % 10.78 C
3352 30-08-2018 15:15:00 20.6 C 54 % 10.97 C
3353 30-08-2018 15:20:00 20.6 C 54 % 10.97 C
3354 30-08-2018 15:25:00 20.5 C 54 % 10.88 C
3355 30-08-2018 15:30:00 20.4 C 53 % 10.51 C
3356 30-08-2018 15:35:00 20.4 C 54 % 10.79 C
3357 30-08-2018 15:40:00 20.6 C 53 % 10.69 C
3358 30-08-2018 15:45:00 20.6 C 53 % 10.69 C
3359 30-08-2018 15:50:00 20.4 C 53 % 10.51 C
3360 30-08-2018 15:55:00 20.3 C 54 % 10.69 C
3361 30-08-2018 16:00:00 20.3 C 56 % 11.24 C
3362 30-08-2018 16:05:00 20.3 C 54 % 10.69 C
3363 30-08-2018 16:10:00 20.4 C 54 % 10.79 C
3364 30-08-2018 16:15:00 20.4 C 53 % 10.51 C
3365 30-08-2018 16:20:00 20.6 C 53 % 10.69 C
3366 30-08-2018 16:25:00 20.8 C 52 % 10.59 C
3367 30-08-2018 16:30:00 21.2 C 50 % 10.37 C
3368 30-08-2018 16:35:00 21.3 C 50 % 10.46 C
3369 30-08-2018 16:40:00 21.5 C 50 % 10.65 C
3370 30-08-2018 16:45:00 21.4 C 49 % 10.25 C
3371 30-08-2018 16:50:00 21.6 C 50 % 10.74 C
3372 30-08-2018 16:55:00 21.6 C 48 % 10.13 C
3373 30-08-2018 17:00:00 21.4 C 49 % 10.25 C
3374 30-08-2018 17:05:00 21.6 C 50 % 10.74 C
3375 30-08-2018 17:10:00 21.8 C 47 % 9.99 C
Sensor: Nr:Datum:Temp:Feuchte:Taupunkt:
Aussen-T/F 3376 30-08-2018 17:15:00 21.9 C 48 % 10.4 C
3377 30-08-2018 17:20:00 21.9 C 47 % 10.09 C
3378 30-08-2018 17:25:00 21.9 C 48 % 10.4 C
3379 30-08-2018 17:30:00 21.9 C 47 % 10.09 C
3380 30-08-2018 17:35:00 21.8 C 48 % 10.31 C
3381 30-08-2018 17:40:00 22.1 C 47 % 10.27 C
3382 30-08-2018 17:45:00 22.2 C 47 % 10.36 C
3383 30-08-2018 17:50:00 22.2 C 46 % 10.04 C
3384 30-08-2018 17:55:00 22.2 C 47 % 10.36 C
3385 30-08-2018 18:00:00 21.9 C 46 % 9.77 C
3386 30-08-2018 18:05:00 21.7 C 46 % 9.58 C
3387 30-08-2018 18:10:00 21.4 C 47 % 9.63 C
3388 30-08-2018 18:15:00 21.4 C 46 % 9.31 C
3389 30-08-2018 18:20:00 21.3 C 46 % 9.22 C
3390 30-08-2018 18:25:00 21.3 C 46 % 9.22 C
3391 30-08-2018 18:30:00 21.3 C 47 % 9.54 C
3392 30-08-2018 18:35:00 21.4 C 46 % 9.31 C
3393 30-08-2018 18:40:00 21.3 C 46 % 9.22 C
3394 30-08-2018 18:45:00 21.2 C 46 % 9.13 C
3395 30-08-2018 18:50:00 21 C 48 % 9.58 C
3396 30-08-2018 18:55:00 20.9 C 50 % 10.1 C
3397 30-08-2018 19:00:00 20.9 C 49 % 9.79 C
3398 30-08-2018 19:05:00 20.8 C 46 % 8.77 C
3399 30-08-2018 19:10:00 20.6 C 48 % 9.21 C
3400 30-08-2018 19:15:00 20.4 C 47 % 8.72 C
Sensor: Nr:Datum:Temp:Feuchte:Taupunkt:
Aussen-T/F 3401 30-08-2018 19:20:00 20.2 C 48 % 8.85 C
3402 30-08-2018 19:25:00 20.1 C 48 % 8.76 C
3403 30-08-2018 19:30:00 19.9 C 49 % 8.88 C
3404 30-08-2018 19:35:00 19.7 C 49 % 8.7 C
3405 30-08-2018 19:40:00 19.6 C 49 % 8.6 C
3406 30-08-2018 19:45:00 19.4 C 49 % 8.42 C
3407 30-08-2018 19:50:00 19.3 C 49 % 8.33 C
3408 30-08-2018 19:55:00 19.2 C 50 % 8.53 C
3409 30-08-2018 20:00:00 19 C 52 % 8.93 C
3410 30-08-2018 20:05:00 18.7 C 55 % 9.48 C
3411 30-08-2018 20:10:00 18.3 C 58 % 9.9 C
3412 30-08-2018 20:15:00 17.9 C 59 % 9.78 C
3413 30-08-2018 20:20:00 17.5 C 58 % 9.15 C
3414 30-08-2018 20:25:00 17.2 C 62 % 9.86 C
3415 30-08-2018 20:30:00 16.8 C 64 % 9.96 C
3416 30-08-2018 20:35:00 16.6 C 64 % 9.77 C
3417 30-08-2018 20:40:00 16.3 C 65 % 9.71 C
3418 30-08-2018 20:45:00 15.9 C 65 % 9.34 C
3419 30-08-2018 20:50:00 15.7 C 66 % 9.37 C
3420 30-08-2018 20:55:00 15.5 C 67 % 9.41 C
3421 30-08-2018 21:00:00 15.3 C 67 % 9.21 C
3422 30-08-2018 21:05:00 15.3 C 68 % 9.43 C
3423 30-08-2018 21:10:00 15.2 C 68 % 9.34 C
3424 30-08-2018 21:15:00 15.1 C 69 % 9.46 C
3425 30-08-2018 21:20:00 15 C 70 % 9.58 C
Sensor: Nr:Datum:Temp:Feuchte:Taupunkt:
Aussen-T/F 3426 30-08-2018 21:25:00 14.9 C 70 % 9.48 C
3427 30-08-2018 21:30:00 14.8 C 70 % 9.39 C
3428 30-08-2018 21:35:00 14.8 C 71 % 9.6 C
3429 30-08-2018 21:40:00 14.7 C 71 % 9.5 C
3430 30-08-2018 21:45:00 14.6 C 71 % 9.41 C
3431 30-08-2018 21:50:00 14.6 C 71 % 9.41 C
3432 30-08-2018 21:55:00 14.5 C 73 % 9.72 C
3433 30-08-2018 22:00:00 14.4 C 74 % 9.83 C
3434 30-08-2018 22:05:00 14.3 C 73 % 9.53 C
3435 30-08-2018 22:10:00 14.2 C 74 % 9.64 C
3436 30-08-2018 22:15:00 14.1 C 75 % 9.74 C
3437 30-08-2018 22:20:00 13.9 C 75 % 9.55 C
3438 30-08-2018 22:25:00 13.7 C 76 % 9.55 C
3439 30-08-2018 22:30:00 13.5 C 77 % 9.55 C
3440 30-08-2018 22:35:00 13.3 C 78 % 9.55 C
3441 30-08-2018 22:40:00 13.2 C 78 % 9.45 C
3442 30-08-2018 22:45:00 13 C 79 % 9.45 C
3443 30-08-2018 22:50:00 12.8 C 79 % 9.25 C
3444 30-08-2018 22:55:00 12.7 C 79 % 9.16 C
3445 30-08-2018 23:00:00 12.7 C 80 % 9.34 C
3446 30-08-2018 23:05:00 12.6 C 80 % 9.25 C
3447 30-08-2018 23:10:00 12.6 C 81 % 9.43 C
3448 30-08-2018 23:15:00 12.5 C 80 % 9.15 C
3449 30-08-2018 23:20:00 12.4 C 81 % 9.23 C
3450 30-08-2018 23:25:00 12.3 C 81 % 9.14 C
Sensor: Nr:Datum:Temp:Feuchte:Taupunkt:
Aussen-T/F 3451 30-08-2018 23:30:00 12.3 C 81 % 9.14 C
3452 30-08-2018 23:35:00 12.2 C 82 % 9.22 C
3453 30-08-2018 23:40:00 12.2 C 82 % 9.22 C
3454 30-08-2018 23:45:00 12.2 C 82 % 9.22 C
3455 30-08-2018 23:50:00 12.2 C 82 % 9.22 C
3456 30-08-2018 23:55:00 12.2 C 82 % 9.22 C
3457 31-08-2018 00:00:00 12.1 C 82 % 9.12 C
3458 31-08-2018 00:05:00 12.1 C 83 % 9.3 C
3459 31-08-2018 00:10:00 12.1 C 83 % 9.3 C
3460 31-08-2018 00:15:00 12.1 C 83 % 9.3 C
3461 31-08-2018 00:20:00 12.1 C 84 % 9.48 C
3462 31-08-2018 00:25:00 12.1 C 84 % 9.48 C
3463 31-08-2018 00:30:00 12 C 84 % 9.38 C
3464 31-08-2018 00:35:00 12 C 83 % 9.21 C
3465 31-08-2018 00:40:00 11.9 C 83 % 9.11 C
3466 31-08-2018 00:45:00 11.9 C 84 % 9.29 C
3467 31-08-2018 00:50:00 11.8 C 84 % 9.19 C
3468 31-08-2018 00:55:00 11.7 C 84 % 9.09 C
3469 31-08-2018 01:00:00 11.7 C 84 % 9.09 C
3470 31-08-2018 01:05:00 11.6 C 84 % 8.99 C
3471 31-08-2018 01:10:00 11.6 C 85 % 9.17 C
3472 31-08-2018 01:15:00 11.5 C 85 % 9.07 C
3473 31-08-2018 01:20:00 11.5 C 85 % 9.07 C
3474 31-08-2018 01:25:00 11.4 C 85 % 8.97 C
3475 31-08-2018 01:30:00 11.4 C 85 % 8.97 C
Sensor: Nr:Datum:Temp:Feuchte:Taupunkt:
Aussen-T/F 3476 31-08-2018 01:35:00 11.3 C 86 % 9.05 C
3477 31-08-2018 01:40:00 11.3 C 86 % 9.05 C
3478 31-08-2018 01:45:00 11.3 C 86 % 9.05 C
3479 31-08-2018 01:50:00 11.3 C 86 % 9.05 C
3480 31-08-2018 01:55:00 11.3 C 86 % 9.05 C
3481 31-08-2018 02:00:00 11.3 C 87 % 9.22 C
3482 31-08-2018 02:05:00 11.3 C 87 % 9.22 C
3483 31-08-2018 02:10:00 11.4 C 87 % 9.32 C
3484 31-08-2018 02:15:00 11.4 C 87 % 9.32 C
3485 31-08-2018 02:20:00 11.4 C 87 % 9.32 C
3486 31-08-2018 02:25:00 11.4 C 87 % 9.32 C
3487 31-08-2018 02:30:00 11.4 C 87 % 9.32 C
3488 31-08-2018 02:35:00 11.4 C 87 % 9.32 C
3489 31-08-2018 02:40:00 11.4 C 87 % 9.32 C
3490 31-08-2018 02:45:00 11.4 C 87 % 9.32 C
3491 31-08-2018 02:50:00 11.4 C 87 % 9.32 C
3492 31-08-2018 02:55:00 11.4 C 87 % 9.32 C
3493 31-08-2018 03:00:00 11.4 C 87 % 9.32 C
3494 31-08-2018 03:05:00 11.3 C 87 % 9.22 C
3495 31-08-2018 03:10:00 11.3 C 87 % 9.22 C
3496 31-08-2018 03:15:00 11.3 C 88 % 9.39 C
3497 31-08-2018 03:20:00 11.3 C 88 % 9.39 C
3498 31-08-2018 03:25:00 11.2 C 88 % 9.29 C
3499 31-08-2018 03:30:00 11.2 C 88 % 9.29 C
3500 31-08-2018 03:35:00 11.2 C 88 % 9.29 C
Sensor: Nr:Datum:Temp:Feuchte:Taupunkt:
Aussen-T/F 3501 31-08-2018 03:40:00 11.2 C 88 % 9.29 C
3502 31-08-2018 03:45:00 11.2 C 88 % 9.29 C
3503 31-08-2018 03:50:00 11.2 C 88 % 9.29 C
3504 31-08-2018 03:55:00 11.2 C 88 % 9.29 C
3505 31-08-2018 04:00:00 11.2 C 88 % 9.29 C
3506 31-08-2018 04:05:00 11.2 C 88 % 9.29 C
3507 31-08-2018 04:10:00 11.2 C 88 % 9.29 C
3508 31-08-2018 04:15:00 11.2 C 88 % 9.29 C
3509 31-08-2018 04:20:00 11.2 C 89 % 9.46 C
3510 31-08-2018 04:25:00 11.2 C 89 % 9.46 C
3511 31-08-2018 04:30:00 11.2 C 89 % 9.46 C
3512 31-08-2018 04:35:00 11.2 C 89 % 9.46 C
3513 31-08-2018 04:40:00 11.2 C 89 % 9.46 C
3514 31-08-2018 04:45:00 11.1 C 89 % 9.36 C
3515 31-08-2018 04:50:00 11.1 C 89 % 9.36 C
3516 31-08-2018 04:55:00 11.1 C 89 % 9.36 C
3517 31-08-2018 05:00:00 11.1 C 89 % 9.36 C
3518 31-08-2018 05:05:00 11 C 89 % 9.26 C
3519 31-08-2018 05:10:00 11 C 89 % 9.26 C
3520 31-08-2018 05:15:00 11 C 89 % 9.26 C
3521 31-08-2018 05:20:00 11 C 90 % 9.42 C
3522 31-08-2018 05:25:00 11 C 90 % 9.42 C
3523 31-08-2018 05:30:00 11 C 90 % 9.42 C
3524 31-08-2018 05:35:00 11 C 90 % 9.42 C
3525 31-08-2018 05:40:00 11 C 90 % 9.42 C
Sensor: Nr:Datum:Temp:Feuchte:Taupunkt:
Aussen-T/F 3526 31-08-2018 05:45:00 11.1 C 90 % 9.52 C
3527 31-08-2018 05:50:00 11.1 C 90 % 9.52 C
3528 31-08-2018 05:55:00 11.1 C 90 % 9.52 C
3529 31-08-2018 06:00:00 11.2 C 90 % 9.62 C
3530 31-08-2018 06:05:00 11.2 C 90 % 9.62 C
3531 31-08-2018 06:10:00 11.2 C 90 % 9.62 C
3532 31-08-2018 06:15:00 11.3 C 90 % 9.72 C
3533 31-08-2018 06:20:00 11.3 C 90 % 9.72 C
3534 31-08-2018 06:25:00 11.3 C 90 % 9.72 C
3535 31-08-2018 06:30:00 11.3 C 90 % 9.72 C
3536 31-08-2018 06:35:00 11.3 C 90 % 9.72 C
3537 31-08-2018 06:40:00 11.3 C 90 % 9.72 C
3538 31-08-2018 06:45:00 11.3 C 90 % 9.72 C
3539 31-08-2018 06:50:00 11.3 C 90 % 9.72 C
3540 31-08-2018 06:55:00 11.3 C 90 % 9.72 C
3541 31-08-2018 07:00:00 11.3 C 90 % 9.72 C
3542 31-08-2018 07:05:00 11.3 C 90 % 9.72 C
3543 31-08-2018 07:10:00 11.3 C 90 % 9.72 C
3544 31-08-2018 07:15:00 11.3 C 90 % 9.72 C
3545 31-08-2018 07:20:00 11.4 C 90 % 9.82 C
3546 31-08-2018 07:25:00 11.4 C 91 % 9.98 C
3547 31-08-2018 07:30:00 11.4 C 91 % 9.98 C
3548 31-08-2018 07:35:00 11.6 C 90 % 10.02 C
3549 31-08-2018 07:40:00 11.6 C 91 % 10.18 C
3550 31-08-2018 07:45:00 11.7 C 90 % 10.12 C
Sensor: Nr:Datum:Temp:Feuchte:Taupunkt:
Aussen-T/F 3551 31-08-2018 07:50:00 11.7 C 91 % 10.28 C
3552 31-08-2018 07:55:00 11.8 C 91 % 10.38 C
3553 31-08-2018 08:00:00 11.9 C 91 % 10.48 C
3554 31-08-2018 08:05:00 12 C 90 % 10.41 C
3555 31-08-2018 08:10:00 12.1 C 91 % 10.68 C
3556 31-08-2018 08:15:00 12.2 C 90 % 10.61 C
3557 31-08-2018 08:20:00 12.2 C 90 % 10.61 C
3558 31-08-2018 08:25:00 12.3 C 90 % 10.71 C
3559 31-08-2018 08:30:00 12.3 C 90 % 10.71 C
3560 31-08-2018 08:35:00 12.4 C 90 % 10.81 C
3561 31-08-2018 08:40:00 12.4 C 88 % 10.47 C
3562 31-08-2018 08:45:00 12.6 C 88 % 10.67 C
3563 31-08-2018 08:50:00 12.6 C 87 % 10.5 C
3564 31-08-2018 08:55:00 12.7 C 87 % 10.59 C
3565 31-08-2018 09:00:00 12.8 C 87 % 10.69 C
3566 31-08-2018 09:05:00 12.9 C 87 % 10.79 C
3567 31-08-2018 09:10:00 13 C 87 % 10.89 C
3568 31-08-2018 09:15:00 13.1 C 86 % 10.81 C
3569 31-08-2018 09:20:00 13.2 C 86 % 10.91 C
3570 31-08-2018 09:25:00 13.3 C 85 % 10.83 C
3571 31-08-2018 09:30:00 13.4 C 85 % 10.93 C
3572 31-08-2018 09:35:00 13.5 C 84 % 10.85 C
3573 31-08-2018 09:40:00 13.6 C 85 % 11.13 C
3574 31-08-2018 09:45:00 13.7 C 85 % 11.23 C
3575 31-08-2018 09:50:00 13.9 C 85 % 11.42 C
Sensor: Nr:Datum:Temp:Feuchte:Taupunkt:
Aussen-T/F 3576 31-08-2018 09:55:00 14 C 84 % 11.34 C
3577 31-08-2018 10:00:00 14.1 C 83 % 11.26 C
3578 31-08-2018 10:05:00 14.2 C 83 % 11.36 C
3579 31-08-2018 10:10:00 14.3 C 84 % 11.64 C
3580 31-08-2018 10:15:00 14.4 C 83 % 11.55 C
3581 31-08-2018 10:20:00 14.6 C 83 % 11.75 C
3582 31-08-2018 10:25:00 14.8 C 82 % 11.76 C
3583 31-08-2018 10:30:00 14.9 C 81 % 11.67 C
3584 31-08-2018 10:35:00 15.1 C 82 % 12.05 C
3585 31-08-2018 10:40:00 15.2 C 80 % 11.78 C
3586 31-08-2018 10:45:00 15.3 C 80 % 11.87 C
3587 31-08-2018 10:50:00 15.4 C 80 % 11.97 C
3588 31-08-2018 10:55:00 15.6 C 79 % 11.97 C
3589 31-08-2018 11:00:00 15.7 C 78 % 11.88 C
3590 31-08-2018 11:05:00 15.8 C 78 % 11.97 C
3591 31-08-2018 11:10:00 15.9 C 78 % 12.07 C
3592 31-08-2018 11:15:00 15.9 C 77 % 11.88 C
3593 31-08-2018 11:20:00 16.1 C 78 % 12.27 C
3594 31-08-2018 11:25:00 16.1 C 76 % 11.87 C
3595 31-08-2018 11:30:00 16.3 C 77 % 12.26 C
3596 31-08-2018 11:35:00 16.4 C 76 % 12.16 C
3597 31-08-2018 11:40:00 16.6 C 74 % 11.95 C
3598 31-08-2018 11:45:00 16.7 C 74 % 12.05 C
3599 31-08-2018 11:50:00 16.7 C 72 % 11.63 C
3600 31-08-2018 11:55:00 16.7 C 73 % 11.84 C
Sensor: Nr:Datum:Temp:Feuchte:Taupunkt:
Aussen-T/F 3601 31-08-2018 12:00:00 16.7 C 72 % 11.63 C
3602 31-08-2018 12:05:00 16.9 C 73 % 12.03 C
3603 31-08-2018 12:10:00 17.2 C 72 % 12.11 C
3604 31-08-2018 12:15:00 17.3 C 71 % 12 C
3605 31-08-2018 12:20:00 17.5 C 69 % 11.75 C
3606 31-08-2018 12:25:00 17.7 C 69 % 11.95 C
3607 31-08-2018 12:30:00 17.7 C 67 % 11.5 C
3608 31-08-2018 12:35:00 17.7 C 67 % 11.5 C
3609 31-08-2018 12:40:00 17.8 C 66 % 11.37 C
3610 31-08-2018 12:45:00 17.8 C 65 % 11.14 C
3611 31-08-2018 12:50:00 17.9 C 65 % 11.23 C
3612 31-08-2018 12:55:00 18 C 64 % 11.09 C
3613 31-08-2018 13:00:00 18.1 C 65 % 11.42 C
3614 31-08-2018 13:05:00 18.2 C 63 % 11.05 C
3615 31-08-2018 13:10:00 18.3 C 63 % 11.14 C
3616 31-08-2018 13:15:00 18.4 C 63 % 11.23 C
3617 31-08-2018 13:20:00 18.5 C 61 % 10.84 C
3618 31-08-2018 13:25:00 18.5 C 63 % 11.33 C
3619 31-08-2018 13:30:00 18.6 C 61 % 10.94 C
3620 31-08-2018 13:35:00 18.7 C 60 % 10.78 C
3621 31-08-2018 13:40:00 18.7 C 59 % 10.53 C
3622 31-08-2018 13:45:00 18.8 C 59 % 10.63 C
3623 31-08-2018 13:50:00 18.8 C 59 % 10.63 C
3624 31-08-2018 13:55:00 19 C 58 % 10.56 C
3625 31-08-2018 14:00:00 19.1 C 58 % 10.65 C
Sensor: Nr:Datum:Temp:Feuchte:Taupunkt:
Aussen-T/F 3626 31-08-2018 14:05:00 19.2 C 59 % 11 C
3627 31-08-2018 14:10:00 19.3 C 58 % 10.84 C
3628 31-08-2018 14:15:00 19.3 C 55 % 10.04 C
3629 31-08-2018 14:20:00 19.4 C 55 % 10.13 C
3630 31-08-2018 14:25:00 19.4 C 55 % 10.13 C
3631 31-08-2018 14:30:00 19.4 C 54 % 9.86 C
3632 31-08-2018 14:35:00 19.4 C 54 % 9.86 C
3633 31-08-2018 14:40:00 19.3 C 54 % 9.77 C
3634 31-08-2018 14:45:00 19.3 C 55 % 10.04 C
3635 31-08-2018 14:50:00 19.4 C 54 % 9.86 C
3636 31-08-2018 14:55:00 19.4 C 55 % 10.13 C
3637 31-08-2018 15:00:00 19.4 C 55 % 10.13 C
3638 31-08-2018 15:05:00 19.6 C 55 % 10.32 C
3639 31-08-2018 15:10:00 19.7 C 53 % 9.86 C
3640 31-08-2018 15:15:00 19.7 C 53 % 9.86 C
3641 31-08-2018 15:20:00 19.8 C 52 % 9.67 C
3642 31-08-2018 15:25:00 19.9 C 52 % 9.76 C
3643 31-08-2018 15:30:00 19.8 C 52 % 9.67 C
3644 31-08-2018 15:35:00 19.7 C 53 % 9.86 C
3645 31-08-2018 15:40:00 19.7 C 52 % 9.58 C
3646 31-08-2018 15:45:00 19.6 C 52 % 9.48 C
3647 31-08-2018 15:50:00 19.4 C 52 % 9.3 C
3648 31-08-2018 15:55:00 19.4 C 53 % 9.58 C
3649 31-08-2018 16:00:00 19.6 C 52 % 9.48 C
3650 31-08-2018 16:05:00 19.7 C 52 % 9.58 C
Sensor: Nr:Datum:Temp:Feuchte:Taupunkt:
Aussen-T/F 3651 31-08-2018 16:10:00 19.9 C 51 % 9.47 C
3652 31-08-2018 16:15:00 20.1 C 51 % 9.66 C
3653 31-08-2018 16:20:00 20 C 51 % 9.56 C
3654 31-08-2018 16:25:00 20 C 50 % 9.27 C
3655 31-08-2018 16:30:00 20 C 50 % 9.27 C
3656 31-08-2018 16:35:00 20.2 C 49 % 9.15 C
3657 31-08-2018 16:40:00 20.3 C 48 % 8.94 C
3658 31-08-2018 16:45:00 20.3 C 48 % 8.94 C
3659 31-08-2018 16:50:00 20.5 C 48 % 9.12 C
3660 31-08-2018 16:55:00 20.7 C 48 % 9.3 C
3661 31-08-2018 17:00:00 20.9 C 47 % 9.17 C
3662 31-08-2018 17:05:00 20.8 C 47 % 9.08 C
3663 31-08-2018 17:10:00 20.6 C 47 % 8.9 C
3664 31-08-2018 17:15:00 20.3 C 48 % 8.94 C
3665 31-08-2018 17:20:00 20.2 C 50 % 9.45 C
3666 31-08-2018 17:25:00 20.2 C 49 % 9.15 C
3667 31-08-2018 17:30:00 20.3 C 47 % 8.63 C
3668 31-08-2018 17:35:00 20.3 C 49 % 9.24 C
3669 31-08-2018 17:40:00 20.7 C 48 % 9.3 C
3670 31-08-2018 17:45:00 20.8 C 47 % 9.08 C
3671 31-08-2018 17:50:00 20.9 C 47 % 9.17 C
3672 31-08-2018 17:55:00 20.9 C 47 % 9.17 C
3673 31-08-2018 18:00:00 20.9 C 46 % 8.86 C
3674 31-08-2018 18:05:00 20.9 C 46 % 8.86 C
3675 31-08-2018 18:10:00 20.9 C 45 % 8.53 C
Sensor: Nr:Datum:Temp:Feuchte:Taupunkt:
Aussen-T/F 3676 31-08-2018 18:15:00 20.9 C 45 % 8.53 C
3677 31-08-2018 18:20:00 20.9 C 44 % 8.2 C
3678 31-08-2018 18:25:00 20.9 C 44 % 8.2 C
3679 31-08-2018 18:30:00 20.8 C 44 % 8.11 C
3680 31-08-2018 18:35:00 20.9 C 43 % 7.86 C
3681 31-08-2018 18:40:00 20.9 C 43 % 7.86 C
3682 31-08-2018 18:45:00 20.9 C 42 % 7.52 C
3683 31-08-2018 18:50:00 20.8 C 43 % 7.77 C
3684 31-08-2018 18:55:00 20.6 C 43 % 7.59 C
3685 31-08-2018 19:00:00 20.4 C 43 % 7.41 C
3686 31-08-2018 19:05:00 20.2 C 43 % 7.23 C
3687 31-08-2018 19:10:00 20.1 C 45 % 7.81 C
3688 31-08-2018 19:15:00 19.9 C 44 % 7.3 C
3689 31-08-2018 19:20:00 19.7 C 45 % 7.44 C
3690 31-08-2018 19:25:00 19.6 C 44 % 7.03 C
3691 31-08-2018 19:30:00 19.4 C 45 % 7.17 C
3692 31-08-2018 19:35:00 19.3 C 45 % 7.08 C
3693 31-08-2018 19:40:00 19.2 C 46 % 7.31 C
3694 31-08-2018 19:45:00 19.1 C 51 % 8.73 C
3695 31-08-2018 19:50:00 18.8 C 51 % 8.46 C
3696 31-08-2018 19:55:00 18.3 C 52 % 8.28 C
3697 31-08-2018 20:00:00 17.8 C 54 % 8.38 C
3698 31-08-2018 20:05:00 17.3 C 56 % 8.45 C
3699 31-08-2018 20:10:00 16.8 C 58 % 8.5 C
3700 31-08-2018 20:15:00 16.5 C 59 % 8.47 C
Sensor: Nr:Datum:Temp:Feuchte:Taupunkt:
Aussen-T/F 3701 31-08-2018 20:20:00 16.2 C 60 % 8.43 C
3702 31-08-2018 20:25:00 15.9 C 59 % 7.91 C
3703 31-08-2018 20:30:00 15.9 C 61 % 8.4 C
3704 31-08-2018 20:35:00 15.8 C 62 % 8.54 C
3705 31-08-2018 20:40:00 15.7 C 62 % 8.45 C
3706 31-08-2018 20:45:00 15.5 C 62 % 8.26 C
3707 31-08-2018 20:50:00 15.3 C 63 % 8.31 C
3708 31-08-2018 20:55:00 15.2 C 64 % 8.44 C
3709 31-08-2018 21:00:00 15 C 65 % 8.48 C
3710 31-08-2018 21:05:00 14.8 C 67 % 8.74 C
3711 31-08-2018 21:10:00 14.7 C 67 % 8.64 C
3712 31-08-2018 21:15:00 14.6 C 67 % 8.55 C
3713 31-08-2018 21:20:00 14.5 C 67 % 8.45 C
3714 31-08-2018 21:25:00 14.4 C 67 % 8.36 C
3715 31-08-2018 21:30:00 14.3 C 68 % 8.48 C
3716 31-08-2018 21:35:00 14.2 C 69 % 8.6 C
3717 31-08-2018 21:40:00 14.1 C 69 % 8.5 C
3718 31-08-2018 21:45:00 14.1 C 70 % 8.72 C
3719 31-08-2018 21:50:00 13.9 C 70 % 8.53 C
3720 31-08-2018 21:55:00 13.9 C 71 % 8.73 C
3721 31-08-2018 22:00:00 13.8 C 71 % 8.64 C
3722 31-08-2018 22:05:00 13.8 C 71 % 8.64 C
3723 31-08-2018 22:10:00 13.8 C 71 % 8.64 C
3724 31-08-2018 22:15:00 13.8 C 72 % 8.85 C
3725 31-08-2018 22:20:00 13.7 C 72 % 8.75 C
Sensor: Nr:Datum:Temp:Feuchte:Taupunkt:
Aussen-T/F 3726 31-08-2018 22:25:00 13.7 C 73 % 8.95 C
3727 31-08-2018 22:30:00 13.7 C 73 % 8.95 C
3728 31-08-2018 22:35:00 13.6 C 73 % 8.86 C
3729 31-08-2018 22:40:00 13.5 C 73 % 8.76 C
3730 31-08-2018 22:45:00 13.5 C 73 % 8.76 C
3731 31-08-2018 22:50:00 13.6 C 73 % 8.86 C
3732 31-08-2018 22:55:00 13.6 C 72 % 8.65 C
3733 31-08-2018 23:00:00 13.6 C 73 % 8.86 C
3734 31-08-2018 23:05:00 13.6 C 73 % 8.86 C
3735 31-08-2018 23:10:00 13.6 C 73 % 8.86 C
3736 31-08-2018 23:15:00 13.5 C 74 % 8.96 C
3737 31-08-2018 23:20:00 13.4 C 74 % 8.87 C
3738 31-08-2018 23:25:00 13.3 C 75 % 8.97 C
3739 31-08-2018 23:30:00 13.3 C 75 % 8.97 C
3740 31-08-2018 23:35:00 13.2 C 75 % 8.87 C
3741 31-08-2018 23:40:00 13.1 C 75 % 8.77 C
3742 31-08-2018 23:45:00 13 C 76 % 8.87 C
3743 31-08-2018 23:50:00 12.9 C 76 % 8.78 C
3744 31-08-2018 23:55:00 12.8 C 76 % 8.68 C
3745 01-09-2018 00:00:00 12.7 C 76 % 8.58 C
3746 01-09-2018 00:05:00 12.6 C 77 % 8.68 C
3747 01-09-2018 00:10:00 12.4 C 77 % 8.49 C
3748 01-09-2018 00:15:00 12.3 C 78 % 8.58 C
3749 01-09-2018 00:20:00 12.2 C 78 % 8.48 C
3750 01-09-2018 00:25:00 12.1 C 78 % 8.38 C
Sensor: Nr:Datum:Temp:Feuchte:Taupunkt:
Aussen-T/F 3751 01-09-2018 00:30:00 11.9 C 79 % 8.38 C
3752 01-09-2018 00:35:00 11.8 C 80 % 8.47 C
3753 01-09-2018 00:40:00 11.8 C 80 % 8.47 C
3754 01-09-2018 00:45:00 11.7 C 80 % 8.37 C
3755 01-09-2018 00:50:00 11.6 C 81 % 8.45 C
3756 01-09-2018 00:55:00 11.6 C 81 % 8.45 C
3757 01-09-2018 01:00:00 11.5 C 81 % 8.36 C
3758 01-09-2018 01:05:00 11.5 C 81 % 8.36 C
3759 01-09-2018 01:10:00 11.4 C 81 % 8.26 C
3760 01-09-2018 01:15:00 11.3 C 81 % 8.16 C
3761 01-09-2018 01:20:00 11.1 C 82 % 8.15 C
3762 01-09-2018 01:25:00 11.1 C 83 % 8.33 C
3763 01-09-2018 01:30:00 10.9 C 83 % 8.13 C
3764 01-09-2018 01:35:00 10.8 C 83 % 8.03 C
3765 01-09-2018 01:40:00 10.7 C 83 % 7.93 C
3766 01-09-2018 01:45:00 10.6 C 83 % 7.84 C
3767 01-09-2018 01:50:00 10.5 C 84 % 7.91 C
3768 01-09-2018 01:55:00 10.4 C 84 % 7.82 C
3769 01-09-2018 02:00:00 10.3 C 85 % 7.89 C
3770 01-09-2018 02:05:00 10.3 C 85 % 7.89 C
3771 01-09-2018 02:10:00 10.2 C 85 % 7.79 C
3772 01-09-2018 02:15:00 10.1 C 85 % 7.7 C
3773 01-09-2018 02:20:00 10.1 C 86 % 7.87 C
3774 01-09-2018 02:25:00 10.1 C 86 % 7.87 C
3775 01-09-2018 02:30:00 9.9 C 86 % 7.67 C
Sensor: Nr:Datum:Temp:Feuchte:Taupunkt:
Aussen-T/F 3776 01-09-2018 02:35:00 9.8 C 86 % 7.57 C
3777 01-09-2018 02:40:00 9.8 C 86 % 7.57 C
3778 01-09-2018 02:45:00 9.8 C 87 % 7.74 C
3779 01-09-2018 02:50:00 9.7 C 87 % 7.64 C
3780 01-09-2018 02:55:00 9.6 C 87 % 7.55 C
3781 01-09-2018 03:00:00 9.6 C 87 % 7.55 C
3782 01-09-2018 03:05:00 9.4 C 87 % 7.35 C
3783 01-09-2018 03:10:00 9.4 C 87 % 7.35 C
3784 01-09-2018 03:15:00 9.3 C 88 % 7.42 C
3785 01-09-2018 03:20:00 9.3 C 88 % 7.42 C
3786 01-09-2018 03:25:00 9.3 C 88 % 7.42 C
3787 01-09-2018 03:30:00 9.2 C 88 % 7.32 C
3788 01-09-2018 03:35:00 9.2 C 88 % 7.32 C
3789 01-09-2018 03:40:00 9.1 C 89 % 7.39 C
3790 01-09-2018 03:45:00 9.1 C 89 % 7.39 C
3791 01-09-2018 03:50:00 9.1 C 89 % 7.39 C
3792 01-09-2018 03:55:00 9 C 89 % 7.29 C
3793 01-09-2018 04:00:00 8.9 C 90 % 7.35 C
3794 01-09-2018 04:05:00 8.9 C 89 % 7.19 C
3795 01-09-2018 04:10:00 8.9 C 90 % 7.35 C
3796 01-09-2018 04:15:00 8.8 C 90 % 7.25 C
3797 01-09-2018 04:20:00 8.8 C 90 % 7.25 C
3798 01-09-2018 04:25:00 8.8 C 90 % 7.25 C
3799 01-09-2018 04:30:00 8.8 C 90 % 7.25 C
3800 01-09-2018 04:35:00 8.7 C 90 % 7.15 C
Sensor: Nr:Datum:Temp:Feuchte:Taupunkt:
Aussen-T/F 3801 01-09-2018 04:40:00 8.6 C 90 % 7.06 C
3802 01-09-2018 04:45:00 8.6 C 91 % 7.22 C
3803 01-09-2018 04:50:00 8.6 C 91 % 7.22 C
3804 01-09-2018 04:55:00 8.6 C 91 % 7.22 C
3805 01-09-2018 05:00:00 8.5 C 91 % 7.12 C
3806 01-09-2018 05:05:00 8.4 C 91 % 7.02 C
3807 01-09-2018 05:10:00 8.4 C 91 % 7.02 C
3808 01-09-2018 05:15:00 8.4 C 91 % 7.02 C
3809 01-09-2018 05:20:00 8.3 C 91 % 6.92 C
3810 01-09-2018 05:25:00 8.4 C 91 % 7.02 C
3811 01-09-2018 05:30:00 8.3 C 91 % 6.92 C
3812 01-09-2018 05:35:00 8.3 C 92 % 7.08 C
3813 01-09-2018 05:40:00 8.3 C 91 % 6.92 C
3814 01-09-2018 05:45:00 8.3 C 92 % 7.08 C
3815 01-09-2018 05:50:00 8.2 C 91 % 6.82 C
3816 01-09-2018 05:55:00 8.1 C 91 % 6.72 C
3817 01-09-2018 06:00:00 8.1 C 92 % 6.88 C
3818 01-09-2018 06:05:00 8.1 C 92 % 6.88 C
3819 01-09-2018 06:10:00 8.1 C 92 % 6.88 C
3820 01-09-2018 06:15:00 8 C 92 % 6.78 C
3821 01-09-2018 06:20:00 7.9 C 92 % 6.68 C
3822 01-09-2018 06:25:00 7.9 C 92 % 6.68 C
3823 01-09-2018 06:30:00 7.9 C 92 % 6.68 C
3824 01-09-2018 06:35:00 7.8 C 92 % 6.58 C
3825 01-09-2018 06:40:00 7.8 C 92 % 6.58 C
Sensor: Nr:Datum:Temp:Feuchte:Taupunkt:
Aussen-T/F 3826 01-09-2018 06:45:00 7.8 C 93 % 6.74 C
3827 01-09-2018 06:50:00 7.9 C 93 % 6.84 C
3828 01-09-2018 06:55:00 7.8 C 93 % 6.74 C
3829 01-09-2018 07:00:00 7.8 C 93 % 6.74 C
3830 01-09-2018 07:05:00 7.8 C 93 % 6.74 C
3831 01-09-2018 07:10:00 7.8 C 93 % 6.74 C
3832 01-09-2018 07:15:00 7.8 C 93 % 6.74 C
3833 01-09-2018 07:20:00 7.8 C 93 % 6.74 C
3834 01-09-2018 07:25:00 7.8 C 93 % 6.74 C
3835 01-09-2018 07:30:00 7.8 C 93 % 6.74 C
3836 01-09-2018 07:35:00 7.8 C 93 % 6.74 C
3837 01-09-2018 07:40:00 7.9 C 93 % 6.84 C
3838 01-09-2018 07:45:00 7.9 C 93 % 6.84 C
3839 01-09-2018 07:50:00 8 C 93 % 6.94 C
3840 01-09-2018 07:55:00 8 C 93 % 6.94 C
3841 01-09-2018 08:00:00 8.1 C 93 % 7.04 C
3842 01-09-2018 08:05:00 8.1 C 93 % 7.04 C
3843 01-09-2018 08:10:00 8.2 C 93 % 7.14 C
3844 01-09-2018 08:15:00 8.2 C 93 % 7.14 C
3845 01-09-2018 08:20:00 8.3 C 93 % 7.24 C
3846 01-09-2018 08:25:00 8.3 C 93 % 7.24 C
3847 01-09-2018 08:30:00 8.4 C 94 % 7.49 C
3848 01-09-2018 08:35:00 8.5 C 94 % 7.59 C
3849 01-09-2018 08:40:00 8.6 C 94 % 7.69 C
3850 01-09-2018 08:45:00 8.7 C 94 % 7.79 C
Sensor: Nr:Datum:Temp:Feuchte:Taupunkt:
Aussen-T/F 3851 01-09-2018 08:50:00 8.8 C 94 % 7.89 C
3852 01-09-2018 08:55:00 8.9 C 94 % 7.99 C
3853 01-09-2018 09:00:00 9 C 94 % 8.09 C
3854 01-09-2018 09:05:00 9.1 C 94 % 8.19 C
3855 01-09-2018 09:10:00 9.2 C 94 % 8.29 C
3856 01-09-2018 09:15:00 9.3 C 94 % 8.39 C
3857 01-09-2018 09:20:00 9.5 C 94 % 8.58 C
3858 01-09-2018 09:25:00 9.6 C 94 % 8.68 C
3859 01-09-2018 09:30:00 9.8 C 94 % 8.88 C
3860 01-09-2018 09:35:00 9.9 C 94 % 8.98 C
3861 01-09-2018 09:40:00 10.1 C 94 % 9.18 C
3862 01-09-2018 09:45:00 10.3 C 94 % 9.38 C
3863 01-09-2018 09:50:00 10.4 C 94 % 9.48 C
3864 01-09-2018 09:55:00 10.6 C 93 % 9.52 C
3865 01-09-2018 10:00:00 10.8 C 93 % 9.71 C
3866 01-09-2018 10:05:00 10.9 C 93 % 9.81 C
3867 01-09-2018 10:10:00 11.1 C 93 % 10.01 C
3868 01-09-2018 10:15:00 11.3 C 92 % 10.05 C
3869 01-09-2018 10:20:00 11.5 C 91 % 10.08 C
3870 01-09-2018 10:25:00 11.7 C 90 % 10.12 C
3871 01-09-2018 10:30:00 11.9 C 90 % 10.31 C
3872 01-09-2018 10:35:00 12.2 C 89 % 10.44 C
3873 01-09-2018 10:40:00 12.3 C 88 % 10.37 C
3874 01-09-2018 10:45:00 12.6 C 86 % 10.32 C
3875 01-09-2018 10:50:00 12.9 C 85 % 10.44 C
Sensor: Nr:Datum:Temp:Feuchte:Taupunkt:
Aussen-T/F 3876 01-09-2018 10:55:00 13.1 C 83 % 10.28 C
3877 01-09-2018 11:00:00 13.3 C 82 % 10.3 C
3878 01-09-2018 11:05:00 13.7 C 80 % 10.32 C
3879 01-09-2018 11:10:00 14 C 80 % 10.61 C